[[{"header":{"parameterUnit":"m.s-1","parameterCategory":1,"la1":31.0,"la2":29.5877,"lo1":-88.7671,"lo2":-86.6584,"dy":0.0162,"dx":0.0185,"nx":115,"ny":88,"refTime":"2023-09-06T18:00:00:Z","depth":0,"parameterNumber":2,"parameterNumberName":"U-component_of_WINDS"},"data":[0.0,0.0,0.0,0.0,0.0,0.0,0.0,0.0,0.0,0.0,0.0,0.0,0.0,0.0,0.0,0.0,0.0,0.0,0.0,0.0,0.0,0.0,0.0,0.0,0.0,0.0,0.0,0.0,0.0,0.0,0.0,0.0,0.0,0.0,0.0,0.0,0.0,0.0,0.0,0.0,0.0,0.0,0.0,0.0,0.0,0.0,0.0,0.0,0.0,0.0,0.0,0.0,0.0,0.0,0.0,0.0,0.0,0.0,0.0,0.0,0.0,0.0,0.0,0.0,0.0,0.0,0.0,0.0,0.0,0.0,0.0,0.0,0.0,0.0,0.0,0.0,0.0,0.0,0.0,0.0,0.0,0.0,0.0,0.0,0.0,0.0,0.0,0.0,0.0,0.0,0.0,0.0,0.0,0.0,0.0,0.0,0.0,0.0,0.0,0.0,0.0,0.0,0.0,0.0,0.0,0.0,0.0,0.0,0.0,0.0,0.0,0.0,0.0,0.0,0.0,0.0,0.0,0.0,0.0,0.0,0.0,0.0,0.0,0.0,0.0,0.0,0.0,0.0,0.0,0.0,0.0,0.0,0.0,0.0,0.0,0.0,0.0,0.0,0.0,0.0,0.0,0.0,0.0,0.0,0.0,0.0,0.0,0.0,0.0,0.0,0.0,0.0,0.0,0.0,0.0,0.0,0.0,0.0,0.0,0.0,0.0,0.0,0.0,0.0,0.0,0.0,0.0,0.0,0.0,0.0,0.0,0.0,0.0,0.0,0.0,0.0,0.0,0.0,0.0,0.0,0.0,0.0,0.0,0.0,0.0,0.0,0.0,0.0,0.0,0.0,0.0,0.0,0.0,0.0,0.0,0.0,0.0,0.0,0.0,0.0,0.0,0.0,0.0,0.0,0.0,0.0,0.0,0.0,0.0,0.0,0.0,0.0,0.0,0.0,0.0,0.0,0.0,0.0,0.0,0.0,0.0,0.0,0.0,0.0,0.0,0.0,0.0,0.0,0.0,0.0,0.0,0.0,0.0,0.0,0.0,0.0,0.0,0.0,0.0,0.0,0.0,0.0,0.0,0.0,0.0,0.0,0.0,0.0,0.0,0.0,0.0,0.0,0.0,0.0,0.0,0.0,0.0,0.0,0.0,0.0,0.0,0.0,0.0,0.0,0.0,0.0,0.0,0.0,0.0,0.0,0.0,0.0,0.0,0.0,0.0,0.0,0.0,0.0,0.0,0.0,0.0,0.0,0.0,0.0,0.0,0.0,0.0,0.0,0.0,0.0,0.0,0.0,0.0,0.0,0.0,0.0,0.0,0.0,0.0,0.0,0.0,0.0,0.0,0.0,0.0,0.0,0.0,0.0,0.0,0.0,0.0,0.0,0.0,0.0,0.0,0.0,0.0,0.0,0.0,0.0,0.0,0.0,0.0,0.0,0.0,0.0,0.0,0.0,0.0,0.0,0.0,0.0,0.0,0.0,0.0,0.0,0.0,0.0,0.0,0.0,0.0,0.0,0.0,0.0,0.0,0.0,0.0,0.0,0.0,0.0,0.0,0.0,0.0,0.0,0.0,0.0,0.0,0.0,0.0,0.0,0.0,0.0,0.0,0.0,0.0,0.0,0.0,0.0,0.0,0.0,0.0,0.0,0.0,0.0,0.0,0.0,0.0,0.0,0.0,0.0,0.0,0.0,0.0,0.0,0.0,0.0,0.0,0.0,0.0,0.0,0.0,0.0,0.0,0.0,0.0,0.0,0.0,0.0,0.0,0.0,0.0,0.0,0.0,0.0,0.0,0.0,0.0,0.0,0.0,0.0,0.0,0.0,0.0,0.0,0.0,0.0,0.0,0.0,0.0,0.0,0.0,0.0,0.0,0.0,0.0,0.0,0.0,0.0,0.0,0.0,0.0,0.0,0.0,0.0,0.0,0.0,0.0,0.0,0.0,0.0,0.0,0.0,0.0,0.0,0.0,0.0,0.0,0.0,0.0,0.0,0.0,0.0,0.0,0.0,0.0,0.0,0.0,0.0,0.0,0.0,0.0,0.0,0.0,0.0,0.0,0.0,0.0,0.0,0.0,0.0,0.0,0.0,0.0,0.0,0.0,0.0,0.0,0.0,0.0,0.0,0.0,0.0,0.0,0.0,0.0,0.0,0.0,0.0,0.0,0.0,0.0,0.0,0.0,0.0,0.0,0.0,0.0,0.0,0.0,0.0,0.0,0.0,0.0,0.0,0.0,0.0,0.0,0.0,0.0,0.0,0.0,0.0,0.0,0.0,0.0,0.0,0.0,0.0,0.0,0.0,0.0,0.0,0.0,0.0,0.0,0.0,0.0,0.0,0.0,0.0,0.0,0.0,0.0,0.0,0.0,0.0,0.0,0.0,0.0,0.0,0.0,0.0,0.0,0.0,0.0,0.0,0.0,0.0,0.0,0.0,0.0,0.0,0.0,0.0,0.0,0.0,0.0,0.0,0.0,0.0,0.0,0.0,0.0,0.0,0.0,0.0,0.0,0.0,0.0,0.0,0.0,0.0,0.0,0.0,0.0,0.0,0.0,0.0,0.0,0.0,0.0,0.0,0.0,0.0,0.0,0.0,0.0,0.0,0.0,0.0,0.0,0.0,0.0,0.0,0.0,0.0,0.0,0.0,0.0,0.0,0.0,0.0,0.0,0.0,0.0,0.0,0.0,0.0,0.0,0.0,0.0,0.0,0.0,0.0,0.0,0.0,0.0,0.0,0.0,0.0,0.0,0.0,0.0,0.0,0.0,0.0,0.0,0.0,0.0,0.0,0.0,0.0,0.0,0.0,0.0,0.0,0.0,0.0,0.0,0.0,0.0,0.0,0.0,0.0,0.0,0.0,0.0,0.0,0.0,0.0,0.0,0.0,0.0,0.0,0.0,0.0,0.0,0.0,0.0,0.0,0.0,0.0,0.0,0.0,0.0,0.0,0.0,0.0,0.0,0.0,0.0,0.0,0.0,0.0,0.0,0.0,0.0,0.0,0.0,0.0,0.0,0.0,0.0,0.0,0.0,0.0,0.0,0.0,0.0,0.0,0.0,0.0,0.0,0.0,0.0,0.0,0.0,0.0,0.0,0.0,0.0,0.0,0.0,0.0,0.0,0.0,0.0,0.0,0.0,0.0,0.0,0.0,0.0,0.0,0.0,0.0,0.0,0.0,0.0,0.0,0.0,0.0,0.0,0.0,0.0,0.0,0.0,0.0,0.0,0.0,0.0,0.0,0.0,0.0,0.0,0.0,0.0,0.0,0.0,0.0,0.0,0.0,0.0,0.0,0.0,0.0,0.0,0.0,0.0,0.0,0.0,0.0,0.0,0.0,0.0,0.0,0.0,0.0,0.0,0.0,0.0,0.0,0.0,0.0,0.0,0.0,0.0,0.0,0.0,0.0,0.0,0.0,0.0,0.0,0.0,0.0,0.0,0.0,0.0,0.0,0.0,0.0,0.0,0.0,0.0,0.0,0.0,0.0,0.0,0.0,0.0,0.0,0.0,0.0,0.0,0.0,0.0,0.0,0.0,0.0,0.0,0.0,0.0,0.0,0.0,0.0,0.0,0.0,0.0,0.0,0.0,0.0,0.0,0.0,0.0,0.0,0.0,0.0,0.0,0.0,0.0,0.0,0.0,0.0,0.0,0.0,0.0,0.0,0.0,0.0,0.0,0.0,0.0,0.0,0.0,0.0,0.0,0.0,0.0,0.0,0.0,0.0,0.0,0.0,0.0,0.0,0.0,0.0,0.0,0.0,0.0,0.0,0.0,0.0,0.0,0.0,0.0,0.0,0.0,0.0,0.0,0.0,0.0,0.0,0.0,0.0,0.0,0.0,0.0,0.0,0.0,0.0,0.0,0.0,0.0,0.0,0.0,0.0,0.0,0.0,0.0,0.0,0.0,0.0,0.0,0.0,0.0,0.0,0.0,0.0,0.0,0.0,0.0,0.0,0.0,0.0,0.0,0.0,0.0,0.0,0.0,0.0,0.0,0.0,0.0,0.0,0.0,0.0,0.0,0.0,0.0,0.0,0.0,0.0,0.0,0.0,0.0,0.0,0.0,0.0,0.0,0.0,0.0,0.0,0.0,0.0,0.0,0.0,0.0,0.0,0.0,0.0,0.0,0.0,0.0,0.0,0.0,0.0,0.0,0.0,0.0,0.0,0.0,0.0,0.0,0.0,0.0,0.0,0.0,0.0,0.0,0.0,0.0,0.0,0.0,0.0,0.0,0.0,0.0,0.0,0.0,0.0,0.0,0.0,0.0,0.0,-0.5247,0.0,0.0,0.0,0.0,0.0,0.0,0.0,0.0,0.0,0.0,0.0,0.0,0.0,0.0,0.0,0.0,0.0,0.0,0.0,0.0,0.0,0.0,0.0,0.0,0.0,0.0,0.0,0.0,0.0,0.0,0.0,0.0,0.0,0.0,0.0,0.0,0.0,0.0,0.0,0.0,0.0,0.0,0.0,0.0,0.0,0.0,0.0,0.0,0.0,0.0,0.0,0.0,0.0,0.0,0.0,0.0,0.0,0.0,0.0,0.0,0.0,0.0,0.0,0.0,0.0,0.0,0.0,0.0,0.0,0.0,0.0,0.0,0.0,0.0,0.0,0.0,0.0,0.0,0.0,0.0,0.0,0.0,0.0,0.0,0.0,0.0,0.0,0.0,0.0,0.0,0.0,0.0,0.0,0.0,0.0,0.0,0.0,0.0,0.0,0.0,0.0,0.0,0.0,0.0,0.0,0.0,0.0,0.0,0.0,0.0,-0.4961,-0.4981,-0.4968,-0.5013,-0.5078,0.0,0.0,0.0,0.0,0.0,0.0,0.0,0.0,0.0,0.0,0.0,0.0,0.0,0.0,0.0,0.0,0.0,0.0,0.0,0.0,0.0,0.0,0.0,0.0,0.0,0.0,0.0,0.0,0.0,0.0,0.0,0.0,0.0,0.0,0.0,0.0,0.0,0.0,0.0,0.0,0.0,0.0,0.0,0.0,0.0,0.0,0.0,0.0,0.0,0.0,0.0,0.0,0.0,0.0,0.0,0.0,0.0,0.0,0.0,0.0,0.0,0.0,0.0,0.0,0.0,0.0,0.0,0.0,0.0,0.0,0.0,0.0,0.0,0.0,0.0,0.0,0.0,0.0,0.0,0.0,0.0,0.0,0.0,0.0,0.0,0.0,0.0,0.0,0.0,0.0,0.0,0.0,0.0,0.0,0.0,0.0,0.0,0.0,0.0,0.0,0.0,0.0,0.0,0.0,0.0,0.0,0.0,0.0,0.0,0.0,0.0,0.0,-0.4875,-0.4914,-0.502,0.0,0.0,0.0,0.0,0.0,0.0,0.0,0.0,0.0,0.0,0.0,0.0,0.0,0.0,0.0,0.0,0.0,0.0,0.0,0.0,0.0,0.0,0.0,0.0,0.0,0.0,0.0,0.0,0.0,0.0,0.0,0.0,0.0,0.0,0.0,0.0,0.0,0.0,0.0,0.0,0.0,0.0,0.0,0.0,0.0,0.0,0.0,0.0,0.0,0.0,0.0,0.0,0.0,0.0,0.0,0.0,0.0,0.0,0.0,0.0,0.0,0.0,0.0,0.0,0.0,0.0,0.0,0.0,0.0,0.0,0.0,0.0,0.0,0.0,0.0,0.0,0.0,0.0,0.0,0.0,0.0,0.0,0.0,0.0,0.0,0.0,0.0,0.0,0.0,0.0,0.0,0.0,0.0,0.0,0.0,0.0,0.0,0.0,0.0,0.0,0.0,0.0,0.0,0.0,0.0,0.0,0.0,0.0,0.0,0.0,-0.4988,-0.557,-0.5602,0.0,-0.5456,0.0,0.0,0.0,0.0,0.0,0.0,0.0,0.0,0.0,0.0,0.0,0.0,0.0,0.0,0.0,0.0,0.0,0.0,0.0,0.0,0.0,0.0,0.0,0.0,0.0,0.0,0.0,0.0,0.0,0.0,0.0,0.0,0.0,0.0,0.0,0.0,0.0,0.0,0.0,0.0,0.0,0.0,0.0,0.0,0.0,0.0,0.0,0.0,0.0,0.0,0.0,0.0,0.0,0.0,0.0,0.0,0.0,0.0,0.0,0.0,0.0,0.0,0.0,0.0,0.0,0.0,0.0,0.0,0.0,0.0,0.0,0.0,0.0,0.0,0.0,0.0,0.0,0.0,0.0,0.0,0.0,0.0,0.0,0.0,0.0,0.0,0.0,0.0,0.0,0.0,0.0,0.0,0.0,0.0,0.0,0.0,0.0,0.0,0.0,0.0,0.0,0.0,0.0,0.0,0.0,0.0,0.0,0.0,0.0,0.0,-0.5094,-0.5898,-0.5949,-0.5736,0.0,0.0,0.0,0.0,0.0,0.0,0.0,0.0,0.0,0.0,0.0,0.0,0.0,0.0,0.0,0.0,0.0,0.0,0.0,0.0,0.0,0.0,0.0,0.0,0.0,0.0,0.0,0.0,0.0,0.0,0.0,0.0,0.0,0.0,0.0,0.0,0.0,0.0,0.0,0.0,0.0,0.0,0.0,0.0,0.0,0.0,0.0,0.0,0.0,0.0,0.0,0.0,0.0,0.0,0.0,0.0,0.0,0.0,0.0,0.0,0.0,0.0,0.0,0.0,0.0,0.0,0.0,0.0,0.0,0.0,0.0,0.0,0.0,0.0,0.0,0.0,0.0,0.0,0.0,0.0,0.0,0.0,0.0,0.0,0.0,0.0,0.0,0.0,0.0,0.0,0.0,0.0,0.0,0.0,0.0,0.0,0.0,0.0,0.0,0.0,0.0,0.0,0.0,0.0,0.0,0.0,0.0,0.0,0.0,0.0,-0.5227,-0.5336,-0.6012,-0.5959,-0.5649,-0.5107,0.0,0.0,0.0,0.0,0.0,0.0,0.0,0.0,0.0,0.0,0.0,0.0,0.0,0.0,0.0,0.0,0.0,0.0,0.0,0.0,0.0,0.0,0.0,0.0,0.0,0.0,0.0,0.0,0.0,0.0,0.0,0.0,0.0,0.0,0.0,0.0,0.0,0.0,0.0,0.0,0.0,0.0,0.0,0.0,0.0,0.0,0.0,0.0,0.0,0.0,0.0,0.0,0.0,0.0,0.0,0.0,0.0,0.0,0.0,0.0,0.0,0.0,0.0,0.0,0.0,0.0,0.0,0.0,0.0,0.0,0.0,0.0,0.0,0.0,0.0,0.0,0.0,0.0,0.0,0.0,0.0,0.0,0.0,0.0,0.0,0.0,0.0,0.0,0.0,0.0,0.0,0.0,0.0,0.0,0.0,0.0,0.0,0.0,0.0,0.0,0.0,0.0,0.0,0.0,0.0,0.0,0.0,0.0,-0.6214,-0.5926,-0.584,-0.6007,-0.5619,-0.5328,0.0,0.0,0.0,0.0,0.0,0.0,0.0,0.0,0.0,0.0,0.0,0.0,0.0,0.0,0.0,0.0,0.0,0.0,0.0,0.0,0.0,0.0,0.0,0.0,0.0,0.0,0.0,0.0,0.0,0.0,0.0,0.0,0.0,0.0,0.0,0.0,0.0,0.0,0.0,0.0,0.0,0.0,0.0,0.0,0.0,0.0,0.0,0.0,0.0,0.0,0.0,0.0,0.0,0.0,0.0,0.0,0.0,0.0,0.0,0.0,0.0,0.0,0.0,0.0,0.0,0.0,0.0,0.0,0.0,0.0,0.0,0.0,0.0,0.0,0.0,0.0,0.0,0.0,0.0,0.0,0.0,0.0,0.0,0.0,0.0,0.0,0.0,0.0,0.0,0.0,0.0,0.0,0.0,0.0,0.0,0.0,0.0,0.0,0.0,0.0,0.0,0.0,0.0,0.0,0.0,0.0,0.0,0.0,0.0,-0.5961,-0.6364,-0.6257,-0.5715,-0.5868,-0.5696,0.0,0.0,0.0,0.0,0.0,0.0,0.0,0.0,0.0,0.0,0.0,0.0,0.0,0.0,0.0,0.0,0.0,0.0,0.0,0.0,0.0,0.0,0.0,0.0,0.0,0.0,0.0,0.0,0.0,0.0,0.0,0.0,0.0,0.0,0.0,0.0,0.0,0.0,0.0,0.0,0.0,0.0,0.0,0.0,0.0,0.0,0.0,0.0,0.0,0.0,0.0,0.0,0.0,0.0,0.0,0.0,0.0,0.0,0.0,0.0,0.0,0.0,0.0,0.0,0.0,0.0,0.0,0.0,0.0,0.0,0.0,0.0,0.0,0.0,0.0,0.0,0.0,0.0,0.0,0.0,0.0,0.0,0.0,0.0,0.0,0.0,0.0,0.0,0.0,0.0,0.0,0.0,0.0,0.0,0.0,0.0,0.0,0.0,0.0,0.0,0.0,0.0,0.0,0.0,0.0,0.0,0.0,0.0,0.0,-0.6046,0.0,-0.6474,-0.5715,-0.6018,-0.5852,0.0,0.0,0.0,0.0,0.0,0.0,0.0,0.0,0.0,0.0,0.0,0.0,0.0,0.0,0.0,0.0,0.0,0.0,0.0,0.0,0.0,0.0,0.0,0.0,0.0,0.0,0.0,0.0,0.0,0.0,0.0,0.0,0.0,0.0,0.0,0.0,0.0,0.0,0.0,0.0,0.0,0.0,0.0,0.0,0.0,0.0,0.0,0.0,0.0,0.0,0.0,0.0,0.0,0.0,0.0,0.0,0.0,0.0,0.0,0.0,0.0,0.0,0.0,0.0,0.0,0.0,0.0,0.0,0.0,0.0,0.0,0.0,0.0,0.0,0.0,0.0,0.0,0.0,0.0,0.0,0.0,0.0,0.0,0.0,0.0,0.0,0.0,0.0,0.0,0.0,0.0,0.0,0.0,0.0,0.0,0.0,0.0,0.0,0.0,0.0,0.0,0.0,0.0,0.0,0.0,0.0,0.0,0.0,-0.6084,-0.6592,-0.6604,-0.6463,-0.6049,-0.6104,-0.5776,0.0,0.0,0.0,0.0,0.0,0.0,0.0,0.0,0.0,0.0,0.0,0.0,0.0,0.0,0.0,0.0,0.0,0.0,0.0,0.0,0.0,0.0,0.0,0.0,0.0,0.0,0.0,0.0,0.0,0.0,0.0,0.0,0.0,0.0,0.0,0.0,0.0,0.0,0.0,0.0,0.0,0.0,0.0,0.0,0.0,0.0,0.0,0.0,0.0,0.0,0.0,0.0,0.0,0.0,0.0,0.0,0.0,0.0,0.0,0.0,0.0,0.0,0.0,0.0,0.0,0.0,0.0,0.0,0.0,0.0,0.0,0.0,0.0,0.0,0.0,0.0,0.0,0.0,0.0,0.0,0.0,0.0,0.0,0.0,0.0,0.0,0.0,0.0,0.0,0.0,0.0,0.0,0.0,0.0,0.0,0.0,0.0,0.0,0.0,0.0,0.0,0.0,0.0,0.0,0.0,0.0,0.0,0.0,0.0,-0.7337,-0.7184,-0.7269,-0.7587,-0.6778,-0.6147,0.0,0.0,0.0,0.0,0.0,0.0,0.0,0.0,0.0,0.0,0.0,0.0,0.0,0.0,0.0,0.0,0.0,0.0,0.0,0.0,0.0,0.0,0.0,0.0,0.0,0.0,0.0,0.0,0.0,0.0,0.0,0.0,0.0,0.0,0.0,0.0,0.0,0.0,0.0,0.0,0.0,0.0,0.0,0.0,0.0,0.0,0.0,0.0,0.0,0.0,0.0,0.0,0.0,0.0,0.0,0.0,0.0,0.0,0.0,0.0,0.0,0.0,0.0,0.0,0.0,0.0,0.0,0.0,0.0,0.0,0.0,0.0,0.0,0.0,0.0,0.0,0.0,0.0,0.0,0.0,0.0,0.0,0.0,0.0,0.0,0.0,0.0,0.0,0.0,0.0,0.0,0.0,0.0,0.0,0.0,0.0,0.0,0.0,0.0,0.0,0.0,0.0,0.0,0.0,0.0,0.0,0.0,0.0,0.0,-0.7972,-0.7844,-0.7913,-0.8207,-0.766,-0.7133,-0.6623,0.0,0.0,0.0,0.0,0.0,0.0,0.0,0.0,0.0,0.0,0.0,0.0,0.0,0.0,0.0,0.0,0.0,0.0,0.0,0.0,0.0,0.0,0.0,0.0,0.0,0.0,0.0,0.0,0.0,0.0,0.0,0.0,0.0,0.0,0.0,0.0,0.0,0.0,0.0,0.0,0.0,0.0,0.0,0.0,0.0,0.0,0.0,0.0,0.0,0.0,0.0,0.0,0.0,0.0,0.0,0.0,0.0,0.0,0.0,0.0,0.0,0.0,0.0,0.0,0.0,0.0,0.0,0.0,0.0,0.0,0.0,0.0,0.0,0.0,0.0,0.0,0.0,0.0,0.0,0.0,0.0,0.0,0.0,0.0,0.0,0.0,0.0,0.0,0.0,0.0,0.0,0.0,0.0,0.0,0.0,0.0,0.0,0.0,0.0,0.0,0.0,0.0,0.0,0.0,0.0,0.0,0.0,0.0,-0.8486,-0.8567,-0.8435,-0.8057,-0.867,-0.8492,0.0,0.0,0.0,0.0,0.0,0.0,0.0,0.0,0.0,0.0,0.0,0.0,0.0,0.0,0.0,0.0,0.0,0.0,0.0,0.0,0.0,0.0,0.0,0.0,0.0,0.0,0.0,0.0,0.0,0.0,0.0,0.0,0.0,0.0,0.0,0.0,0.0,0.0,0.0,0.0,0.0,0.0,0.0,0.0,0.0,0.0,0.0,0.0,0.0,0.0,0.0,0.0,0.0,0.0,0.0,0.0,0.0,0.0,0.0,0.0,0.0,0.0,0.0,0.0,0.0,0.0,0.0,0.0,0.0,0.0,0.0,0.0,0.0,0.0,0.0,0.0,0.0,0.0,0.0,0.0,0.0,0.0,0.0,0.0,0.0,0.0,0.0,0.0,0.0,0.0,0.0,0.0,0.0,0.0,0.0,0.0,0.0,0.0,0.0,0.0,0.0,0.0,0.0,0.0,0.0,0.0,0.0,0.0,0.0,-0.8565,-0.9691,-1.0043,-0.9543,-0.9471,-0.8906,0.0,0.0,0.0,0.0,0.0,0.0,0.0,0.0,0.0,0.0,0.0,0.0,0.0,0.0,0.0,0.0,0.0,0.0,0.0,0.0,0.0,0.0,0.0,0.0,0.0,0.0,0.0,0.0,0.0,0.0,0.0,0.0,0.0,0.0,0.0,0.0,0.0,0.0,0.0,0.0,0.0,0.0,0.0,0.0,0.0,0.0,0.0,0.0,0.0,0.0,0.0,0.0,0.0,0.0,0.0,0.0,0.0,0.0,0.0,0.0,0.0,0.0,0.0,0.0,0.0,0.0,0.0,0.0,0.0,0.0,0.0,0.0,0.0,0.0,0.0,0.0,0.0,0.0,0.0,0.0,0.0,0.0,0.0,0.0,0.0,0.0,0.0,0.0,0.0,0.0,0.0,0.0,0.0,0.0,0.0,0.0,0.0,0.0,0.0,0.0,0.0,0.0,0.0,0.0,0.0,0.0,0.0,0.0,-0.8163,-0.9082,-1.0564,-1.1156,-1.082,-1.0656,-0.983,0.0,0.0,0.0,0.0,0.0,0.0,0.0,0.0,0.0,0.0,0.0,0.0,0.0,0.0,0.0,0.0,0.0,0.0,0.0,0.0,0.0,0.0,0.0,0.0,0.0,0.0,0.0,0.0,0.0,0.0,0.0,0.0,0.0,0.0,0.0,0.0,0.0,0.0,0.0,0.0,0.0,0.0,0.0,0.0,0.0,0.0,0.0,0.0,0.0,0.0,0.0,0.0,0.0,0.0,0.0,0.0,0.0,0.0,0.0,0.0,0.0,0.0,0.0,0.0,0.0,0.0,0.0,0.0,0.0,0.0,0.0,0.0,0.0,0.0,0.0,0.0,0.0,0.0,0.0,0.0,0.0,0.0,0.0,0.0,0.0,0.0,0.0,0.0,0.0,0.0,0.0,0.0,0.0,0.0,0.0,0.0,0.0,0.0,0.0,0.0,0.0,0.0,0.0,0.0,0.0,0.0,0.0,0.0,-0.8488,-0.9774,-1.1225,-1.1981,-1.185,-1.1847,-1.0918,0.0,0.0,0.0,0.0,0.0,0.0,0.0,0.0,0.0,0.0,0.0,0.0,0.0,0.0,0.0,0.0,0.0,0.0,0.0,0.0,0.0,0.0,0.0,0.0,0.0,0.0,0.0,0.0,0.0,0.0,0.0,0.0,0.0,0.0,0.0,0.0,0.0,0.0,0.0,0.0,0.0,0.0,0.0,0.0,0.0,0.0,0.0,0.0,0.0,0.0,0.0,0.0,0.0,0.0,0.0,0.0,0.0,0.0,0.0,0.0,0.0,0.0,0.0,0.0,0.0,0.0,0.0,0.0,0.0,0.0,0.0,0.0,0.0,0.0,0.0,0.0,0.0,0.0,0.0,0.0,0.0,0.0,0.0,0.0,0.0,0.0,0.0,0.0,0.0,0.0,0.0,0.0,0.0,0.0,0.0,0.0,0.0,0.0,0.0,0.0,0.0,0.0,0.0,0.0,0.0,0.0,0.0,0.0,-0.8806,-0.9738,-1.16,-1.2523,-1.2288,-1.1674,-1.069,0.0,0.0,0.0,0.0,0.0,0.0,0.0,0.0,0.0,0.0,0.0,0.0,0.0,0.0,0.0,0.0,0.0,0.0,0.0,0.0,0.0,0.0,0.0,0.0,0.0,0.0,0.0,0.0,0.0,0.0,0.0,0.0,0.0,0.0,0.0,0.0,0.0,0.0,0.0,0.0,0.0,0.0,0.0,0.0,0.0,0.0,0.0,0.0,0.0181,0.0,0.0,0.0,0.0,0.0,0.0,0.0,0.0,0.0,0.0,0.0,0.0,0.0,0.0,0.0,0.0,0.0,0.0,0.0,0.0,0.0,0.0,0.0,0.0,0.0,0.0,0.0,0.0,0.0,0.0,0.0,0.0,0.0,0.0,0.0,0.0,0.0,0.0,0.0,0.0,0.0,0.0,0.0,0.0,0.0,0.0,0.0,0.0,0.0,0.0,0.0,0.0,0.0,0.0,0.0,0.0,0.0,0.0,0.0,-0.8746,-0.9902,-1.1338,-1.2095,-1.2069,-1.1165,-1.0322,0.0,0.0,0.0,0.0,0.0,0.0,0.0,0.0,0.0,0.0,0.0,0.0,0.0,0.0,0.0,0.0,0.0,0.0,0.0,0.0,0.0,0.0,0.0,0.0,0.0,0.0,0.0,0.0,0.0,0.0,0.0,0.0,0.0,0.0,0.0,0.0,0.0,0.0,0.0,0.0,0.0,0.0,0.0,0.0,0.0,0.0,0.0,0.0,0.0,0.0,0.0,0.0,0.0,0.0,0.0,0.0,0.0,0.0,0.0,0.0,0.0,0.0,0.0,0.0,0.0,0.0,0.0,0.0,0.0,0.0,0.0,0.0,0.0,0.0,0.0,0.0,0.0,0.0,0.0,0.0,0.0,0.0,0.0,0.0,0.0,0.0,0.0,0.0,0.0,0.0,0.0,0.0,0.0,0.0,0.0,0.0,0.0,0.0,0.0,0.0,0.0,0.0,0.0,0.0,0.0,0.0,0.0,-0.7825,-0.8752,-1.0021,-1.0903,-1.1496,-1.175,-1.0654,-1.0031,-0.9978,0.0,0.0,0.0,0.0,0.0,0.0,0.0,0.0,0.0,0.0,0.0,0.0,0.0,0.0,0.0,0.0,0.0,0.0,0.0,0.0,0.0,0.0,0.0,0.0,0.0,0.0,0.0,0.0,0.0,0.0,0.0,0.0,0.0,0.0,0.0,0.0,0.0,0.0,-0.051,-0.1567,0.0,0.0,0.0,0.0,0.0,0.0,0.0,0.0,-0.043,0.0,0.0,0.0,0.0,0.0,0.0,0.0,0.0,0.0,0.0,0.0,0.0,0.0,0.0,0.0,0.0,0.0,0.0,0.0,0.0,0.0,0.0,0.0,0.0,0.0,0.0,0.0,0.0,0.0,0.0,0.0,0.0,0.0,0.0,0.0,0.0,0.0,0.0,0.0,0.0,0.0,0.0,0.0,0.0,0.0,0.0,0.0,0.0,0.0,0.0,0.0,0.0,0.0,0.0,0.0,0.0,-0.7229,-0.8699,-0.96,-0.984,-1.1075,-1.1711,-1.162,-1.0765,-1.0273,-0.9998,0.0,0.0,0.0,0.0,0.0,0.0,0.0,0.0,0.0,0.0,0.0,0.0,0.0,0.0,0.0,0.0,0.0,0.0,0.0,0.0,0.0,0.0,0.0,0.0,0.0,0.0,0.0,0.0,0.0,0.0,0.0,0.0,0.0,0.0,0.0,0.0,0.0,0.0,0.0,-0.1857,-0.2573,0.0,0.0,0.0,0.0,0.0,0.0,0.0,0.0,-0.0527,0.0,0.0,0.0,0.0,0.0,0.0,0.0,0.0,0.0,0.0,0.0,0.0,0.0,0.0,0.0,0.0,0.0,0.0,0.0,0.0,0.0,0.0,0.0,0.0,0.0,0.0,0.0,0.0,0.0,0.0,0.0,0.0,0.0,0.0,0.0,0.0,0.0,0.0,0.0,0.0,0.0,0.0,0.0,0.0,0.0,0.0,0.0,0.0,0.0,0.0,0.0,0.0,0.0,0.0,0.0,-0.7228,-0.7953,-0.8656,-0.9427,-1.0024,-1.042,-1.0537,-0.9717,-0.9316,0.0,0.0,0.0,0.0,0.0,0.0,0.0,0.0,0.0,0.0,0.0,0.0,0.0,0.0,0.0,0.0,0.0,0.0,0.0,0.0,0.0,0.0,0.0,0.0,0.0,0.0,0.0,0.0,0.0,0.0,0.0,0.0,0.0,0.0,0.0,0.0,0.0,0.0,0.0,0.0,-0.1716,-0.2234,-0.179,0.0,0.0,0.0,0.0,0.0,0.0,-0.2018,-0.1937,0.0,0.0,0.0,0.0,0.0,0.0,0.0,0.0,0.0,0.0,0.0,0.0,0.0,0.0,0.0,0.0,0.0,0.0,0.0,0.0,0.0,0.0,0.0,0.0,0.0,0.0,0.0,0.0,0.0,0.0,0.0,0.0,0.0,0.0,0.0,0.0,0.0,0.0,0.0,0.0,0.0,0.0,0.0,0.0,0.0,0.0,0.0,0.0,0.0,0.0,0.0,0.0,0.0,0.0,0.0,-0.7322,-0.7324,-0.7842,-0.8941,-0.9023,-0.9195,-0.9482,-0.8916,-0.8645,0.0,0.0,0.0,0.0,0.0,0.0,0.0,0.0,0.0,0.0,0.0,0.0,0.0,0.0,0.0,0.0,0.0,0.0,0.0,0.0,0.0,0.0,0.0,0.0,0.0,0.0,0.0,0.0,0.0,0.0,0.0,0.0,0.0,0.0,0.0,0.0,0.0,0.0,0.0,0.0,0.0,-0.1962,-0.1396,-0.2592,0.0,0.0,0.0,0.0,-0.2859,-0.3055,0.0,0.0,0.0,0.0,0.0,0.0,0.0,0.0,0.0,0.0,0.0,0.0,0.0,0.0,0.0,0.0,0.0,0.0,0.0,0.0,0.0,0.0,0.0,0.0,0.0,0.0,0.0,0.0,0.0,0.0,0.0,0.0,0.0,0.0,0.0,0.0,0.0,0.0,0.0,0.0,0.0,0.0,0.0,0.0,0.0,0.0,0.0,0.0,0.0,0.0,0.0,0.0,0.0,0.0,0.0,0.0,-0.7731,-0.8351,-0.8664,-0.865,-0.8955,-0.9116,-0.9263,-0.9662,-0.9557,0.0,0.0,0.0,0.0,0.0,0.0,0.0,0.0,0.0,0.0,0.0,0.0,0.0,0.0,0.0,0.0,0.0,0.0,0.0,0.0,0.0,0.0,0.0,0.0,0.0,0.0,0.0,0.0,0.0,0.0,0.0,0.0,0.0,0.0,0.0,0.0,0.0,0.0,0.0,0.0,0.0,-0.2414,-0.2358,-0.3318,-0.3836,0.0,0.0,-0.3119,-0.2161,-0.2516,0.0,0.0,0.0,0.0,0.0,0.0,0.0,0.0,0.0,0.0,0.0,0.0,0.0,0.0,0.0,0.0,0.0,0.0,0.0,0.0,0.0,0.0,0.0,0.0,0.0,0.0,0.0,0.0,0.0,0.0,0.0,0.0,0.0,0.0,0.0,0.0,0.0,0.0,0.0,0.0,0.0,0.0,0.0,0.0,0.0,0.0,0.0,0.0,0.0,0.0,0.0,0.0,0.0,0.0,0.0,-0.6348,-0.7207,-0.7205,-0.7397,-0.7769,-0.7729,-0.7939,-0.8438,-0.8491,-0.8548,0.0,0.0,0.0,0.0,0.0,0.0,0.0,0.0,0.0,0.0,0.0,0.0,0.0,0.0,0.0,0.0,0.0,0.0,0.0,0.0,0.0,0.0,0.0,0.0,0.0,0.0,0.0,0.0,0.0,0.0,0.0,0.0,0.0,0.0,0.0,0.0,0.0,0.0,0.0,0.0,0.0,0.0,-0.2121,-0.3323,0.0,0.0,0.0,-0.4253,-0.3901,0.0,0.0,0.0,0.0,0.0,0.0,0.0,0.0,0.0,0.0,0.0,0.0,0.0,0.0,0.0,0.0,0.0,0.0,0.0,0.0,0.0,0.0,0.0,0.0,0.0,0.0,0.0,0.0,0.0,0.0,0.0,0.0,0.0,0.0,0.0,0.0,0.0,0.0,0.0,0.0,0.0,0.0,0.0,0.0,0.0,0.0,0.0,0.0,0.0,0.0,0.0,0.0,0.0,0.0,0.0,0.0,0.0,-0.6902,-0.6268,-0.6378,-0.7243,-0.6961,-0.7178,-0.7954,-0.7799,0.0,0.0,0.0,0.0,0.0,0.0,0.0,0.0,0.0,0.0,0.0,0.0,0.0,0.0,0.0,0.0,0.0,0.0,0.0,0.0,0.0,0.0,0.0,0.0,0.0,0.0,0.0,-0.121,0.0,0.0,0.0,0.0,0.0,0.0,0.0,0.0,0.0,0.0,0.0,0.0,0.0,0.0,-0.1806,-0.2064,-0.3452,-0.4229,0.0,0.0,-0.5259,-0.5145,-0.5139,-0.5315,0.0,0.0,0.0,0.0,0.0,0.0,0.0,0.0,0.0,0.0,0.0,0.0,0.0,0.0,0.0,0.0,0.0,0.0,0.0,0.0,0.0,0.0,0.0,0.0,0.0,0.0,0.0,0.0,0.0,0.0,0.0,0.0,0.0,0.0,0.0,0.0,0.0,0.0,0.0,0.0,0.0,0.0,0.0,0.0,0.0,0.0,0.0,0.0,0.0,0.0,0.0,0.0,0.0,0.0,-0.6214,-0.7271,-0.6511,-0.6539,-0.7436,-0.7368,-0.762,-0.8176,-0.857,-0.8933,0.0,0.0,0.0,0.0,0.0,0.0,0.0,0.0,0.0,0.0,0.0,0.0,0.0,0.0,0.0,0.0,0.0,0.0,0.0,0.0,0.0,0.0,0.0,0.0,0.0,0.0,0.0,0.0,0.0,0.0,0.0,0.0,0.0,0.0,0.0,0.0,0.0,0.0,0.0,0.0,0.0,-0.2325,-0.2606,-0.3957,-0.4692,0.0,-0.4963,-0.5502,-0.4829,-0.4999,-0.5261,-0.541,0.0,0.0,0.0,0.0,0.0,0.0,0.0,0.0,0.0,0.0,0.0,0.0,0.0,0.0,0.0,0.0,0.0,0.0,0.0,0.0,0.0,0.0,0.0,0.0,0.0,0.0,0.0,0.0,0.0,0.0,0.0,0.0,0.0,0.0,0.0,0.0,0.0,0.0,0.0,0.0,0.0,0.0,0.0,0.0,0.0,0.0,0.0,0.0,0.0,0.0,0.0,0.0,0.0,-0.5984,-0.7064,-0.644,-0.6425,-0.7038,-0.7044,-0.7271,-0.7752,-0.7983,-0.8357,0.0,0.0,0.0,0.0,0.0,0.0,0.0,0.0,0.0,0.0,0.0,0.0,0.0,0.0,0.0,0.0,0.0,0.0,0.0,0.0,0.0,0.0,0.0,0.0,0.0,0.0,0.0,0.0,-0.1479,-0.1762,-0.1883,0.0,0.0,0.0,0.0,0.0,0.0,0.0,0.0,0.0,0.0,-0.2971,-0.3113,-0.3893,0.0,0.0,-0.455,-0.4979,-0.4974,-0.5,-0.531,-0.6079,-0.61,0.0,0.0,0.0,0.0,0.0,0.0,0.0,0.0,0.0,0.0,0.0,0.0,0.0,0.0,0.0,0.0,0.0,0.0,0.0,0.0,0.0,0.0,0.0,0.0,0.0,0.0,0.0,0.0,0.0,0.0,0.0,0.0,0.0,0.0,0.0,0.0,0.0,0.0,0.0,0.0,0.0,0.0,0.0,0.0,0.0,0.0,0.0,0.0,0.0,0.0,0.0,0.0,-0.6319,-0.708,-0.6577,-0.6526,-0.7007,-0.7007,-0.7235,-0.769,-0.7744,-0.8125,0.0,0.0,0.0,0.0,0.0,0.0,0.0,0.0,0.0,0.0,0.0,0.0,0.0,0.0,0.0,0.0,0.0,0.0,0.0,0.0,0.0,0.0,0.0,0.0,0.0,0.0,0.0,0.0,-0.1911,-0.2145,-0.1567,0.0,0.0,0.0,0.0,0.0,0.0,0.0,0.0,0.0,0.0,-0.3472,-0.3828,-0.4236,-0.4565,-0.468,-0.5112,-0.5601,-0.6087,-0.5924,-0.5949,-0.6656,0.0,0.0,0.0,0.0,0.0,0.0,0.0,0.0,0.0,0.0,0.0,0.0,0.0,0.0,0.0,0.0,0.0,0.0,0.0,0.0,0.0,0.0,0.0,0.0,0.0,0.0,0.0,-0.9636,0.0,0.0,-0.8383,0.0,0.0,0.0,0.0,0.0,0.0,0.0,0.0,0.0,0.0,0.0,0.0,0.0,0.0,0.0,0.0,0.0,0.0,0.0,0.0,0.0,0.0,-0.7378,-0.7481,-0.7036,-0.7017,-0.7473,-0.7483,-0.7711,-0.8135,-0.8205,-0.8541,-0.9248,0.0,0.0,0.0,0.0,0.0,0.0,0.0,0.0,0.0,0.0,0.0,0.0,0.0,0.0,0.0,0.0,0.0,0.0,0.0,0.0,0.0,0.0,0.0,0.0,0.0,0.0,-0.2563,-0.2573,-0.2211,0.0,0.0,0.0,0.0,0.0,0.0,0.0,0.0,0.0,-0.4198,-0.391,-0.3856,-0.4828,-0.5259,-0.5683,-0.6365,-0.7017,-0.7729,-0.8272,-0.7811,-0.7244,0.0,0.0,0.0,0.0,0.0,0.0,0.0,0.0,0.0,0.0,0.0,0.0,0.0,0.0,0.0,0.0,0.0,0.0,0.0,0.0,0.0,0.0,0.0,0.0,0.0,0.0,0.0,-1.1607,-1.1457,0.0,0.0,0.0,0.0,0.0,0.0,0.0,0.0,0.0,0.0,0.0,-1.1394,-1.1168,0.0,0.0,0.0,0.0,0.0,0.0,0.0,0.0,0.0,0.0,0.0,0.0,-0.7501,-0.7871,-0.7477,-0.7493,-0.7949,-0.7959,-0.8032,-0.8215,-0.8215,-0.8551,-0.9268,0.0,0.0,0.0,0.0,0.0,0.0,0.0,0.0,0.0,0.0,0.0,0.0,0.0,0.0,0.0,0.0,0.0,0.0,0.0,0.0,0.0,0.0,0.0,0.0,0.0,-0.2493,0.0,0.0,0.0,0.0,0.0,0.0,0.0,0.0,0.0,0.0,0.0,-0.3296,-0.4061,-0.5024,-0.5606,-0.5619,-0.5888,-0.6066,0.0,0.0,0.0,0.0,0.0,0.0,0.0,0.0,0.0,0.0,0.0,0.0,0.0,0.0,-0.7439,-0.6758,-0.6096,-0.5646,-0.5569,0.0,0.0,0.0,0.0,0.0,0.0,0.0,0.0,0.0,0.0,0.0,0.0,0.0,0.0,-1.2962,-1.2997,-1.2472,0.0,0.0,0.0,0.0,0.0,0.0,0.0,0.0,-1.1653,-1.2191,-1.2513,-1.2368,-1.2468,-1.2793,-1.2289,-1.2074,0.0,0.0,0.0,0.0,0.0,0.0,0.0,0.0,-0.8319,-0.8609,-0.8359,-0.828,-0.8425,-0.8465,-0.8382,-0.8226,-0.8215,-0.8437,-0.8887,-0.8864,-0.9038,0.0,0.0,0.0,0.0,0.0,0.0,0.0,0.0,0.0,0.0,0.0,0.0,0.0,0.0,0.0,0.0,0.0,0.0,0.0,0.0,0.0,0.0,0.0,-0.3393,0.0,0.0,0.0,0.0,0.0,0.0,0.0,0.0,0.0,-0.3468,-0.3702,-0.4192,-0.4702,-0.563,-0.6292,-0.6405,0.0,0.0,0.0,0.0,0.0,0.0,0.0,-0.8049,-0.8371,-0.8548,-0.8825,-0.9173,-0.9227,-0.9184,-0.9141,0.0,0.0,-0.8184,-0.7667,-0.726,-0.7173,-0.6796,-0.6643,-0.7164,-0.7352,-0.75,0.0,0.0,0.0,0.0,-1.3415,0.0,0.0,0.0,-1.3927,-1.4134,0.0,-1.3696,0.0,0.0,0.0,0.0,-1.1169,-1.1812,0.0,0.0,-1.2975,-1.3058,-1.2732,-1.3092,-1.3079,-1.2712,-1.3227,-1.3598,-1.363,-1.1673,0.0,0.0,0.0,0.0,0.0,0.0,-0.9788,-0.9684,-0.9522,-0.9293,-0.8942,-0.8911,-0.8653,-0.8236,-0.8215,-0.8226,-0.8228,-0.8994,-0.9458,-0.9509,-0.9959,0.0,0.0,0.0,0.0,0.0,0.0,0.0,0.0,0.0,0.0,0.0,0.0,0.0,0.0,0.0,0.0,0.0,0.0,0.0,0.0,-0.3374,0.0,0.0,0.0,0.0,0.0,0.0,0.0,0.0,0.0,-0.5815,-0.6225,-0.5346,-0.5009,-0.6095,0.0,0.0,0.0,0.0,-0.7264,-0.9236,-0.945,-0.9807,-1.1077,-1.0034,-0.8951,-0.8882,0.0,0.0,-0.8187,-0.8822,-0.9214,-0.9105,-0.9212,-0.9111,-0.8706,-0.8613,-0.8649,-0.8805,-0.8592,-0.8659,-0.9002,-0.8919,-0.8838,-1.7646,0.0,0.0,0.0,0.0,-1.5417,-1.5552,-1.5199,-1.6057,-1.6271,-1.599,-1.5467,0.0,0.0,0.0,0.0,0.0,0.0,-1.3917,-1.3611,-1.4577,-1.4801,-1.4305,-1.3797,-1.3707,-1.3846,-1.3052,-1.2836,-1.311,-1.2341,-1.2205,-1.2712,0.0,0.0,0.0,0.0,-1.0153,-0.9969,-0.9651,-0.9447,-0.9324,-0.9046,-0.8693,-0.8226,-0.8215,-0.8215,-0.8215,-0.8435,-0.8849,-0.9445,-0.9368,0.0,0.0,0.0,0.0,0.0,0.0,0.0,0.0,0.0,0.0,0.0,0.0,0.0,0.0,0.0,0.0,0.0,0.0,0.0,-0.4469,-0.3982,-0.4283,0.0,0.0,0.0,0.0,0.0,0.0,0.0,0.0,0.0,-0.7367,-0.6989,-0.6796,0.0,0.0,-0.8781,-0.9077,-0.8958,-0.8921,-0.9232,-0.8982,0.0,-0.9313,-0.9387,-0.9552,-0.9891,-0.9717,-0.9625,-0.9734,-0.9998,-1.0175,-1.0136,-1.0385,-1.0589,-1.0406,-0.9369,-0.8776,-0.9103,-0.932,-0.9539,-0.9923,-1.0108,-1.014,-2.0102,-1.7987,-1.734,-1.6877,-1.6692,-1.7359,-1.7282,-1.6683,-1.6985,-1.7093,-1.6985,-1.6211,-1.5901,-1.594,-1.5402,0.0,0.0,0.0,-1.4866,-1.4792,-1.544,-1.5599,-1.5277,-1.4801,-1.4575,-1.4606,-1.3649,-1.3286,-1.3552,-1.3149,-1.3303,-1.3915,0.0,-1.2034,-1.1441,-1.0887,-1.0568,-1.0469,-1.02,-0.9963,-0.9788,-0.9377,-0.9004,-0.8735,-0.8559,-0.8466,-0.8466,-0.829,-0.8611,-0.9458,-0.9265,-0.9335,0.0,0.0,0.0,0.0,0.0,0.0,0.0,0.0,0.0,0.0,0.0,-0.4969,-0.5086,0.0,0.0,0.0,-0.4616,-0.5252,-0.5229,-0.5199,0.0,0.0,0.0,0.0,0.0,0.0,0.0,-0.7695,-0.8015,-0.8261,-0.8415,-0.8551,-0.8291,-0.7293,-0.8299,-0.9156,-0.9251,0.0,-0.9417,-0.9657,-0.9484,-0.9347,-0.9595,-0.9899,-1.0134,-1.0176,-1.0043,-1.0013,-1.0083,-1.026,-1.045,-1.0685,-1.0944,-1.1209,-1.1209,-1.0278,-0.9659,-0.9995,-1.0205,-1.045,-1.0663,-1.088,-1.0914,-2.2272,-2.1712,-2.0837,-2.0047,-1.935,-1.9354,-1.8892,-1.8092,-1.7079,-1.6942,-1.7371,-1.6262,-1.6169,-1.6837,-1.6227,0.0,-1.5107,-1.5041,-1.5291,-1.5756,-1.5756,-1.5798,-1.5876,-1.5832,-1.5579,-1.5142,-1.4697,-1.4501,-1.4514,-1.397,-1.3925,-1.4356,-1.2743,-1.1675,-1.1284,-1.1075,-1.1044,-1.1109,-1.0995,-1.0692,-1.0211,-0.9788,-0.9551,-0.9499,-0.9149,-0.8942,-0.8922,-0.8518,-0.8694,-0.9509,-0.9527,-0.9862,-1.0647,0.0,0.0,0.0,0.0,0.0,0.0,0.0,0.0,0.0,0.0,0.0,0.0,0.0,0.0,0.0,-0.5236,0.0,-0.5117,-0.6775,0.0,0.0,0.0,-0.7196,-0.6622,-0.7467,-0.7995,-0.7839,0.0,0.0,-0.9348,-0.9917,-0.9502,-0.7088,-0.7496,-0.8216,-0.8635,-0.8831,-0.9217,-1.0363,-1.0456,-1.0559,-1.0846,-1.0863,-1.0613,-1.0052,-0.955,-0.9505,-0.9689,-1.0057,-1.0386,-1.0731,-1.1146,-1.1375,-1.1308,-1.1332,-1.1351,-1.1316,-1.1283,-1.1242,-1.1384,-1.1392,-1.1392,-2.4609,-2.394,-2.3273,-2.1996,-2.0306,-1.9847,-1.9317,-1.8721,-1.8083,-1.7639,-1.7358,-1.6635,-1.6396,-1.6595,-1.6426,-1.63,-1.6132,-1.6132,-1.6195,-1.6321,-1.6321,-1.6353,-1.6479,-1.612,-1.5932,-1.582,-1.5389,-1.5175,-1.5164,-1.4688,-1.4496,-1.4476,-1.3306,-1.2743,-1.2733,-1.1976,-1.1479,-1.1255,-1.1217,-1.093,-1.0364,-1.0133,-0.9915,-0.9663,-0.9439,-0.9355,-0.9344,-0.9251,-0.9458,-1.0004,-0.9661,-0.941,-0.9391,-0.9429,0.0,0.0,0.0,0.0,0.0,0.0,0.0,0.0,0.0,-0.6277,-0.6492,0.0,-0.7586,0.0,-0.7863,-0.7803,-0.7068,-0.7551,0.0,0.0,-0.8435,-0.8569,-0.8941,-0.8918,-0.9262,-1.0222,-1.0071,-1.0079,-1.0449,-1.0285,-0.9944,-0.9249,-0.9745,-1.0229,-1.0456,-1.0288,-1.0206,-1.0363,-1.0026,-0.978,-1.0302,-1.0626,-1.0736,-1.0469,-1.0342,-1.0264,-1.0203,-1.0897,-1.132,-1.1176,-1.1981,-1.2474,-1.2158,-1.2397,-1.255,-1.2471,-1.2175,-1.2017,-1.2372,-1.248,-1.2471,-2.5313,-2.4496,-2.4089,-2.3226,-2.2044,-2.0997,-2.0191,-1.9643,-1.863,-1.8028,-1.7702,-1.693,-1.6607,-1.6705,-1.6693,-1.6693,-1.6693,-1.6663,-1.6693,-1.6693,-1.6705,-1.6705,-1.6803,-1.6534,-1.6293,-1.6151,-1.5864,-1.5644,-1.549,-1.5242,-1.5014,-1.4836,-1.3758,-1.3253,-1.3219,-1.2393,-1.196,-1.1925,-1.1603,-1.12,-1.0777,-1.0683,-1.0699,-1.0744,-1.0305,-1.0188,-1.0438,-0.9997,-0.993,-1.0383,-1.0001,-0.9737,-0.9705,-0.99,-0.9665,0.0,0.0,0.0,0.0,0.0,0.0,0.0,0.0,0.0,0.0,0.0,-0.8814,-0.9204,-0.9297,-0.9234,-0.9015,-0.9115,-0.9333,-0.9752,-0.983,-0.9951,-1.0178,-1.0002,-1.0173,-1.0862,-1.0724,-1.0721,-1.1022,-1.0993,-1.0937,-1.0904,-1.1191,-1.1296,-1.0975,-1.0897,-1.0818,-1.0533,-1.0183,-1.0222,-1.0903,-1.0883,-1.0928,-1.1175,-1.0952,-1.071,-1.0755,-1.1185,-1.1554,-1.1774,-1.2418,-1.2889,-1.2792,-1.2962,-1.3094,-1.3045,-1.2793,-1.2706,-1.2929,-1.2978,-1.2988,-2.5371,-2.4515,-2.4192,-2.3985,-2.3803,-2.2204,-2.1235,-2.0729,-1.9214,-1.8405,-1.8168,-1.7282,-1.691,-1.6888,-1.6888,-1.6876,-1.6876,-1.6876,-1.6876,-1.6876,-1.6876,-1.6876,-1.6918,-1.6918,-1.6705,-1.6318,-1.6269,-1.6083,-1.5812,-1.5732,-1.5555,-1.5287,-1.4259,-1.3661,-1.3515,-1.2788,-1.2464,-1.2621,-1.2005,-1.1588,-1.1346,-1.1383,-1.1653,-1.2117,-1.1322,-1.1121,-1.1667,-1.0761,-1.0418,-1.0797,-1.0498,-1.0406,-1.0645,-1.0662,-1.0756,0.0,-1.103,0.0,0.0,0.0,0.0,0.0,0.0,0.0,0.0,-1.024,-0.9489,-0.9961,-1.0155,-1.0364,-1.0667,-1.0784,-1.0918,-1.1079,-1.123,-1.1192,-1.0909,-1.0864,-1.0883,-1.0929,-1.1259,-1.1489,-1.1543,-1.185,-1.2088,-1.2044,-1.2078,-1.188,-1.1162,-1.1241,-1.1318,-1.0872,-1.0858,-1.1123,-1.1768,-1.1376,-1.1139,-1.1655,-1.1276,-1.0889,-1.1075,-1.1186,-1.1488,-1.2182,-1.2529,-1.2771,-1.3125,-1.3158,-1.3208,-1.317,-1.317,-1.3132,-1.3104,-1.3065,-1.3113,-2.6489,-2.6191,-2.5137,-2.4495,-2.4113,-2.277,-2.2109,-2.1885,-2.0762,-1.9525,-1.8293,-1.82,-1.7728,-1.6944,-1.6888,-1.6846,-1.6761,-1.6718,-1.6718,-1.6718,-1.6718,-1.6791,-1.6947,-1.696,-1.7002,-1.6989,-1.6964,-1.6976,-1.6905,-1.6398,-1.6324,-1.6582,-1.5512,-1.5069,-1.5265,0.0,0.0,0.0,-1.2168,-1.2168,-1.2168,-1.2263,-1.2413,-1.2557,-1.1953,0.0,-1.1774,-1.1559,-1.1514,-1.1567,-1.1131,0.0,0.0,0.0,0.0,0.0,0.0,0.0,0.0,0.0,0.0,0.0,-1.2049,-1.2236,-1.2606,-1.1812,-1.1331,-1.1533,-1.128,-1.1073,-1.1104,-1.117,-1.1328,-1.1618,-1.1768,-1.1834,-1.177,-1.1747,-1.1866,-1.2203,-1.2298,-1.2388,-1.2489,-1.2489,-1.2534,-1.2683,-1.2669,-1.2638,-1.2471,-1.2197,-1.2067,-1.1996,-1.1664,-1.1509,-1.1715,-1.1302,-1.0995,-1.1087,-1.0997,-1.0825,-1.0909,-1.1195,-1.1358,-1.1704,-1.23,-1.2822,-1.2899,-1.3118,-1.3314,-1.3218,-1.3218,-1.317,-1.317,-1.317,-1.317,-2.6032,-2.5544,-2.4825,-2.4215,0.0,-2.3173,-2.2951,-2.2772,-2.1041,-1.9448,-1.8024,-1.8405,-1.8007,-1.7044,-1.7044,-1.7002,-1.6973,-1.6973,-1.696,-1.6973,-1.696,-1.7002,-1.7115,-1.7115,-1.6989,-1.6863,-1.7073,-1.7115,-1.685,-1.6765,-1.6752,-1.6735,-1.5957,-1.5517,-1.541,-1.4761,-1.3705,-1.2305,-1.2181,-1.2063,-1.1949,-1.2014,-1.2201,-1.253,-1.219,0.0,0.0,0.0,0.0,0.0,0.0,0.0,0.0,-1.1799,0.0,-1.1923,-1.258,-1.3062,-1.3107,-1.3017,-1.301,-1.3073,-1.3099,-1.3016,-1.2692,-1.2353,-1.2098,-1.1909,-1.1752,-1.1719,-1.188,-1.1992,-1.2223,-1.2619,-1.2731,-1.2802,-1.2892,-1.2847,-1.2884,-1.3022,-1.3083,-1.3129,-1.3186,-1.3129,-1.3017,-1.2913,-1.2882,-1.2882,-1.2872,-1.2741,-1.2534,-1.2359,-1.2131,-1.2048,-1.213,-1.1654,-1.1344,-1.1478,-1.117,-1.1005,-1.116,-1.1366,-1.1644,-1.2045,-1.2583,-1.2934,-1.3155,-1.3371,-1.3467,-1.342,-1.3409,-1.3318,-1.3107,-1.3152,-1.3243,-2.552,-2.4681,-2.4417,-2.3996,-2.3496,-2.351,-2.345,-2.3213,-2.1284,0.0,0.0,-1.8632,-1.8287,-1.7337,-1.7323,-1.724,-1.7157,-1.717,-1.7157,-1.7157,-1.7157,-1.7199,-1.7212,-1.7212,-1.6989,-1.665,-1.7031,-1.6976,-1.6637,-1.7031,-1.7031,-1.66,-1.6211,-1.5834,-1.534,-1.4783,-1.3984,-1.2963,-1.2669,-1.243,-1.2188,-1.2124,-1.2351,-1.2862,-1.2585,-1.258,-1.2828,-1.245,-1.2173,-1.1952,-1.2045,-1.2071,-1.2052,-1.3001,-1.3553,-1.3486,-1.4111,-1.4441,-1.4337,-1.4104,-1.3926,-1.3716,-1.3546,-1.3238,-1.2667,-1.2735,-1.2629,-1.2202,-1.2308,-1.2491,-1.2838,-1.2925,-1.3171,-1.3627,-1.3668,-1.3705,-1.381,-1.3763,-1.3627,-1.3668,-1.3647,-1.3658,-1.3637,-1.3732,-1.3621,-1.3223,-1.3242,-1.3133,-1.3068,-1.3163,-1.3173,-1.2999,-1.2829,-1.269,-1.2834,-1.2142,-1.1818,-1.2079,-1.1627,-1.1284,-1.1523,-1.1743,-1.2079,-1.241,-1.2772,-1.3016,-1.3403,-1.3538,-1.3579,-1.3507,-1.3486,-1.3362,-1.2979,-1.3073,-1.3201,-2.6571,-2.5864,-2.5324,-2.4737,-2.4207,-2.3703,-2.324,-2.2802,-2.2426,-2.1269,-1.9598,-1.9803,-1.9077,-1.7707,-1.7707,-1.7488,-1.7044,-1.7044,-1.7044,-1.7044,-1.7031,-1.7086,-1.7199,-1.7212,-1.7157,-1.7115,-1.717,-1.7157,-1.7115,-1.7157,-1.7157,-1.7102,-1.7024,-1.6723,-1.6163,-1.5285,-1.4751,-1.4563,-1.4802,-1.4874,-1.4833,-1.4629,-1.4529,-1.4589,-1.3737,-1.3338,-1.3379,-1.3286,-1.3252,-1.3225,-1.3252,-1.3174,-1.2949,-1.3455,-1.363,-1.3373,-1.379,-1.4067,-1.4057,-1.402,-1.3973,-1.3962,-1.3926,-1.3773,-1.3467,-1.3453,-1.3527,-1.3658,-1.3668,-1.3746,-1.382,-1.3799,-1.3867,-1.3894,-1.3962,-1.3973,-1.402,-1.402,-1.401,-1.401,-1.3926,-1.3962,-1.401,-1.4305,-1.4348,-1.3961,-1.3981,-1.4147,-1.3826,-1.3917,-1.4325,-1.453,-1.3962,-1.3544,-1.3389,-1.2392,-1.1903,-1.2142,-1.2171,-1.1981,-1.1812,-1.2251,-1.2528,-1.1995,-1.2492,-1.2872,-1.3082,-1.3351,-1.3367,-1.315,-1.3047,-1.2958,-1.2534,-1.2741,-1.2944,-2.6539,-2.6204,-2.5227,-2.4682,-2.4477,-2.3821,-2.3208,-2.2697,-2.2682,-2.1676,-2.0049,-1.9792,-1.8997,-1.7814,-1.7557,-1.7352,-1.7115,-1.7128,-1.7128,-1.7115,-1.7128,-1.7128,-1.7199,-1.7212,-1.7212,-1.7212,-1.7212,-1.7212,-1.7212,-1.7212,-1.7212,-1.7212,-1.7212,-1.7068,-1.6833,-1.6371,-1.6149,-1.6136,-1.5284,-1.4829,-1.4869,-1.4748,-1.4533,-1.4287,-1.399,-1.3659,-1.3203,-1.331,-1.3343,-1.3162,-1.3364,-1.3476,-1.3455,-1.3894,-1.4056,-1.392,-1.4125,-1.4244,-1.4197,-1.415,-1.4186,-1.4362,-1.4362,-1.449,-1.4698,-1.4118,-1.3868,-1.3973,-1.402,-1.402,-1.402,-1.4233,-1.4316,-1.415,-1.4512,-1.4674,-1.4547,-1.4674,-1.4777,-1.4766,-1.4777,-1.4766,-1.4766,-1.4949,-1.4878,-1.4431,-1.4572,-1.4612,-1.467,-1.5045,-1.5033,-1.4428,-1.4098,-1.3899,-1.3673,-1.2838,-1.2446,-1.2907,-1.28,-1.28,-1.2884,-1.32,-1.3008,-1.3097,-1.3078,-1.301,-1.3217,-1.3455,-1.3336,-1.3037,-1.3165,-1.302,-1.2578,-1.2484,-1.272,-2.649,-2.6302,-2.522,-2.4611,-2.4298,-2.3819,-2.3325,-2.2933,-2.2742,-2.1847,-2.0494,-1.9904,-1.9037,-1.7989,-1.7639,-1.7514,-1.7466,-1.7479,-1.7545,-1.765,-1.7502,-1.7437,-1.7424,-1.7264,-1.7212,-1.7212,-1.7212,-1.7212,-1.7212,-1.7212,-1.7212,-1.7212,-1.7212,-1.7212,-1.7212,-1.7212,-1.7212,-1.7105,-1.5749,-1.5042,-1.5042,-1.4922,-1.472,-1.4405,-1.4507,-1.4273,-1.3591,-1.374,-1.3729,-1.3431,-1.3718,-1.3838,-1.386,-1.4176,-1.443,-1.443,-1.443,-1.443,-1.443,-1.443,-1.4558,-1.4755,-1.496,-1.5232,-1.5499,-1.4892,-1.4373,-1.4419,-1.4466,-1.4466,-1.4501,-1.472,-1.4846,-1.4628,-1.5107,-1.5344,-1.5164,-1.5344,-1.5478,-1.5466,-1.5478,-1.5466,-1.5511,-1.5567,-1.5497,-1.5223,-1.48,-1.4768,-1.5361,-1.5786,-1.5311,-1.4557,-1.4299,-1.4369,-1.3965,-1.3232,-1.3035,-1.3584,-1.3322,-1.342,-1.3784,-1.3627,-1.353,-1.3949,-1.3728,-1.3414,-1.3594,-1.3737,-1.3543,-1.3118,-1.3247,-1.345,-1.3043,-1.2904,-1.2954,-2.7141,-2.6527,-2.5732,-2.4792,-2.3714,-2.361,-2.3535,-2.3415,-2.2963,-2.2278,-2.1496,-2.0899,-1.9803,-1.8556,-1.845,-1.8385,-1.82,-1.8272,-1.8552,-1.895,-1.8464,-1.8183,-1.813,-1.7529,-1.7212,-1.7238,-1.7264,-1.7303,-1.7303,-1.7238,-1.7225,-1.7212,-1.7212,-1.7212,-1.7212,-1.7212,-1.7212,-1.7212,-1.7053,-1.6959,-1.6918,-1.6528,-1.6273,-1.6243,-1.5811,-1.5616,-1.5397,-1.556,-1.5351,-1.497,-1.4891,-1.4767,-1.44,-1.4362,-1.443,-1.443,-1.443,-1.443,-1.4419,-1.4925,-1.5142,-1.5108,-1.5718,-1.6041,-1.5844,-1.57,-1.5656,-1.5623,-1.5611,-1.5522,-1.5656,-1.5656,-1.5656,-1.5522,-1.57,-1.5744,-1.5744,-1.5744,-1.5788,-1.5788,-1.5832,-1.58,-1.5876,-1.6114,-1.6283,-1.6143,-1.5057,-1.4646,-1.5479,-1.5621,-1.5581,-1.5287,-1.5171,-1.5076,-1.482,-1.3774,-1.3362,-1.3568,-1.3616,-1.3812,-1.4043,-1.4235,-1.4257,-1.4227,-1.4109,-1.397,-1.3949,-1.3978,-1.3925,-1.3295,-1.3365,-1.3762,-1.4055,-1.4095,-1.3983,-2.7425,-2.7036,-2.563,-2.4268,-2.3131,-2.3056,-2.3266,-2.355,-2.334,-2.2888,-2.2359,-2.2019,-2.0866,-1.9131,-1.9348,-1.9249,-1.8897,-1.8941,-1.9061,-1.9274,-1.8901,-1.8795,-1.8711,-1.838,-1.8205,-1.8205,-1.8205,-1.8205,-1.8153,-1.7891,-1.7735,-1.7682,-1.7382,-1.7212,-1.7212,-1.7212,-1.7212,-1.7212,-1.7212,-1.7212,-1.7199,-1.7031,-1.6765,-1.6522,-1.6293,-1.6064,-1.5832,-1.5788,-1.5712,-1.549,-1.5232,-1.5017,-1.4834,-1.4558,-1.443,-1.443,-1.4651,-1.4789,-1.4834,-1.5289,-1.5691,-1.5901,-1.6212,-1.6473,-1.6625,-1.6637,-1.6625,-1.6582,-1.6139,-1.5788,-1.5832,-1.6064,-1.6107,-1.592,-1.6281,-1.6509,-1.625,-1.6454,-1.6625,-1.6625,-1.6625,-1.6625,-1.6587,-1.6539,-1.6576,-1.6675,-1.5892,-1.5591,-1.6336,-1.6205,-1.6114,-1.6244,-1.5607,-1.4887,-1.4778,-1.4299,-1.4035,-1.4412,-1.4576,-1.4626,-1.4941,-1.466,-1.4536,-1.4667,-1.4364,-1.4371,-1.4663,-1.4305,-1.4105,-1.3553,-1.3419,-1.3803,-1.4238,-1.4393,-1.4337,-2.7156,-2.7036,-2.554,-2.4253,-2.3221,-2.2996,-2.3176,-2.3565,-2.3595,-2.3293,-2.2821,-2.293,-2.199,-2.0355,-2.0203,-1.9921,-1.9514,-1.9541,-1.9693,-1.9741,-1.9469,-1.9318,-1.9318,-1.9009,-1.8911,-1.8957,-1.8885,-1.8885,-1.8858,-1.8577,-1.8354,-1.8231,-1.7735,-1.746,-1.7434,-1.7303,-1.7212,-1.7212,-1.7212,-1.7212,-1.7212,-1.7212,-1.7031,-1.6735,-1.668,-1.6552,-1.6182,-1.6182,-1.6095,-1.5976,-1.568,-1.5412,-1.5277,-1.496,-1.4777,-1.4823,-1.5085,-1.5277,-1.5277,-1.5688,-1.6095,-1.6466,-1.6607,-1.682,-1.7115,-1.7212,-1.7212,-1.7115,-1.6582,-1.6225,-1.6238,-1.6497,-1.6509,-1.6269,-1.685,-1.7018,-1.6765,-1.7031,-1.7157,-1.7212,-1.7115,-1.7212,-1.7133,-1.6781,-1.6584,-1.699,-1.6571,-1.6441,-1.6937,-1.6728,-1.6519,-1.6872,-1.584,-1.5149,-1.479,-1.4294,-1.4575,-1.4795,-1.4861,-1.4838,-1.5556,-1.4993,-1.4876,-1.5024,-1.4465,-1.431,-1.4853,-1.4678,-1.4282,-1.3941,-1.3778,-1.3953,-1.4411,-1.457,-1.481,-2.6063,-2.6482,-2.5839,-2.5076,-2.4462,-2.3774,-2.355,-2.3595,-2.3595,-2.3251,-2.2873,-2.3408,-2.3091,-2.1901,-2.1112,-2.0418,-2.0087,-2.0295,-2.061,-2.0815,-2.0271,-1.9951,-1.9911,-1.9232,-1.8983,-1.9252,-1.9127,-1.9028,-1.8989,-1.9021,-1.8995,-1.8832,-1.8323,-1.8048,-1.7944,-1.7499,-1.7212,-1.7212,-1.7212,-1.7212,-1.7212,-1.7212,-1.7199,-1.7115,-1.7157,-1.7115,-1.7115,-1.7115,-1.6934,-1.6466,-1.638,-1.6207,-1.5844,-1.57,-1.5668,-1.57,-1.5744,-1.5788,-1.5832,-1.6114,-1.6373,-1.6552,-1.6892,-1.717,-1.7199,-1.7212,-1.7212,-1.7212,-1.7115,-1.7031,-1.7031,-1.7031,-1.7115,-1.7073,-1.7115,-1.7157,-1.7157,-1.717,-1.7212,-1.7212,-1.7212,-1.7212,-1.7186,-1.6728,-1.6689,-1.6833,-1.6271,-1.5996,-1.6846,-1.6741,-1.6493,-1.6454,-1.6271,-1.6075,-1.5487,-1.4644,-1.4206,-1.4514,-1.4673,-1.4236,-1.454,-1.4889,-1.5231,-1.544,-1.512,-1.501,-1.5135,-1.4928,-1.4545,-1.4293,-1.4197,-1.4373,-1.4484,-1.5231,-1.5393,-2.5869,-2.5315,-2.5091,-2.4597,-2.3924,-2.3281,-2.3236,-2.358,-2.3595,-2.3533,-2.3426,-2.3606,-2.3346,-2.2717,-2.2382,-2.2028,-2.162,-2.1681,-2.1806,-2.188,-2.1322,-2.1015,-2.0927,-2.0452,-2.0193,-2.0241,-2.018,-2.0132,-2.0018,-1.9716,-1.9533,-1.9381,-1.8898,-1.8466,-1.8127,-1.7891,-1.7604,-1.7251,-1.7212,-1.7212,-1.7212,-1.7212,-1.7212,-1.7212,-1.7212,-1.7212,-1.7212,-1.7212,-1.7115,-1.6947,-1.6693,-1.6423,-1.625,-1.5976,-1.5788,-1.5832,-1.6064,-1.625,-1.6281,-1.6625,-1.6879,-1.6934,-1.7073,-1.7212,-1.7212,-1.7212,-1.7212,-1.7212,-1.7212,-1.7212,-1.7212,-1.7212,-1.7212,-1.7212,-1.7212,-1.7212,-1.7212,-1.7212,-1.7212,-1.7212,-1.7212,-1.7212,-1.7149,-1.6728,-1.6624,-1.7003,-1.6532,-1.6506,-1.6872,-1.6728,-1.6415,-1.631,-1.6062,-1.5748,-1.5578,-1.4859,-1.4419,-1.4719,-1.4862,-1.4849,-1.5016,-1.516,-1.5464,-1.5348,-1.531,-1.5235,-1.5097,-1.4621,-1.4309,-1.3901,-1.3902,-1.421,-1.4412,-1.5028,-1.5249,-2.5884,-2.5285,-2.5046,-2.4687,-2.4178,-2.3325,-2.3221,-2.3595,-2.3595,-2.3653,-2.3696,-2.3653,-2.3465,-2.3304,-2.3246,-2.3245,-2.3105,-2.2704,-2.2406,-2.2356,-2.1987,-2.1841,-2.1784,-2.1552,-2.1404,-2.1402,-2.1281,-2.1059,-2.0686,-2.0332,-2.0149,-2.0048,-1.9486,-1.9028,-1.8662,-1.831,-1.7865,-1.7525,-1.7303,-1.7212,-1.7212,-1.7212,-1.7212,-1.7212,-1.7212,-1.7212,-1.7212,-1.7212,-1.7212,-1.7157,-1.6905,-1.6723,-1.668,-1.6411,-1.6269,-1.6281,-1.6552,-1.6723,-1.6778,-1.7031,-1.7199,-1.7199,-1.7212,-1.7212,-1.7212,-1.7212,-1.7212,-1.7212,-1.7212,-1.7212,-1.7212,-1.7212,-1.7212,-1.7212,-1.7212,-1.7212,-1.7212,-1.7212,-1.7282,-1.7406,-1.7434,-1.7475,-1.7571,-1.7303,-1.7263,-1.7407,-1.7062,-1.7008,-1.7083,-1.6911,-1.6441,-1.6179,-1.5996,-1.5761,-1.5591,-1.5121,-1.5108,-1.5408,-1.5212,-1.5238,-1.5278,-1.5434,-1.5408,-1.5317,-1.5166,-1.5106,-1.4801,-1.4306,-1.3854,-1.337,-1.3488,-1.3814,-1.4237,-1.4751,-1.4838,-2.6033,-2.6363,-2.5869,-2.551,-2.5255,-2.4044,-2.358,-2.3595,-2.3595,-2.3595,-2.3638,-2.3595,-2.361,-2.3551,-2.3551,-2.391,-2.4104,-2.3045,-2.2491,-2.2508,-2.2456,-2.2456,-2.2383,-2.2365,-2.2312,-2.2326,-2.2008,-2.1414,-2.0712,-2.0709,-2.0746,-2.0568,-2.0061,-1.9695,-1.9708,-1.8662,-1.8114,-1.7865,-1.7434,-1.7212,-1.7212,-1.7212,-1.7212,-1.7212,-1.7212,-1.7212,-1.7212,-1.7212,-1.7212,-1.7212,-1.7157,-1.7212,-1.7157,-1.7115,-1.7157,-1.7073,-1.7157,-1.7199,-1.7157,-1.717,-1.7212,-1.7212,-1.7212,-1.7212,-1.7212,-1.724,-1.7282,-1.7282,-1.7323,-1.7269,-1.731,-1.7323,-1.7282,-1.7212,-1.7212,-1.7199,-1.724,-1.724,-1.7365,-1.772,-1.7841,-1.7988,-1.8344,-1.8235,-1.8013,-1.7747,-1.7612,-1.7464,-1.7269,-1.7107,-1.6663,-1.6036,-1.6023,-1.6205,-1.584,-1.5526,-1.584,-1.6087,-1.5644,-1.5434,-1.5408,-1.5487,-1.5212,-1.5068,-1.4764,-1.4631,-1.4328,-1.3851,-1.3639,-1.3317,-1.3433,-1.3569,-1.3894,-1.4235,-1.4323,-2.6811,-2.6527,-2.5884,-2.56,-2.5435,-2.4163,-2.3595,-2.3595,-2.3595,-2.3595,-2.3595,-2.3696,-2.3696,-2.3638,-2.3696,-2.4071,-2.4492,-2.3629,-2.3672,-2.4326,-2.4187,-2.3801,-2.3442,-2.321,-2.2683,-2.2009,-2.1467,-2.1059,-2.0788,-2.0762,-2.0712,-2.0646,-2.0515,-1.9943,-1.9277,-1.8819,-1.8336,-1.7539,-1.7303,-1.7212,-1.7212,-1.7212,-1.7212,-1.7199,-1.7295,-1.7308,-1.7212,-1.7212,-1.7212,-1.7212,-1.7212,-1.7212,-1.7212,-1.7212,-1.7212,-1.7212,-1.7212,-1.7212,-1.7212,-1.7212,-1.7212,-1.7212,-1.7212,-1.7212,-1.724,-1.7544,-1.7666,-1.7666,-1.7935,-1.8159,-1.8108,-1.8121,-1.7828,-1.7282,-1.7199,-1.7352,-1.7598,-1.7868,-1.8108,-1.824,-1.8279,-1.8358,-1.8397,-1.8344,-1.8108,-1.7908,-1.7679,-1.7393,-1.7282,-1.7323,-1.6977,-1.631,-1.6571,-1.6625,-1.6125,-1.6017,-1.64,-1.6427,-1.6058,-1.5607,-1.5544,-1.564,-1.5325,-1.4843,-1.4527,-1.4201,-1.3852,-1.3616,-1.3489,-1.3518,-1.3696,-1.3671,-1.3556,-1.3696,-1.394,-2.7111,-2.6886,-2.6243,-2.5974,-2.5854,-2.4792,-2.4387,-2.4387,-2.4132,-2.4028,-2.4026,-2.3844,-2.3739,-2.3653,-2.3696,-2.4192,-2.4866,-2.4582,-2.5137,-2.6004,-2.4963,-2.4476,-2.4298,-2.3955,-2.3117,-2.2016,-2.1363,-2.0985,-2.0699,-2.0699,-2.0699,-2.0699,-2.0699,-2.0371,-1.9538,-1.9094,-1.8493,-1.7852,-1.7421,-1.7212,-1.7212,-1.7212,-1.7212,-1.7212,-1.7295,-1.7253,-1.7212,-1.7212,-1.7212,-1.7212,-1.7212,-1.7212,-1.7212,-1.7212,-1.7212,-1.7212,-1.7212,-1.7212,-1.7212,-1.7212,-1.7323,-1.7447,-1.7529,-1.7598,-1.772,-1.8068,-1.8147,-1.8201,-1.8383,-1.8602,-1.8539,-1.8539,-1.8266,-1.7747,-1.7707,-1.7787,-1.8108,-1.8344,-1.8592,-1.8707,-1.8745,-1.8784,-1.8808,-1.8769,-1.8447,-1.8305,-1.8068,-1.7787,-1.776,-1.772,-1.7303,-1.701,-1.709,-1.6877,-1.6306,-1.6476,-1.6901,-1.6755,-1.6476,-1.5962,-1.5636,-1.6008,-1.5984,-1.5079,-1.457,-1.4238,-1.3887,-1.376,-1.3661,-1.3835,-1.3938,-1.3775,-1.3672,-1.3766,-1.3922,-2.7021,-2.747,-2.6856,-2.6542,-2.6452,-2.5779,-2.5482,-2.5605,-2.5138,-2.4852,-2.4716,-2.4204,-2.3859,-2.3728,-2.3756,-2.4387,-2.5422,-2.553,-2.618,-2.6579,-2.5464,-2.4593,-2.497,-2.4385,-2.3346,-2.2326,-2.169,-2.1208,-2.0861,-2.0885,-2.0785,-2.0885,-2.0934,-2.0746,-2.047,-1.9561,-1.8956,-1.8627,-1.7768,-1.7295,-1.7253,-1.7212,-1.7212,-1.7212,-1.7253,-1.7253,-1.7212,-1.7212,-1.7212,-1.7212,-1.7212,-1.7212,-1.7212,-1.7212,-1.7212,-1.7212,-1.7212,-1.7212,-1.7212,-1.7323,-1.7488,-1.7868,-1.7988,-1.8187,-1.8461,-1.8577,-1.8655,-1.863,-1.8731,-1.8731,-1.8731,-1.8731,-1.8655,-1.8577,-1.85,-1.8539,-1.8626,-1.8602,-1.8846,-1.9109,-1.9199,-1.9236,-1.953,-1.9493,-1.931,-1.9087,-1.886,-1.8592,-1.8436,-1.8157,-1.7935,-1.7818,-1.7731,-1.7365,-1.6913,-1.69,-1.7273,-1.701,-1.6738,-1.6295,-1.5764,-1.6005,-1.6028,-1.5209,-1.4627,-1.4297,-1.4117,-1.4019,-1.4,-1.4112,-1.406,-1.3848,-1.3907,-1.4057,-1.3973,-2.746,-2.75,-2.6856,-2.6602,-2.6497,-2.5884,-2.563,-2.5631,-2.562,-2.5515,-2.5395,-2.4911,-2.4576,-2.4548,-2.4094,-2.4623,-2.5485,-2.5425,-2.5925,-2.6862,-2.6104,-2.5515,-2.5305,-2.4203,-2.3128,-2.2383,-2.1799,-2.1341,-2.1229,-2.1492,-2.1657,-2.1704,-2.167,-2.1484,-2.1079,-2.034,-1.9549,-1.8841,-1.8096,-1.7597,-1.7404,-1.7295,-1.7253,-1.735,-1.735,-1.7337,-1.7253,-1.7212,-1.7212,-1.7212,-1.7212,-1.7212,-1.7212,-1.7212,-1.7253,-1.724,-1.724,-1.724,-1.7269,-1.7598,-1.7882,-1.7988,-1.8369,-1.8549,-1.8664,-1.9058,-1.9147,-1.9147,-1.9347,-1.953,-1.942,-1.9384,-1.9384,-1.9347,-1.9124,-1.8959,-1.9058,-1.9258,-1.9457,-1.9545,-1.953,-1.9581,-1.9617,-1.9508,-1.9288,-1.9139,-1.895,-1.8745,-1.8693,-1.8602,-1.8408,-1.8349,-1.8246,-1.7939,-1.7674,-1.7604,-1.7506,-1.7234,-1.6944,-1.6641,-1.6027,-1.5728,-1.543,-1.4836,-1.4672,-1.4401,-1.4438,-1.4438,-1.4438,-1.4452,-1.4452,-1.442,-1.4465,-1.4543,-1.4316,-2.756,-2.7595,-2.7156,-2.7006,-2.6961,-2.6587,-2.6486,-2.6462,-2.6059,-2.5925,-2.5773,-2.4998,-2.4646,-2.4557,-2.4164,-2.4559,-2.5454,-2.5255,-2.5819,-2.6803,-2.6849,-2.6444,-2.5688,-2.4483,-2.3645,-2.2909,-2.2118,-2.1725,-2.1718,-2.1988,-2.2081,-2.2081,-2.2081,-2.1931,-2.1605,-2.1048,-2.0483,-1.9821,-1.9017,-1.8426,-1.8303,-1.7936,-1.7828,-1.7895,-1.7895,-1.7841,-1.7747,-1.7557,-1.7393,-1.724,-1.7212,-1.7212,-1.7212,-1.7212,-1.7282,-1.7475,-1.7544,-1.7585,-1.7854,-1.8133,-1.8408,-1.8602,-1.8945,-1.9118,-1.9303,-1.9624,-1.966,-1.9603,-1.9869,-1.9904,-1.9884,-1.9812,-1.9848,-1.9797,-1.9581,-1.942,-1.9442,-1.9566,-1.9675,-1.9726,-1.9726,-1.9705,-1.9705,-1.9472,-1.9398,-1.931,-1.9236,-1.9109,-1.9072,-1.9011,-1.8936,-1.8822,-1.8745,-1.8555,-1.8427,-1.837,-1.8251,-1.7937,-1.7325,-1.6981,-1.6237,-1.5652,-1.5415,-1.5098,-1.4825,-1.469,-1.4845,-1.4907,-1.4845,-1.489,-1.4966,-1.4949,-1.4887,-1.4887,-1.4672,-2.776,-2.7775,-2.771,-2.766,-2.7695,-2.766,-2.759,-2.7667,-2.6684,-2.626,-2.6031,-2.49,-2.4444,-2.4116,-2.4258,-2.4475,-2.5102,-2.5431,-2.6169,-2.6972,-2.7327,-2.709,-2.6183,-2.5433,-2.4573,-2.3735,-2.2701,-2.2334,-2.2263,-2.2267,-2.23,-2.2392,-2.236,-2.23,-2.2224,-2.1737,-2.1465,-2.1125,-2.016,-1.9525,-1.9355,-1.8934,-1.8641,-1.8486,-1.8461,-1.8461,-1.833,-1.8108,-1.7787,-1.7393,-1.7282,-1.7295,-1.7282,-1.7323,-1.7557,-1.7935,-1.8054,-1.8198,-1.8574,-1.8688,-1.8968,-1.9295,-1.9479,-1.9711,-1.996,-2.003,-1.9995,-1.9955,-2.0045,-2.0025,-1.9955,-1.997,-1.999,-1.9975,-1.9869,-1.9833,-1.9797,-1.9762,-1.9726,-1.9762,-1.9726,-1.9726,-1.9705,-1.9705,-1.9705,-1.9545,-1.9457,-1.9457,-1.942,-1.9384,-1.9325,-1.9213,-1.9176,-1.9176,-1.9132,-1.9118,-1.8972,-1.8737,-1.7922,-1.7302,-1.6335,-1.581,-1.5728,-1.5536,-1.5239,-1.5255,-1.5448,-1.5448,-1.5285,-1.5269,-1.5344,-1.5193,-1.5056,-1.5163,-1.5043,-2.8811,-2.8748,-2.8304,-2.8222,-2.8238,-2.7925,-2.784,-2.7883,-2.7237,-2.678,-2.6565,-2.5511,-2.4958,-2.4912,-2.4673,-2.488,-2.5259,-2.5957,-2.6887,-2.7523,-2.757,-2.752,-2.6956,-2.6208,-2.5082,-2.4141,-2.3685,-2.3216,-2.2915,-2.3009,-2.3275,-2.3231,-2.3143,-2.3275,-2.3142,-2.2657,-2.2275,-2.1943,-2.1189,-2.0538,-2.0041,-1.9742,-1.9329,-1.8941,-1.8779,-1.8703,-1.8664,-1.8549,-1.8472,-1.8252,-1.7801,-1.757,-1.7747,-1.7841,-1.812,-1.8433,-1.8549,-1.8626,-1.8779,-1.9132,-1.9384,-1.953,-1.9869,-2.0166,-2.0235,-2.015,-2.0115,-2.008,-2.0061,-1.999,-1.9919,-2.001,-2.001,-1.9975,-1.996,-2.001,-1.994,-1.9797,-1.9726,-1.9726,-1.9726,-1.9705,-1.9705,-1.9705,-1.9705,-1.9705,-1.9705,-1.9705,-1.9705,-1.9705,-1.9632,-1.945,-1.9435,-1.9435,-1.9376,-1.9287,-1.9019,-1.8827,-1.819,-1.7488,-1.6529,-1.6097,-1.6055,-1.5921,-1.5683,-1.577,-1.577,-1.577,-1.558,-1.5654,-1.5683,-1.5536,-1.5448,-1.5463,-1.5433,-2.8889,-2.9074,-2.8841,-2.8529,-2.8233,-2.8015,-2.7767,-2.7488,-2.6943,-2.6691,-2.643,-2.5486,-2.5134,-2.5211,-2.4776,-2.4741,-2.5248,-2.6063,-2.6642,-2.6998,-2.7334,-2.7675,-2.753,-2.6941,-2.6022,-2.4808,-2.4351,-2.3879,-2.3452,-2.3421,-2.3551,-2.3595,-2.3595,-2.3508,-2.3595,-2.3323,-2.3161,-2.2897,-2.236,-2.1809,-2.1431,-2.0724,-2.0108,-1.9575,-1.9354,-1.9281,-1.9332,-1.9132,-1.9043,-1.8893,-1.8447,-1.8147,-1.8277,-1.8341,-1.8612,-1.8968,-1.908,-1.9244,-1.9464,-1.9696,-1.9869,-1.9854,-2.015,-2.0235,-2.0304,-2.0235,-2.0135,-2.01,-2.0115,-2.0096,-2.0061,-2.0131,-2.0115,-2.008,-2.008,-2.008,-2.001,-1.9884,-1.9762,-1.9726,-1.9726,-1.9726,-1.9705,-1.9726,-1.9705,-1.9705,-1.9726,-1.9726,-1.9705,-1.9705,-1.9705,-1.9632,-1.9669,-1.9639,-1.9564,-1.9325,-1.8872,-1.8548,-1.8056,-1.7384,-1.6605,-1.6472,-1.6443,-1.6114,-1.577,-1.577,-1.5814,-1.5814,-1.5814,-1.5785,-1.5756,-1.5785,-1.5785,-1.5654,-1.5624,-2.881,-2.9303,-2.9316,-2.8857,-2.8211,-2.8104,-2.7771,-2.7089,-2.6509,-2.6341,-2.611,-2.529,-2.5171,-2.5208,-2.4806,-2.4726,-2.5252,-2.6018,-2.6639,-2.6842,-2.7712,-2.7947,-2.778,-2.7564,-2.6831,-2.5644,-2.506,-2.4403,-2.3761,-2.3595,-2.3595,-2.3595,-2.3595,-2.3595,-2.3653,-2.3739,-2.3706,-2.3643,-2.3349,-2.3021,-2.2818,-2.1934,-2.1157,-2.0411,-2.0021,-1.9955,-1.9904,-1.9711,-1.9551,-1.95,-1.9244,-1.908,-1.8954,-1.8893,-1.9043,-1.9588,-1.9624,-1.9782,-2.001,-2.0185,-2.0235,-2.0304,-2.0304,-2.0304,-2.0304,-2.0339,-2.0357,-2.0342,-2.0376,-2.046,-2.0357,-2.0494,-2.0426,-2.0289,-2.017,-2.017,-2.01,-1.9975,-1.9869,-1.9812,-1.9777,-1.9741,-1.9726,-1.9726,-1.9726,-1.9726,-1.9747,-1.9782,-1.9797,-1.9904,-1.9995,-2.0085,-2.0189,-2.01,-2.0004,-1.9528,-1.9019,-1.8338,-1.79,-1.7223,-1.6623,-1.6368,-1.6174,-1.6009,-1.5814,-1.5814,-1.5814,-1.5814,-1.5814,-1.5814,-1.5814,-1.5814,-1.5814,-1.5814,-1.577,-2.9837,-3.0258,-2.9968,-2.9416,-2.8747,-2.8394,-2.7844,-2.7227,-2.6591,-2.6294,-2.6166,-2.5635,-2.5406,-2.5406,-2.5351,-2.5541,-2.5926,-2.6498,-2.7139,-2.7525,-2.8233,-2.8418,-2.8158,-2.789,-2.7106,-2.5993,-2.5315,-2.4672,-2.3834,-2.3595,-2.3595,-2.3595,-2.3655,-2.3713,-2.3754,-2.3812,-2.3985,-2.4082,-2.391,-2.3718,-2.3314,-2.2909,-2.211,-2.1095,-2.0573,-2.0327,-2.025,-2.02,-2.015,-2.0166,-2.01,-2.003,-1.9874,-1.9624,-1.9747,-1.9975,-2.008,-2.015,-2.027,-2.0304,-2.0304,-2.0304,-2.0304,-2.0304,-2.0339,-2.0444,-2.0545,-2.0712,-2.0861,-2.0958,-2.0597,-2.0763,-2.0697,-2.0478,-2.0392,-2.0527,-2.0323,-2.0185,-2.0065,-1.9995,-1.9904,-1.9777,-1.9762,-1.9762,-1.9812,-1.9904,-2.003,-2.0085,-2.0104,-2.0345,-2.063,-2.0714,-2.0829,-2.0648,-2.0465,-1.9822,-1.9214,-1.8327,-1.7699,-1.6985,-1.6411,-1.6053,-1.5829,-1.5842,-1.5814,-1.5814,-1.5814,-1.5814,-1.5814,-1.5814,-1.5814,-1.5814,-1.5814,-1.5814,-1.5814,-2.9842,-2.9922,-2.9807,-2.914,-2.8211,-2.7984,-2.7552,-2.6929,-2.6611,-2.643,-2.6258,-2.5979,-2.5852,-2.5868,-2.5556,-2.5593,-2.5917,-2.6454,-2.7073,-2.7612,-2.8009,-2.8295,-2.8134,-2.7773,-2.6786,-2.5781,-2.5287,-2.4717,-2.3786,-2.3653,-2.3638,-2.3786,-2.3996,-2.4085,-2.4006,-2.4303,-2.4341,-2.4346,-2.4234,-2.4138,-2.3779,-2.3517,-2.2594,-2.1547,-2.0978,-2.0674,-2.0335,-2.0304,-2.0304,-2.027,-2.027,-2.0304,-2.0235,-2.0185,-2.0115,-2.027,-2.0304,-2.0304,-2.0304,-2.0304,-2.0304,-2.0304,-2.0304,-2.0304,-2.0373,-2.0561,-2.0811,-2.0991,-2.0942,-2.1023,-2.0942,-2.0926,-2.0679,-2.0545,-2.0561,-2.0595,-2.0545,-2.0478,-2.0429,-2.0361,-2.017,-2.001,-1.9884,-1.9884,-1.9899,-2.0025,-2.0273,-2.0395,-2.0465,-2.078,-2.1119,-2.1103,-2.1166,-2.1039,-2.083,-2.0337,-1.9657,-1.8749,-1.7837,-1.7099,-1.6447,-1.6176,-1.5972,-1.5871,-1.5842,-1.5933,-1.5814,-1.5814,-1.5814,-1.5814,-1.5814,-1.5814,-1.5814,-1.5814,-1.5814,-2.9727,-2.9632,-2.9586,-2.8826,-2.7727,-2.7587,-2.7188,-2.6604,-2.6588,-2.6553,-2.6485,-2.626,-2.6295,-2.6382,-2.601,-2.5642,-2.56,-2.6228,-2.6872,-2.7249,-2.7624,-2.7901,-2.7752,-2.7271,-2.6489,-2.5802,-2.5421,-2.4576,-2.3917,-2.3739,-2.3782,-2.393,-2.4398,-2.4563,-2.4334,-2.4783,-2.4732,-2.4648,-2.4476,-2.4487,-2.4179,-2.3609,-2.2748,-2.1615,-2.1347,-2.0983,-2.0397,-2.0304,-2.0304,-2.0304,-2.0373,-2.0373,-2.0339,-2.0426,-2.0426,-2.0339,-2.0304,-2.0304,-2.0304,-2.0304,-2.0304,-2.0304,-2.0373,-2.0423,-2.0608,-2.0892,-2.115,-2.137,-2.1339,-2.1245,-2.1339,-2.1023,-2.0844,-2.0811,-2.0745,-2.0679,-2.0844,-2.0909,-2.091,-2.0747,-2.0478,-2.0376,-2.0342,-2.0326,-2.0429,-2.0496,-2.0747,-2.091,-2.0991,-2.1245,-2.1479,-2.1432,-2.1401,-2.1354,-2.1163,-2.0953,-2.0249,-1.9505,-1.8596,-1.7786,-1.7077,-1.6456,-1.6302,-1.6207,-1.6187,-1.6262,-1.6038,-1.5829,-1.5814,-1.5814,-1.5814,-1.5814,-1.5814,-1.5814,-1.5814,-3.0021,-3.0311,-2.9786,-2.911,-2.826,-2.7774,-2.719,-2.657,-2.6589,-2.6589,-2.6572,-2.6537,-2.6521,-2.6537,-2.645,-2.6134,-2.6188,-2.6615,-2.7114,-2.7344,-2.7767,-2.7858,-2.774,-2.7586,-2.6709,-2.5962,-2.5811,-2.5056,-2.4258,-2.3994,-2.3967,-2.4085,-2.4237,-2.4329,-2.4722,-2.5037,-2.5216,-2.5152,-2.5133,-2.4856,-2.4302,-2.3671,-2.2963,-2.2194,-2.1645,-2.1029,-2.0443,-2.0304,-2.0304,-2.0357,-2.0595,-2.0577,-2.0475,-2.0909,-2.0778,-2.0494,-2.0304,-2.0304,-2.0339,-2.0407,-2.0376,-2.0444,-2.0595,-2.0872,-2.1118,-2.1405,-2.1691,-2.2152,-2.2049,-2.1886,-2.1781,-2.1857,-2.1691,-2.1479,-2.1276,-2.1245,-2.1308,-2.1261,-2.1308,-2.137,-2.115,-2.1055,-2.0975,-2.0959,-2.0975,-2.1086,-2.1197,-2.1323,-2.1493,-2.1661,-2.1844,-2.1797,-2.1797,-2.1721,-2.1675,-2.1398,-2.0911,-2.0179,-1.9305,-1.8439,-1.7748,-1.7103,-1.6843,-1.6753,-1.6753,-1.6547,-1.6247,-1.6038,-1.5873,-1.5918,-1.6053,-1.5963,-1.5814,-1.5814,-1.5814,-2.9239,-2.8655,-2.8434,-2.789,-2.7261,-2.6983,-2.6751,-2.657,-2.6589,-2.6623,-2.6606,-2.6623,-2.664,-2.6623,-2.6589,-2.6434,-2.6376,-2.6643,-2.7008,-2.7143,-2.7443,-2.7522,-2.7454,-2.709,-2.6422,-2.6142,-2.5735,-2.5417,-2.4735,-2.4477,-2.4369,-2.4472,-2.4572,-2.4582,-2.4952,-2.5078,-2.4983,-2.4798,-2.4687,-2.4594,-2.4317,-2.3963,-2.3348,-2.2385,-2.2031,-2.1322,-2.0617,-2.0304,-2.0407,-2.0527,-2.0761,-2.0844,-2.0909,-2.1119,-2.115,-2.0958,-2.0861,-2.0763,-2.0646,-2.0745,-2.0731,-2.0749,-2.091,-2.1199,-2.1531,-2.1744,-2.1945,-2.2237,-2.2123,-2.2049,-2.1991,-2.1857,-2.1751,-2.1631,-2.1631,-2.1631,-2.1615,-2.1615,-2.1631,-2.1751,-2.1827,-2.1661,-2.1493,-2.137,-2.1323,-2.1354,-2.1462,-2.1615,-2.1781,-2.1945,-2.2094,-2.2197,-2.218,-2.2152,-2.2106,-2.1931,-2.1546,-2.0838,-1.9899,-1.9067,-1.8408,-1.786,-1.7652,-1.7511,-1.7501,-1.7159,-1.6665,-1.6608,-1.6743,-1.6578,-1.6368,-1.6248,-1.6069,-1.5814,-1.5814,-2.8141,-2.7031,-2.7218,-2.7022,-2.6562,-2.6378,-2.6382,-2.652,-2.6572,-2.6606,-2.6623,-2.6657,-2.6674,-2.664,-2.6572,-2.6468,-2.6434,-2.6312,-2.6557,-2.6776,-2.6824,-2.6869,-2.6873,-2.6506,-2.6273,-2.6117,-2.601,-2.5787,-2.561,-2.5275,-2.5059,-2.4974,-2.512,-2.5134,-2.5062,-2.5332,-2.5451,-2.4973,-2.457,-2.4364,-2.4302,-2.441,-2.3615,-2.2894,-2.2372,-2.1994,-2.1014,-2.0626,-2.0745,-2.1178,-2.1151,-2.1198,-2.1245,-2.1462,-2.1462,-2.137,-2.1339,-2.1417,-2.123,-2.1182,-2.1164,-2.1179,-2.1383,-2.1699,-2.1857,-2.1945,-2.1991,-2.2265,-2.2152,-2.2152,-2.2152,-2.1857,-2.1857,-2.1827,-2.1797,-2.1827,-2.1827,-2.1886,-2.1915,-2.202,-2.2094,-2.2152,-2.1991,-2.1768,-2.1661,-2.1631,-2.1721,-2.1869,-2.2003,-2.2152,-2.2209,-2.2327,-2.2299,-2.2282,-2.2282,-2.2181,-2.1854,-2.1421,-2.0475,-1.9944,-1.9415,-1.8894,-1.8556,-1.8446,-1.8394,-1.8556,-1.8532,-1.8082,-1.7642,-1.7329,-1.6999,-1.6623,-1.6368,-1.6054,-1.5873,-2.6982,-2.6336,-2.7018,-2.7254,-2.7211,-2.6562,-2.6417,-2.6537,-2.6572,-2.6623,-2.6674,-2.6623,-2.6606,-2.6554,-2.6452,-2.6382,-2.633,-2.6222,-2.6322,-2.6319,-2.6283,-2.6396,-2.6425,-2.6396,-2.6355,-2.6443,-2.6329,-2.6417,-2.6453,-2.6016,-2.5726,-2.5513,-2.5468,-2.5828,-2.5949,-2.5911,-2.5886,-2.5359,-2.4889,-2.4467,-2.4533,-2.4585,-2.4178,-2.3259,-2.3083,-2.2973,-2.2264,-2.1585,-2.1408,-2.1989,-2.174,-2.157,-2.157,-2.184,-2.1827,-2.1661,-2.184,-2.1857,-2.1738,-2.154,-2.1354,-2.1464,-2.176,-2.2111,-2.2168,-2.2254,-2.2282,-2.2282,-2.2209,-2.2225,-2.2282,-2.2254,-2.2123,-2.2094,-2.2065,-2.2094,-2.2123,-2.2152,-2.2197,-2.2282,-2.2327,-2.2327,-2.2299,-2.2065,-2.1961,-2.1961,-2.1961,-2.2123,-2.2152,-2.2254,-2.2254,-2.2327,-2.2327,-2.2299,-2.2299,-2.2175,-2.2073,-2.1701,-2.0979,-2.0844,-2.0726,-2.0187,-1.9277,-1.9558,-1.9589,-2.0013,-2.0131,-1.9373,-1.8653,-1.8076,-1.7646,-1.7327,-1.6817,-1.6383,-1.6174,-2.6959,-2.6253,-2.6557,-2.6673,-2.6673,-2.6393,-2.633,-2.6452,-2.6554,-2.6623,-2.6708,-2.6674,-2.6657,-2.6589,-2.6537,-2.6503,-2.6503,-2.6399,-2.6329,-2.6329,-2.6345,-2.6329,-2.6347,-2.6399,-2.6503,-2.6572,-2.6623,-2.6674,-2.6624,-2.647,-2.6436,-2.6175,-2.5799,-2.5637,-2.5805,-2.601,-2.5841,-2.5699,-2.5313,-2.5036,-2.5059,-2.5089,-2.481,-2.4012,-2.3939,-2.3448,-2.254,-2.2151,-2.2068,-2.2012,-2.1886,-2.1847,-2.1857,-2.218,-2.2123,-2.1932,-2.218,-2.218,-2.2152,-2.2003,-2.1986,-2.1974,-2.2173,-2.231,-2.231,-2.2327,-2.2327,-2.2327,-2.2327,-2.2327,-2.231,-2.2282,-2.2254,-2.2299,-2.2327,-2.2327,-2.2327,-2.231,-2.2327,-2.2327,-2.2327,-2.2327,-2.2327,-2.2282,-2.2254,-2.2254,-2.2299,-2.2327,-2.2327,-2.2327,-2.2327,-2.2327,-2.2327,-2.2327,-2.2327,-2.2327,-2.2327,-2.1887,-2.1414,-2.1346,-2.1228,-2.0491,-1.9855,-2.0262,-2.0636,-2.0763,-2.065,-2.021,-1.9609,-1.8912,-1.847,-1.8158,-1.7522,-1.6801,-1.6652,-2.6759,-2.622,-2.6241,-2.6241,-2.6222,-2.6277,-2.633,-2.6417,-2.6554,-2.6623,-2.6708,-2.6708,-2.6708,-2.6657,-2.664,-2.6572,-2.6537,-2.6468,-2.6382,-2.6399,-2.6399,-2.6382,-2.6434,-2.6468,-2.6572,-2.6589,-2.664,-2.6708,-2.6708,-2.6708,-2.6657,-2.647,-2.6175,-2.5997,-2.5905,-2.5742,-2.5689,-2.5689,-2.554,-2.5519,-2.5465,-2.5582,-2.533,-2.4713,-2.4656,-2.4232,-2.3242,-2.2696,-2.2363,-2.2302,-2.2191,-2.2111,-2.2225,-2.2327,-2.231,-2.2338,-2.2338,-2.2338,-2.2366,-2.2428,-2.2439,-2.2338,-2.231,-2.2327,-2.231,-2.2327,-2.2327,-2.2327,-2.2327,-2.231,-2.2338,-2.2338,-2.2366,-2.2394,-2.2366,-2.2338,-2.2338,-2.2338,-2.231,-2.2327,-2.2327,-2.231,-2.231,-2.231,-2.2338,-2.2327,-2.2327,-2.2327,-2.2327,-2.2327,-2.2327,-2.2327,-2.2327,-2.2327,-2.2327,-2.2327,-2.231,-2.2226,-2.1803,-2.16,-2.1312,-2.0677,-2.061,-2.1116,-2.1349,-2.14,-2.121,-2.0933,-2.0369,-1.9675,-1.9165,-1.8579,-1.8182,-1.7518,-1.7324,-2.6236,-2.6203,-2.622,-2.6258,-2.6295,-2.6295,-2.6417,-2.6537,-2.6606,-2.6657,-2.6708,-2.6708,-2.6674,-2.6623,-2.6606,-2.6572,-2.6537,-2.652,-2.6434,-2.6417,-2.6468,-2.6417,-2.6417,-2.6486,-2.6606,-2.6623,-2.664,-2.6708,-2.6708,-2.6708,-2.6708,-2.6708,-2.6539,-2.6505,-2.659,-2.628,-2.6087,-2.6068,-2.5726,-2.5652,-2.5726,-2.5944,-2.5671,-2.5376,-2.528,-2.4961,-2.407,-2.3201,-2.2878,-2.2752,-2.2562,-2.2434,-2.231,-2.2457,-2.244,-2.2411,-2.2405,-2.2432,-2.2487,-2.2562,-2.2545,-2.2449,-2.2422,-2.2394,-2.2338,-2.231,-2.2338,-2.2366,-2.2338,-2.2338,-2.2366,-2.2422,-2.2449,-2.2569,-2.2558,-2.2513,-2.2502,-2.2366,-2.2338,-2.231,-2.231,-2.231,-2.2321,-2.2349,-2.2366,-2.2338,-2.2327,-2.2327,-2.2327,-2.2327,-2.2327,-2.2327,-2.2327,-2.2327,-2.2327,-2.2327,-2.231,-2.2248,-2.2107,-2.1769,-2.1735,-2.1532,-2.1623,-2.195,-2.1961,-2.1852,-2.1786,-2.1718,-2.0972,-2.0221,-1.9443,-1.8884,-1.8527,-1.8265,-1.8056,-2.5878,-2.6203,-2.6345,-2.6415,-2.6434,-2.6434,-2.6503,-2.6606,-2.6657,-2.6674,-2.6708,-2.6708,-2.6708,-2.6657,-2.6657,-2.6674,-2.6657,-2.6589,-2.6503,-2.6521,-2.6537,-2.6537,-2.6521,-2.6555,-2.6623,-2.664,-2.6708,-2.6708,-2.6708,-2.6708,-2.6708,-2.6708,-2.6708,-2.6708,-2.6657,-2.6539,-2.6505,-2.647,-2.635,-2.6315,-2.628,-2.6385,-2.6336,-2.6034,-2.6067,-2.5541,-2.4574,-2.3727,-2.3321,-2.3016,-2.2773,-2.2841,-2.2683,-2.2734,-2.2926,-2.2664,-2.2477,-2.2497,-2.2525,-2.2586,-2.2603,-2.2593,-2.2487,-2.2477,-2.2432,-2.2449,-2.2432,-2.2449,-2.249,-2.25,-2.246,-2.2477,-2.259,-2.3016,-2.3073,-2.2943,-2.2847,-2.253,-2.2366,-2.2338,-2.2338,-2.2417,-2.2462,-2.2626,-2.266,-2.2638,-2.266,-2.2412,-2.2344,-2.2327,-2.2327,-2.2327,-2.2327,-2.2327,-2.2327,-2.2327,-2.2327,-2.231,-2.204,-2.1667,-2.1735,-2.1972,-2.204,-2.2046,-2.2164,-2.2254,-2.2077,-2.1857,-2.1385,-2.0703,-1.9993,-1.9459,-1.9141,-1.8927,-1.8732,-2.5912,-2.6241,-2.6364,-2.645,-2.6485,-2.652,-2.6589,-2.6623,-2.6674,-2.6708,-2.6742,-2.6842,-2.6891,-2.6908,-2.6973,-2.7006,-2.7053,-2.6875,-2.6792,-2.6759,-2.6657,-2.6623,-2.6589,-2.6623,-2.664,-2.6691,-2.6708,-2.6708,-2.6708,-2.6708,-2.6708,-2.6708,-2.6708,-2.6708,-2.6691,-2.6657,-2.6657,-2.6657,-2.659,-2.6624,-2.6624,-2.6657,-2.6708,-2.6572,-2.6283,-2.5656,-2.4754,-2.4088,-2.3561,-2.3056,-2.3102,-2.3317,-2.3176,-2.3409,-2.3585,-2.3175,-2.3055,-2.3229,-2.3578,-2.2771,-2.2968,-2.3526,-2.2956,-2.2559,-2.2515,-2.2487,-2.2487,-2.2521,-2.2737,-2.273,-2.2706,-2.2723,-2.3117,-2.3562,-2.3316,-2.3185,-2.3277,-2.2959,-2.2556,-2.2528,-2.2558,-2.2592,-2.2818,-2.2841,-2.3005,-2.3,-2.3011,-2.2745,-2.2542,-2.2513,-2.2479,-2.2429,-2.2378,-2.2361,-2.2344,-2.2327,-2.2327,-2.2327,-2.2158,-2.1972,-2.1887,-2.2141,-2.2141,-2.2141,-2.2215,-2.2282,-2.2209,-2.1945,-2.1554,-2.1181,-2.0766,-2.0255,-1.9839,-1.9501,-1.9246,-2.6225,-2.6295,-2.6295,-2.6382,-2.652,-2.6572,-2.6657,-2.6742,-2.6691,-2.6708,-2.6725,-2.7021,-2.7,-2.7144,-2.7439,-2.7452,-2.7344,-2.7112,-2.7053,-2.6888,-2.6622,-2.6573,-2.6573,-2.6573,-2.659,-2.6657,-2.6708,-2.6708,-2.6708,-2.6708,-2.6708,-2.6708,-2.6708,-2.6708,-2.6742,-2.6742,-2.6742,-2.6708,-2.6742,-2.6742,-2.6759,-2.6742,-2.6825,-2.6672,-2.6128,-2.5428,-2.4603,-2.383,-2.3403,-2.3317,-2.3688,-2.3688,-2.3922,-2.4435,-2.4242,-2.4091,-2.4121,-2.4585,-2.4769,-2.3746,-2.3841,-2.4406,-2.369,-2.2976,-2.2826,-2.3076,-2.3227,-2.333,-2.3529,-2.3261,-2.3089,-2.3495,-2.3919,-2.3746,-2.3377,-2.3463,-2.3712,-2.346,-2.2986,-2.2846,-2.2928,-2.3117,-2.3646,-2.3749,-2.3801,-2.3813,-2.3796,-2.359,-2.3311,-2.2953,-2.2868,-2.266,-2.2575,-2.2412,-2.2395,-2.2446,-2.2378,-2.2412,-2.2801,-2.2733,-2.2564,-2.2395,-2.253,-2.2564,-2.2378,-2.2282,-2.2254,-2.2077,-2.1857,-2.1477,-2.0991,-2.0499,-1.996,-1.9833,-1.9632,-2.5949,-2.6434,-2.6503,-2.6537,-2.6572,-2.664,-2.6842,-2.7021,-2.6825,-2.6825,-2.7053,-2.6891,-2.6713,-2.6471,-2.6811,-2.6656,-2.6593,-2.6584,-2.6807,-2.6639,-2.6279,-2.6369,-2.6319,-2.6217,-2.6335,-2.6555,-2.6691,-2.6674,-2.6708,-2.6708,-2.6708,-2.6708,-2.6742,-2.6742,-2.6825,-2.6825,-2.6808,-2.6775,-2.6825,-2.6842,-2.6876,-2.6859,-2.6942,-2.6703,-2.6173,-2.547,-2.4778,-2.4379,-2.3899,-2.323,-2.478,-2.5205,-2.4102,-2.5411,-2.6047,-2.5401,-2.5379,-2.5519,-2.5643,-2.529,-2.5189,-2.5561,-2.5137,-2.4785,-2.451,-2.4368,-2.4452,-2.4417,-2.4547,-2.447,-2.4392,-2.4636,-2.5038,-2.5013,-2.4532,-2.4199,-2.4384,-2.42,-2.3754,-2.3789,-2.3832,-2.4232,-2.4704,-2.4778,-2.4802,-2.4752,-2.4666,-2.4482,-2.4125,-2.3782,-2.3468,-2.326,-2.2926,-2.2824,-2.2682,-2.2699,-2.2581,-2.2547,-2.2868,-2.3156,-2.3071,-2.2953,-2.3038,-2.2868,-2.2513,-2.2361,-2.2299,-2.2123,-2.1945,-2.1432,-2.0975,-2.053,-2.015,-1.9975,-1.9884,-2.527,-2.5862,-2.6313,-2.6745,-2.7026,-2.6447,-2.6454,-2.6857,-2.677,-2.6689,-2.6561,-2.6478,-2.6319,-2.6174,-2.6286,-2.6323,-2.6353,-2.6283,-2.6479,-2.667,-2.585,-2.5846,-2.5832,-2.5805,-2.5928,-2.6224,-2.6483,-2.6485,-2.6656,-2.6725,-2.6691,-2.6792,-2.6792,-2.6859,-2.6925,-2.7038,-2.7068,-2.7021,-2.699,-2.6959,-2.6992,-2.7007,-2.7007,-2.6918,-2.6336,-2.5764,-2.5431,-2.5236,-2.4601,-2.4276,-2.6239,-2.6241,-2.5411,-2.6445,-2.7287,-2.6738,-2.6626,-2.6713,-2.6762,-2.6595,-2.6555,-2.6639,-2.6754,-2.665,-2.6127,-2.5773,-2.5588,-2.5454,-2.5755,-2.5932,-2.5862,-2.5862,-2.6269,-2.664,-2.5887,-2.5151,-2.5038,-2.4984,-2.4935,-2.4956,-2.5171,-2.5535,-2.5764,-2.5815,-2.5855,-2.5897,-2.5871,-2.5767,-2.5257,-2.4645,-2.4347,-2.4079,-2.3641,-2.3306,-2.3129,-2.2897,-2.2677,-2.2547,-2.2632,-2.2902,-2.319,-2.3122,-2.2852,-2.2699,-2.2547,-2.2429,-2.2327,-2.218,-2.1945,-2.1462,-2.1039,-2.0648,-2.0308,-2.0061,-1.9919,-2.4471,-2.4957,-2.5849,-2.6736,-2.7548,-2.6043,-2.5722,-2.6409,-2.645,-2.6231,-2.5766,-2.5928,-2.5974,-2.5784,-2.5823,-2.6003,-2.5967,-2.5887,-2.6089,-2.6774,-2.5592,-2.5279,-2.5401,-2.5355,-2.5739,-2.5949,-2.6303,-2.6771,-2.6787,-2.6922,-2.7004,-2.6957,-2.7023,-2.7152,-2.7244,-2.7382,-2.7439,-2.7439,-2.7321,-2.723,-2.712,-2.7105,-2.7087,-2.7029,-2.6623,-2.6143,-2.6276,-2.6178,-2.5941,-2.6551,-2.7092,-2.7066,-2.7223,-2.7266,-2.7825,-2.799,-2.7792,-2.7766,-2.7807,-2.7676,-2.7669,-2.7861,-2.8172,-2.8049,-2.7546,-2.6994,-2.6716,-2.6688,-2.6931,-2.6752,-2.6609,-2.6841,-2.7235,-2.7082,-2.6458,-2.6231,-2.6327,-2.6213,-2.6141,-2.6213,-2.6516,-2.6823,-2.7028,-2.7067,-2.6862,-2.6949,-2.6954,-2.6877,-2.6504,-2.5737,-2.5279,-2.4932,-2.4313,-2.3794,-2.3357,-2.309,-2.2756,-2.2609,-2.2784,-2.3308,-2.4052,-2.3477,-2.253,-2.2479,-2.2446,-2.2395,-2.2282,-2.218,-2.2003,-2.1584,-2.115,-2.0829,-2.0481,-2.0185,-1.9955,-2.507,-2.5192,-2.5432,-2.5725,-2.593,-2.5515,-2.5076,-2.4848,-2.5401,-2.5553,-2.546,-2.5429,-2.5304,-2.5084,-2.5244,-2.5332,-2.5006,-2.5339,-2.5517,-2.55,-2.4884,-2.4813,-2.5164,-2.5156,-2.5627,-2.6394,-2.6889,-2.7203,-2.7387,-2.747,-2.753,-2.7607,-2.7595,-2.7595,-2.7666,-2.7823,-2.7851,-2.7908,-2.788,-2.7683,-2.7522,-2.7539,-2.7535,-2.7325,-2.6965,-2.6739,-2.6801,-2.6836,-2.6389,-2.6376,-2.763,-2.816,-2.85,-2.8481,-2.8596,-2.8772,-2.8644,-2.8585,-2.8543,-2.8488,-2.8494,-2.8573,-2.873,-2.8785,-2.8579,-2.8184,-2.7947,-2.7965,-2.7857,-2.7543,-2.7434,-2.7795,-2.8001,-2.7508,-2.7071,-2.73,-2.7528,-2.7437,-2.7292,-2.7531,-2.7797,-2.7997,-2.816,-2.8157,-2.7994,-2.7861,-2.7843,-2.7741,-2.7553,-2.6994,-2.6346,-2.588,-2.4966,-2.4381,-2.3857,-2.3488,-2.3238,-2.3468,-2.3795,-2.4323,-2.4831,-2.4019,-2.3071,-2.2547,-2.2327,-2.2327,-2.2327,-2.2282,-2.2049,-2.1675,-2.1337,-2.1007,-2.0648,-2.0342,-2.008,-2.3813,-2.3964,-2.4105,-2.4775,-2.5476,-2.4953,-2.4513,-2.4445,-2.4566,-2.4601,-2.4607,-2.4716,-2.4672,-2.436,-2.4501,-2.4678,-2.4314,-2.4484,-2.4884,-2.4842,-2.4502,-2.4361,-2.4551,-2.4811,-2.5045,-2.5755,-2.675,-2.7267,-2.7798,-2.7794,-2.7794,-2.7954,-2.7982,-2.801,-2.8093,-2.8174,-2.8273,-2.8326,-2.843,-2.8299,-2.8027,-2.7971,-2.7915,-2.7674,-2.7571,-2.7415,-2.7627,-2.7713,-2.7572,-2.7447,-2.8337,-2.8646,-2.8855,-2.8879,-2.8938,-2.8975,-2.8934,-2.897,-2.8905,-2.8929,-2.8929,-2.8923,-2.8994,-2.8923,-2.8923,-2.8554,-2.8536,-2.853,-2.853,-2.8275,-2.8275,-2.853,-2.8549,-2.8268,-2.7743,-2.7606,-2.7881,-2.8027,-2.81,-2.8351,-2.8523,-2.856,-2.8669,-2.8627,-2.8499,-2.8456,-2.8446,-2.8264,-2.812,-2.7926,-2.7397,-2.6829,-2.594,-2.5013,-2.4347,-2.4091,-2.3891,-2.4241,-2.4638,-2.4404,-2.4306,-2.4086,-2.363,-2.2818,-2.2327,-2.2327,-2.2327,-2.2327,-2.2123,-2.1797,-2.1477,-2.1197,-2.0878,-2.0545,-2.0273,-2.2135,-2.2386,-2.2643,-2.3756,-2.5298,-2.4393,-2.3992,-2.4221,-2.3999,-2.3761,-2.3728,-2.4056,-2.4126,-2.3996,-2.3803,-2.4111,-2.4275,-2.4186,-2.444,-2.4476,-2.4133,-2.3887,-2.3855,-2.4024,-2.4874,-2.5739,-2.6756,-2.7477,-2.8129,-2.8102,-2.8129,-2.812,-2.8147,-2.8174,-2.8281,-2.8456,-2.8644,-2.8694,-2.8743,-2.8791,-2.8583,-2.8316,-2.821,-2.8156,-2.8183,-2.8334,-2.8551,-2.8676,-2.8773,-2.8803,-2.8819,-2.8915,-2.8975,-2.8975,-2.8975,-2.8975,-2.8975,-2.8905,-2.8834,-2.8905,-2.8858,-2.8834,-2.8947,-2.8994,-2.8994,-2.8994,-2.8975,-2.8975,-2.8975,-2.8883,-2.8865,-2.8934,-2.8915,-2.8792,-2.8242,-2.797,-2.8301,-2.8558,-2.8778,-2.8975,-2.8994,-2.8994,-2.8994,-2.8975,-2.8952,-2.8929,-2.8839,-2.8658,-2.8464,-2.8237,-2.7877,-2.7494,-2.6953,-2.6022,-2.5166,-2.4616,-2.4462,-2.4662,-2.489,-2.4286,-2.3833,-2.3782,-2.3444,-2.2682,-2.2327,-2.2327,-2.2327,-2.2327,-2.2094,-2.1932,-2.1691,-2.1446,-2.1166,-2.0861,-2.0512,-2.2558,-2.261,-2.2689,-2.2652,-2.2636,-2.3361,-2.3539,-2.319,-2.3648,-2.3774,-2.3786,-2.3843,-2.3927,-2.3902,-2.388,-2.3991,-2.4021,-2.3933,-2.3894,-2.3925,-2.3987,-2.3551,-2.3497,-2.4153,-2.5663,-2.6558,-2.7302,-2.8263,-2.8272,-2.8456,-2.8682,-2.8652,-2.8749,-2.8749,-2.8755,-2.8887,-2.8881,-2.8905,-2.8905,-2.8929,-2.8881,-2.8676,-2.8551,-2.8525,-2.8525,-2.8694,-2.8858,-2.8905,-2.8952,-2.8994,-2.8998,-2.8998,-2.8998,-2.8998,-2.9021,-2.9021,-2.9021,-2.8975,-2.8952,-2.8957,-2.891,-2.8929,-2.9017,-2.9017,-2.9017,-2.8975,-2.8975,-2.8975,-2.8902,-2.8645,-2.8627,-2.8902,-2.8938,-2.8663,-2.8264,-2.8503,-2.8796,-2.8851,-2.8925,-2.8975,-2.8975,-2.8994,-2.8975,-2.8975,-2.8975,-2.8952,-2.8952,-2.8815,-2.8749,-2.854,-2.8342,-2.8058,-2.7761,-2.7211,-2.6398,-2.5343,-2.5052,-2.5234,-2.5125,-2.4489,-2.4002,-2.3663,-2.3207,-2.253,-2.2327,-2.2327,-2.2327,-2.2327,-2.2254,-2.2123,-2.1903,-2.1661,-2.1432,-2.115,-2.0763]},{"header":{"parameterUnit":"m.s-1","parameterCategory":1,"la1":31.0,"la2":29.5877,"lo1":-88.7671,"lo2":-86.6584,"dy":0.0162,"dx":0.0185,"nx":115,"ny":88,"refTime":"2023-09-06T18:00:00:Z","depth":0,"parameterNumber":3,"parameterNumberName":"V-component_of_WINDS"},"data":[0.0,0.0,0.0,0.0,0.0,0.0,0.0,0.0,0.0,0.0,0.0,0.0,0.0,0.0,0.0,0.0,0.0,0.0,0.0,0.0,0.0,0.0,0.0,0.0,0.0,0.0,0.0,0.0,0.0,0.0,0.0,0.0,0.0,0.0,0.0,0.0,0.0,0.0,0.0,0.0,0.0,0.0,0.0,0.0,0.0,0.0,0.0,0.0,0.0,0.0,0.0,0.0,0.0,0.0,0.0,0.0,0.0,0.0,0.0,0.0,0.0,0.0,0.0,0.0,0.0,0.0,0.0,0.0,0.0,0.0,0.0,0.0,0.0,0.0,0.0,0.0,0.0,0.0,0.0,0.0,0.0,0.0,0.0,0.0,0.0,0.0,0.0,0.0,0.0,0.0,0.0,0.0,0.0,0.0,0.0,0.0,0.0,0.0,0.0,0.0,0.0,0.0,0.0,0.0,0.0,0.0,0.0,0.0,0.0,0.0,0.0,0.0,0.0,0.0,0.0,0.0,0.0,0.0,0.0,0.0,0.0,0.0,0.0,0.0,0.0,0.0,0.0,0.0,0.0,0.0,0.0,0.0,0.0,0.0,0.0,0.0,0.0,0.0,0.0,0.0,0.0,0.0,0.0,0.0,0.0,0.0,0.0,0.0,0.0,0.0,0.0,0.0,0.0,0.0,0.0,0.0,0.0,0.0,0.0,0.0,0.0,0.0,0.0,0.0,0.0,0.0,0.0,0.0,0.0,0.0,0.0,0.0,0.0,0.0,0.0,0.0,0.0,0.0,0.0,0.0,0.0,0.0,0.0,0.0,0.0,0.0,0.0,0.0,0.0,0.0,0.0,0.0,0.0,0.0,0.0,0.0,0.0,0.0,0.0,0.0,0.0,0.0,0.0,0.0,0.0,0.0,0.0,0.0,0.0,0.0,0.0,0.0,0.0,0.0,0.0,0.0,0.0,0.0,0.0,0.0,0.0,0.0,0.0,0.0,0.0,0.0,0.0,0.0,0.0,0.0,0.0,0.0,0.0,0.0,0.0,0.0,0.0,0.0,0.0,0.0,0.0,0.0,0.0,0.0,0.0,0.0,0.0,0.0,0.0,0.0,0.0,0.0,0.0,0.0,0.0,0.0,0.0,0.0,0.0,0.0,0.0,0.0,0.0,0.0,0.0,0.0,0.0,0.0,0.0,0.0,0.0,0.0,0.0,0.0,0.0,0.0,0.0,0.0,0.0,0.0,0.0,0.0,0.0,0.0,0.0,0.0,0.0,0.0,0.0,0.0,0.0,0.0,0.0,0.0,0.0,0.0,0.0,0.0,0.0,0.0,0.0,0.0,0.0,0.0,0.0,0.0,0.0,0.0,0.0,0.0,0.0,0.0,0.0,0.0,0.0,0.0,0.0,0.0,0.0,0.0,0.0,0.0,0.0,0.0,0.0,0.0,0.0,0.0,0.0,0.0,0.0,0.0,0.0,0.0,0.0,0.0,0.0,0.0,0.0,0.0,0.0,0.0,0.0,0.0,0.0,0.0,0.0,0.0,0.0,0.0,0.0,0.0,0.0,0.0,0.0,0.0,0.0,0.0,0.0,0.0,0.0,0.0,0.0,0.0,0.0,0.0,0.0,0.0,0.0,0.0,0.0,0.0,0.0,0.0,0.0,0.0,0.0,0.0,0.0,0.0,0.0,0.0,0.0,0.0,0.0,0.0,0.0,0.0,0.0,0.0,0.0,0.0,0.0,0.0,0.0,0.0,0.0,0.0,0.0,0.0,0.0,0.0,0.0,0.0,0.0,0.0,0.0,0.0,0.0,0.0,0.0,0.0,0.0,0.0,0.0,0.0,0.0,0.0,0.0,0.0,0.0,0.0,0.0,0.0,0.0,0.0,0.0,0.0,0.0,0.0,0.0,0.0,0.0,0.0,0.0,0.0,0.0,0.0,0.0,0.0,0.0,0.0,0.0,0.0,0.0,0.0,0.0,0.0,0.0,0.0,0.0,0.0,0.0,0.0,0.0,0.0,0.0,0.0,0.0,0.0,0.0,0.0,0.0,0.0,0.0,0.0,0.0,0.0,0.0,0.0,0.0,0.0,0.0,0.0,0.0,0.0,0.0,0.0,0.0,0.0,0.0,0.0,0.0,0.0,0.0,0.0,0.0,0.0,0.0,0.0,0.0,0.0,0.0,0.0,0.0,0.0,0.0,0.0,0.0,0.0,0.0,0.0,0.0,0.0,0.0,0.0,0.0,0.0,0.0,0.0,0.0,0.0,0.0,0.0,0.0,0.0,0.0,0.0,0.0,0.0,0.0,0.0,0.0,0.0,0.0,0.0,0.0,0.0,0.0,0.0,0.0,0.0,0.0,0.0,0.0,0.0,0.0,0.0,0.0,0.0,0.0,0.0,0.0,0.0,0.0,0.0,0.0,0.0,0.0,0.0,0.0,0.0,0.0,0.0,0.0,0.0,0.0,0.0,0.0,0.0,0.0,0.0,0.0,0.0,0.0,0.0,0.0,0.0,0.0,0.0,0.0,0.0,0.0,0.0,0.0,0.0,0.0,0.0,0.0,0.0,0.0,0.0,0.0,0.0,0.0,0.0,0.0,0.0,0.0,0.0,0.0,0.0,0.0,0.0,0.0,0.0,0.0,0.0,0.0,0.0,0.0,0.0,0.0,0.0,0.0,0.0,0.0,0.0,0.0,0.0,0.0,0.0,0.0,0.0,0.0,0.0,0.0,0.0,0.0,0.0,0.0,0.0,0.0,0.0,0.0,0.0,0.0,0.0,0.0,0.0,0.0,0.0,0.0,0.0,0.0,0.0,0.0,0.0,0.0,0.0,0.0,0.0,0.0,0.0,0.0,0.0,0.0,0.0,0.0,0.0,0.0,0.0,0.0,0.0,0.0,0.0,0.0,0.0,0.0,0.0,0.0,0.0,0.0,0.0,0.0,0.0,0.0,0.0,0.0,0.0,0.0,0.0,0.0,0.0,0.0,0.0,0.0,0.0,0.0,0.0,0.0,0.0,0.0,0.0,0.0,0.0,0.0,0.0,0.0,0.0,0.0,0.0,0.0,0.0,0.0,0.0,0.0,0.0,0.0,0.0,0.0,0.0,0.0,0.0,0.0,0.0,0.0,0.0,0.0,0.0,0.0,0.0,0.0,0.0,0.0,0.0,0.0,0.0,0.0,0.0,0.0,0.0,0.0,0.0,0.0,0.0,0.0,0.0,0.0,0.0,0.0,0.0,0.0,0.0,0.0,0.0,0.0,0.0,0.0,0.0,0.0,0.0,0.0,0.0,0.0,0.0,0.0,0.0,0.0,0.0,0.0,0.0,0.0,0.0,0.0,0.0,0.0,0.0,0.0,0.0,0.0,0.0,0.0,0.0,0.0,0.0,0.0,0.0,0.0,0.0,0.0,0.0,0.0,0.0,0.0,0.0,0.0,0.0,0.0,0.0,0.0,0.0,0.0,0.0,0.0,0.0,0.0,0.0,0.0,0.0,0.0,0.0,0.0,0.0,0.0,0.0,0.0,0.0,0.0,0.0,0.0,0.0,0.0,0.0,0.0,0.0,0.0,0.0,0.0,0.0,0.0,0.0,0.0,0.0,0.0,0.0,0.0,0.0,0.0,0.0,0.0,0.0,0.0,0.0,0.0,0.0,0.0,0.0,0.0,0.0,0.0,0.0,0.0,0.0,0.0,0.0,0.0,0.0,0.0,0.0,0.0,0.0,0.0,0.0,0.0,0.0,0.0,0.0,0.0,0.0,0.0,0.0,0.0,0.0,0.0,0.0,0.0,0.0,0.0,0.0,0.0,0.0,0.0,0.0,0.0,0.0,0.0,0.0,0.0,0.0,0.0,0.0,0.0,0.0,0.0,0.0,0.0,0.0,0.0,0.0,0.0,0.0,0.0,0.0,0.0,0.0,0.0,0.0,0.0,0.0,0.0,0.0,0.0,0.0,0.0,0.0,0.0,0.0,0.0,0.0,0.0,0.0,0.0,0.0,0.0,0.0,0.0,0.0,0.0,0.0,0.0,0.0,0.0,0.0,0.0,0.0,0.0,0.0,0.0,0.0,0.0,0.0,0.0,0.0,0.0,0.0,0.0,0.0,0.0,0.0,0.0,0.0,0.0,0.0,0.0,0.0,0.0,0.0,0.0,0.0,0.0,0.0,0.0,0.0,0.0,0.0,0.0,0.0,0.0,0.0,0.0,0.0,0.0,0.0,0.0,0.0,0.0,0.0,0.0,0.0,0.0,0.0,0.0,0.0,0.0,0.0,-0.8604,0.0,0.0,0.0,0.0,0.0,0.0,0.0,0.0,0.0,0.0,0.0,0.0,0.0,0.0,0.0,0.0,0.0,0.0,0.0,0.0,0.0,0.0,0.0,0.0,0.0,0.0,0.0,0.0,0.0,0.0,0.0,0.0,0.0,0.0,0.0,0.0,0.0,0.0,0.0,0.0,0.0,0.0,0.0,0.0,0.0,0.0,0.0,0.0,0.0,0.0,0.0,0.0,0.0,0.0,0.0,0.0,0.0,0.0,0.0,0.0,0.0,0.0,0.0,0.0,0.0,0.0,0.0,0.0,0.0,0.0,0.0,0.0,0.0,0.0,0.0,0.0,0.0,0.0,0.0,0.0,0.0,0.0,0.0,0.0,0.0,0.0,0.0,0.0,0.0,0.0,0.0,0.0,0.0,0.0,0.0,0.0,0.0,0.0,0.0,0.0,0.0,0.0,0.0,0.0,0.0,0.0,0.0,0.0,0.0,0.0,-0.8996,-0.894,-0.8476,-0.8426,-0.8885,0.0,0.0,0.0,0.0,0.0,0.0,0.0,0.0,0.0,0.0,0.0,0.0,0.0,0.0,0.0,0.0,0.0,0.0,0.0,0.0,0.0,0.0,0.0,0.0,0.0,0.0,0.0,0.0,0.0,0.0,0.0,0.0,0.0,0.0,0.0,0.0,0.0,0.0,0.0,0.0,0.0,0.0,0.0,0.0,0.0,0.0,0.0,0.0,0.0,0.0,0.0,0.0,0.0,0.0,0.0,0.0,0.0,0.0,0.0,0.0,0.0,0.0,0.0,0.0,0.0,0.0,0.0,0.0,0.0,0.0,0.0,0.0,0.0,0.0,0.0,0.0,0.0,0.0,0.0,0.0,0.0,0.0,0.0,0.0,0.0,0.0,0.0,0.0,0.0,0.0,0.0,0.0,0.0,0.0,0.0,0.0,0.0,0.0,0.0,0.0,0.0,0.0,0.0,0.0,0.0,0.0,0.0,0.0,0.0,0.0,0.0,0.0,-0.8932,-0.8866,-0.9541,0.0,0.0,0.0,0.0,0.0,0.0,0.0,0.0,0.0,0.0,0.0,0.0,0.0,0.0,0.0,0.0,0.0,0.0,0.0,0.0,0.0,0.0,0.0,0.0,0.0,0.0,0.0,0.0,0.0,0.0,0.0,0.0,0.0,0.0,0.0,0.0,0.0,0.0,0.0,0.0,0.0,0.0,0.0,0.0,0.0,0.0,0.0,0.0,0.0,0.0,0.0,0.0,0.0,0.0,0.0,0.0,0.0,0.0,0.0,0.0,0.0,0.0,0.0,0.0,0.0,0.0,0.0,0.0,0.0,0.0,0.0,0.0,0.0,0.0,0.0,0.0,0.0,0.0,0.0,0.0,0.0,0.0,0.0,0.0,0.0,0.0,0.0,0.0,0.0,0.0,0.0,0.0,0.0,0.0,0.0,0.0,0.0,0.0,0.0,0.0,0.0,0.0,0.0,0.0,0.0,0.0,0.0,0.0,0.0,0.0,-0.9843,-1.1234,-1.1174,0.0,-1.1311,0.0,0.0,0.0,0.0,0.0,0.0,0.0,0.0,0.0,0.0,0.0,0.0,0.0,0.0,0.0,0.0,0.0,0.0,0.0,0.0,0.0,0.0,0.0,0.0,0.0,0.0,0.0,0.0,0.0,0.0,0.0,0.0,0.0,0.0,0.0,0.0,0.0,0.0,0.0,0.0,0.0,0.0,0.0,0.0,0.0,0.0,0.0,0.0,0.0,0.0,0.0,0.0,0.0,0.0,0.0,0.0,0.0,0.0,0.0,0.0,0.0,0.0,0.0,0.0,0.0,0.0,0.0,0.0,0.0,0.0,0.0,0.0,0.0,0.0,0.0,0.0,0.0,0.0,0.0,0.0,0.0,0.0,0.0,0.0,0.0,0.0,0.0,0.0,0.0,0.0,0.0,0.0,0.0,0.0,0.0,0.0,0.0,0.0,0.0,0.0,0.0,0.0,0.0,0.0,0.0,0.0,0.0,0.0,0.0,0.0,-1.0162,-1.2161,-1.2266,-1.1827,0.0,0.0,0.0,0.0,0.0,0.0,0.0,0.0,0.0,0.0,0.0,0.0,0.0,0.0,0.0,0.0,0.0,0.0,0.0,0.0,0.0,0.0,0.0,0.0,0.0,0.0,0.0,0.0,0.0,0.0,0.0,0.0,0.0,0.0,0.0,0.0,0.0,0.0,0.0,0.0,0.0,0.0,0.0,0.0,0.0,0.0,0.0,0.0,0.0,0.0,0.0,0.0,0.0,0.0,0.0,0.0,0.0,0.0,0.0,0.0,0.0,0.0,0.0,0.0,0.0,0.0,0.0,0.0,0.0,0.0,0.0,0.0,0.0,0.0,0.0,0.0,0.0,0.0,0.0,0.0,0.0,0.0,0.0,0.0,0.0,0.0,0.0,0.0,0.0,0.0,0.0,0.0,0.0,0.0,0.0,0.0,0.0,0.0,0.0,0.0,0.0,0.0,0.0,0.0,0.0,0.0,0.0,0.0,0.0,0.0,-1.0204,-1.0761,-1.2604,-1.2565,-1.1977,-1.0829,0.0,0.0,0.0,0.0,0.0,0.0,0.0,0.0,0.0,0.0,0.0,0.0,0.0,0.0,0.0,0.0,0.0,0.0,0.0,0.0,0.0,0.0,0.0,0.0,0.0,0.0,0.0,0.0,0.0,0.0,0.0,0.0,0.0,0.0,0.0,0.0,0.0,0.0,0.0,0.0,0.0,0.0,0.0,0.0,0.0,0.0,0.0,0.0,0.0,0.0,0.0,0.0,0.0,0.0,0.0,0.0,0.0,0.0,0.0,0.0,0.0,0.0,0.0,0.0,0.0,0.0,0.0,0.0,0.0,0.0,0.0,0.0,0.0,0.0,0.0,0.0,0.0,0.0,0.0,0.0,0.0,0.0,0.0,0.0,0.0,0.0,0.0,0.0,0.0,0.0,0.0,0.0,0.0,0.0,0.0,0.0,0.0,0.0,0.0,0.0,0.0,0.0,0.0,0.0,0.0,0.0,0.0,0.0,-1.2463,-1.182,-1.1841,-1.2737,-1.212,-1.1759,0.0,0.0,0.0,0.0,0.0,0.0,0.0,0.0,0.0,0.0,0.0,0.0,0.0,0.0,0.0,0.0,0.0,0.0,0.0,0.0,0.0,0.0,0.0,0.0,0.0,0.0,0.0,0.0,0.0,0.0,0.0,0.0,0.0,0.0,0.0,0.0,0.0,0.0,0.0,0.0,0.0,0.0,0.0,0.0,0.0,0.0,0.0,0.0,0.0,0.0,0.0,0.0,0.0,0.0,0.0,0.0,0.0,0.0,0.0,0.0,0.0,0.0,0.0,0.0,0.0,0.0,0.0,0.0,0.0,0.0,0.0,0.0,0.0,0.0,0.0,0.0,0.0,0.0,0.0,0.0,0.0,0.0,0.0,0.0,0.0,0.0,0.0,0.0,0.0,0.0,0.0,0.0,0.0,0.0,0.0,0.0,0.0,0.0,0.0,0.0,0.0,0.0,0.0,0.0,0.0,0.0,0.0,0.0,0.0,-1.1956,-1.3194,-1.3266,-1.2118,-1.2801,-1.2793,0.0,0.0,0.0,0.0,0.0,0.0,0.0,0.0,0.0,0.0,0.0,0.0,0.0,0.0,0.0,0.0,0.0,0.0,0.0,0.0,0.0,0.0,0.0,0.0,0.0,0.0,0.0,0.0,0.0,0.0,0.0,0.0,0.0,0.0,0.0,0.0,0.0,0.0,0.0,0.0,0.0,0.0,0.0,0.0,0.0,0.0,0.0,0.0,0.0,0.0,0.0,0.0,0.0,0.0,0.0,0.0,0.0,0.0,0.0,0.0,0.0,0.0,0.0,0.0,0.0,0.0,0.0,0.0,0.0,0.0,0.0,0.0,0.0,0.0,0.0,0.0,0.0,0.0,0.0,0.0,0.0,0.0,0.0,0.0,0.0,0.0,0.0,0.0,0.0,0.0,0.0,0.0,0.0,0.0,0.0,0.0,0.0,0.0,0.0,0.0,0.0,0.0,0.0,0.0,0.0,0.0,0.0,0.0,0.0,-1.2328,0.0,-1.3574,-1.2118,-1.3055,-1.3066,0.0,0.0,0.0,0.0,0.0,0.0,0.0,0.0,0.0,0.0,0.0,0.0,0.0,0.0,0.0,0.0,0.0,0.0,0.0,0.0,0.0,0.0,0.0,0.0,0.0,0.0,0.0,0.0,0.0,0.0,0.0,0.0,0.0,0.0,0.0,0.0,0.0,0.0,0.0,0.0,0.0,0.0,0.0,0.0,0.0,0.0,0.0,0.0,0.0,0.0,0.0,0.0,0.0,0.0,0.0,0.0,0.0,0.0,0.0,0.0,0.0,0.0,0.0,0.0,0.0,0.0,0.0,0.0,0.0,0.0,0.0,0.0,0.0,0.0,0.0,0.0,0.0,0.0,0.0,0.0,0.0,0.0,0.0,0.0,0.0,0.0,0.0,0.0,0.0,0.0,0.0,0.0,0.0,0.0,0.0,0.0,0.0,0.0,0.0,0.0,0.0,0.0,0.0,0.0,0.0,0.0,0.0,0.0,-1.3196,-1.3821,-1.3031,-1.2753,-1.2825,-1.2798,-1.2457,0.0,0.0,0.0,0.0,0.0,0.0,0.0,0.0,0.0,0.0,0.0,0.0,0.0,0.0,0.0,0.0,0.0,0.0,0.0,0.0,0.0,0.0,0.0,0.0,0.0,0.0,0.0,0.0,0.0,0.0,0.0,0.0,0.0,0.0,0.0,0.0,0.0,0.0,0.0,0.0,0.0,0.0,0.0,0.0,0.0,0.0,0.0,0.0,0.0,0.0,0.0,0.0,0.0,0.0,0.0,0.0,0.0,0.0,0.0,0.0,0.0,0.0,0.0,0.0,0.0,0.0,0.0,0.0,0.0,0.0,0.0,0.0,0.0,0.0,0.0,0.0,0.0,0.0,0.0,0.0,0.0,0.0,0.0,0.0,0.0,0.0,0.0,0.0,0.0,0.0,0.0,0.0,0.0,0.0,0.0,0.0,0.0,0.0,0.0,0.0,0.0,0.0,0.0,0.0,0.0,0.0,0.0,0.0,0.0,-1.4477,-1.3655,-1.3743,-1.481,-1.3447,-1.2886,0.0,0.0,0.0,0.0,0.0,0.0,0.0,0.0,0.0,0.0,0.0,0.0,0.0,0.0,0.0,0.0,0.0,0.0,0.0,0.0,0.0,0.0,0.0,0.0,0.0,0.0,0.0,0.0,0.0,0.0,0.0,0.0,0.0,0.0,0.0,0.0,0.0,0.0,0.0,0.0,0.0,0.0,0.0,0.0,0.0,0.0,0.0,0.0,0.0,0.0,0.0,0.0,0.0,0.0,0.0,0.0,0.0,0.0,0.0,0.0,0.0,0.0,0.0,0.0,0.0,0.0,0.0,0.0,0.0,0.0,0.0,0.0,0.0,0.0,0.0,0.0,0.0,0.0,0.0,0.0,0.0,0.0,0.0,0.0,0.0,0.0,0.0,0.0,0.0,0.0,0.0,0.0,0.0,0.0,0.0,0.0,0.0,0.0,0.0,0.0,0.0,0.0,0.0,0.0,0.0,0.0,0.0,0.0,0.0,-1.5072,-1.4298,-1.4349,-1.5434,-1.4331,-1.3924,-1.4367,0.0,0.0,0.0,0.0,0.0,0.0,0.0,0.0,0.0,0.0,0.0,0.0,0.0,0.0,0.0,0.0,0.0,0.0,0.0,0.0,0.0,0.0,0.0,0.0,0.0,0.0,0.0,0.0,0.0,0.0,0.0,0.0,0.0,0.0,0.0,0.0,0.0,0.0,0.0,0.0,0.0,0.0,0.0,0.0,0.0,0.0,0.0,0.0,0.0,0.0,0.0,0.0,0.0,0.0,0.0,0.0,0.0,0.0,0.0,0.0,0.0,0.0,0.0,0.0,0.0,0.0,0.0,0.0,0.0,0.0,0.0,0.0,0.0,0.0,0.0,0.0,0.0,0.0,0.0,0.0,0.0,0.0,0.0,0.0,0.0,0.0,0.0,0.0,0.0,0.0,0.0,0.0,0.0,0.0,0.0,0.0,0.0,0.0,0.0,0.0,0.0,0.0,0.0,0.0,0.0,0.0,0.0,0.0,-1.5794,-1.499,-1.4683,-1.4916,-1.5403,-1.548,0.0,0.0,0.0,0.0,0.0,0.0,0.0,0.0,0.0,0.0,0.0,0.0,0.0,0.0,0.0,0.0,0.0,0.0,0.0,0.0,0.0,0.0,0.0,0.0,0.0,0.0,0.0,0.0,0.0,0.0,0.0,0.0,0.0,0.0,0.0,0.0,0.0,0.0,0.0,0.0,0.0,0.0,0.0,0.0,0.0,0.0,0.0,0.0,0.0,0.0,0.0,0.0,0.0,0.0,0.0,0.0,0.0,0.0,0.0,0.0,0.0,0.0,0.0,0.0,0.0,0.0,0.0,0.0,0.0,0.0,0.0,0.0,0.0,0.0,0.0,0.0,0.0,0.0,0.0,0.0,0.0,0.0,0.0,0.0,0.0,0.0,0.0,0.0,0.0,0.0,0.0,0.0,0.0,0.0,0.0,0.0,0.0,0.0,0.0,0.0,0.0,0.0,0.0,0.0,0.0,0.0,0.0,0.0,0.0,-1.5774,-1.637,-1.6797,-1.7041,-1.6655,-1.6233,0.0,0.0,0.0,0.0,0.0,0.0,0.0,0.0,0.0,0.0,0.0,0.0,0.0,0.0,0.0,0.0,0.0,0.0,0.0,0.0,0.0,0.0,0.0,0.0,0.0,0.0,0.0,0.0,0.0,0.0,0.0,0.0,0.0,0.0,0.0,0.0,0.0,0.0,0.0,0.0,0.0,0.0,0.0,0.0,0.0,0.0,0.0,0.0,0.0,0.0,0.0,0.0,0.0,0.0,0.0,0.0,0.0,0.0,0.0,0.0,0.0,0.0,0.0,0.0,0.0,0.0,0.0,0.0,0.0,0.0,0.0,0.0,0.0,0.0,0.0,0.0,0.0,0.0,0.0,0.0,0.0,0.0,0.0,0.0,0.0,0.0,0.0,0.0,0.0,0.0,0.0,0.0,0.0,0.0,0.0,0.0,0.0,0.0,0.0,0.0,0.0,0.0,0.0,0.0,0.0,0.0,0.0,0.0,-1.5192,-1.6135,-1.7669,-1.8566,-1.8741,-1.8272,-1.7552,0.0,0.0,0.0,0.0,0.0,0.0,0.0,0.0,0.0,0.0,0.0,0.0,0.0,0.0,0.0,0.0,0.0,0.0,0.0,0.0,0.0,0.0,0.0,0.0,0.0,0.0,0.0,0.0,0.0,0.0,0.0,0.0,0.0,0.0,0.0,0.0,0.0,0.0,0.0,0.0,0.0,0.0,0.0,0.0,0.0,0.0,0.0,0.0,0.0,0.0,0.0,0.0,0.0,0.0,0.0,0.0,0.0,0.0,0.0,0.0,0.0,0.0,0.0,0.0,0.0,0.0,0.0,0.0,0.0,0.0,0.0,0.0,0.0,0.0,0.0,0.0,0.0,0.0,0.0,0.0,0.0,0.0,0.0,0.0,0.0,0.0,0.0,0.0,0.0,0.0,0.0,0.0,0.0,0.0,0.0,0.0,0.0,0.0,0.0,0.0,0.0,0.0,0.0,0.0,0.0,0.0,0.0,0.0,-1.5393,-1.6593,-1.8775,-1.9939,-2.0017,-1.9814,-1.891,0.0,0.0,0.0,0.0,0.0,0.0,0.0,0.0,0.0,0.0,0.0,0.0,0.0,0.0,0.0,0.0,0.0,0.0,0.0,0.0,0.0,0.0,0.0,0.0,0.0,0.0,0.0,0.0,0.0,0.0,0.0,0.0,0.0,0.0,0.0,0.0,0.0,0.0,0.0,0.0,0.0,0.0,0.0,0.0,0.0,0.0,0.0,0.0,0.0,0.0,0.0,0.0,0.0,0.0,0.0,0.0,0.0,0.0,0.0,0.0,0.0,0.0,0.0,0.0,0.0,0.0,0.0,0.0,0.0,0.0,0.0,0.0,0.0,0.0,0.0,0.0,0.0,0.0,0.0,0.0,0.0,0.0,0.0,0.0,0.0,0.0,0.0,0.0,0.0,0.0,0.0,0.0,0.0,0.0,0.0,0.0,0.0,0.0,0.0,0.0,0.0,0.0,0.0,0.0,0.0,0.0,0.0,0.0,-1.5887,-1.6614,-1.9211,-2.0638,-2.0757,-1.9622,-1.8704,0.0,0.0,0.0,0.0,0.0,0.0,0.0,0.0,0.0,0.0,0.0,0.0,0.0,0.0,0.0,0.0,0.0,0.0,0.0,0.0,0.0,0.0,0.0,0.0,0.0,0.0,0.0,0.0,0.0,0.0,0.0,0.0,0.0,0.0,0.0,0.0,0.0,0.0,0.0,0.0,0.0,0.0,0.0,0.0,0.0,0.0,0.0,0.0,-1.3807,0.0,0.0,0.0,0.0,0.0,0.0,0.0,0.0,0.0,0.0,0.0,0.0,0.0,0.0,0.0,0.0,0.0,0.0,0.0,0.0,0.0,0.0,0.0,0.0,0.0,0.0,0.0,0.0,0.0,0.0,0.0,0.0,0.0,0.0,0.0,0.0,0.0,0.0,0.0,0.0,0.0,0.0,0.0,0.0,0.0,0.0,0.0,0.0,0.0,0.0,0.0,0.0,0.0,0.0,0.0,0.0,0.0,0.0,0.0,-1.5697,-1.6562,-1.8684,-2.003,-2.0387,-1.8674,-1.8059,0.0,0.0,0.0,0.0,0.0,0.0,0.0,0.0,0.0,0.0,0.0,0.0,0.0,0.0,0.0,0.0,0.0,0.0,0.0,0.0,0.0,0.0,0.0,0.0,0.0,0.0,0.0,0.0,0.0,0.0,0.0,0.0,0.0,0.0,0.0,0.0,0.0,0.0,0.0,0.0,0.0,0.0,0.0,0.0,0.0,0.0,0.0,0.0,0.0,0.0,0.0,0.0,0.0,0.0,0.0,0.0,0.0,0.0,0.0,0.0,0.0,0.0,0.0,0.0,0.0,0.0,0.0,0.0,0.0,0.0,0.0,0.0,0.0,0.0,0.0,0.0,0.0,0.0,0.0,0.0,0.0,0.0,0.0,0.0,0.0,0.0,0.0,0.0,0.0,0.0,0.0,0.0,0.0,0.0,0.0,0.0,0.0,0.0,0.0,0.0,0.0,0.0,0.0,0.0,0.0,0.0,0.0,-1.4951,-1.5469,-1.6514,-1.8057,-1.9228,-1.9849,-1.782,-1.755,-1.9269,0.0,0.0,0.0,0.0,0.0,0.0,0.0,0.0,0.0,0.0,0.0,0.0,0.0,0.0,0.0,0.0,0.0,0.0,0.0,0.0,0.0,0.0,0.0,0.0,0.0,0.0,0.0,0.0,0.0,0.0,0.0,0.0,0.0,0.0,0.0,0.0,0.0,0.0,-1.1688,-1.2106,0.0,0.0,0.0,0.0,0.0,0.0,0.0,0.0,-1.4075,0.0,0.0,0.0,0.0,0.0,0.0,0.0,0.0,0.0,0.0,0.0,0.0,0.0,0.0,0.0,0.0,0.0,0.0,0.0,0.0,0.0,0.0,0.0,0.0,0.0,0.0,0.0,0.0,0.0,0.0,0.0,0.0,0.0,0.0,0.0,0.0,0.0,0.0,0.0,0.0,0.0,0.0,0.0,0.0,0.0,0.0,0.0,0.0,0.0,0.0,0.0,0.0,0.0,0.0,0.0,0.0,-1.4988,-1.5856,-1.6378,-1.6622,-1.8615,-1.9782,-1.9926,-1.8367,-1.8065,-1.9104,0.0,0.0,0.0,0.0,0.0,0.0,0.0,0.0,0.0,0.0,0.0,0.0,0.0,0.0,0.0,0.0,0.0,0.0,0.0,0.0,0.0,0.0,0.0,0.0,0.0,0.0,0.0,0.0,0.0,0.0,0.0,0.0,0.0,0.0,0.0,0.0,0.0,0.0,0.0,-1.2065,-1.2791,0.0,0.0,0.0,0.0,0.0,0.0,0.0,0.0,-1.3408,0.0,0.0,0.0,0.0,0.0,0.0,0.0,0.0,0.0,0.0,0.0,0.0,0.0,0.0,0.0,0.0,0.0,0.0,0.0,0.0,0.0,0.0,0.0,0.0,0.0,0.0,0.0,0.0,0.0,0.0,0.0,0.0,0.0,0.0,0.0,0.0,0.0,0.0,0.0,0.0,0.0,0.0,0.0,0.0,0.0,0.0,0.0,0.0,0.0,0.0,0.0,0.0,0.0,0.0,0.0,-1.4902,-1.4572,-1.4917,-1.6004,-1.7103,-1.7867,-1.8251,-1.683,-1.672,0.0,0.0,0.0,0.0,0.0,0.0,0.0,0.0,0.0,0.0,0.0,0.0,0.0,0.0,0.0,0.0,0.0,0.0,0.0,0.0,0.0,0.0,0.0,0.0,0.0,0.0,0.0,0.0,0.0,0.0,0.0,0.0,0.0,0.0,0.0,0.0,0.0,0.0,0.0,0.0,-1.3032,-1.3349,-1.383,0.0,0.0,0.0,0.0,0.0,0.0,-1.4588,-1.4717,0.0,0.0,0.0,0.0,0.0,0.0,0.0,0.0,0.0,0.0,0.0,0.0,0.0,0.0,0.0,0.0,0.0,0.0,0.0,0.0,0.0,0.0,0.0,0.0,0.0,0.0,0.0,0.0,0.0,0.0,0.0,0.0,0.0,0.0,0.0,0.0,0.0,0.0,0.0,0.0,0.0,0.0,0.0,0.0,0.0,0.0,0.0,0.0,0.0,0.0,0.0,0.0,0.0,0.0,0.0,-1.5095,-1.3559,-1.3515,-1.5179,-1.5471,-1.5846,-1.6424,-1.5443,-1.5596,0.0,0.0,0.0,0.0,0.0,0.0,0.0,0.0,0.0,0.0,0.0,0.0,0.0,0.0,0.0,0.0,0.0,0.0,0.0,0.0,0.0,0.0,0.0,0.0,0.0,0.0,0.0,0.0,0.0,0.0,0.0,0.0,0.0,0.0,0.0,0.0,0.0,0.0,0.0,0.0,0.0,-1.4181,-1.4503,-1.5488,0.0,0.0,0.0,0.0,-1.5242,-1.5901,0.0,0.0,0.0,0.0,0.0,0.0,0.0,0.0,0.0,0.0,0.0,0.0,0.0,0.0,0.0,0.0,0.0,0.0,0.0,0.0,0.0,0.0,0.0,0.0,0.0,0.0,0.0,0.0,0.0,0.0,0.0,0.0,0.0,0.0,0.0,0.0,0.0,0.0,0.0,0.0,0.0,0.0,0.0,0.0,0.0,0.0,0.0,0.0,0.0,0.0,0.0,0.0,0.0,0.0,0.0,0.0,-1.5939,-1.4686,-1.4138,-1.4467,-1.5126,-1.5553,-1.5647,-1.6001,-1.6471,0.0,0.0,0.0,0.0,0.0,0.0,0.0,0.0,0.0,0.0,0.0,0.0,0.0,0.0,0.0,0.0,0.0,0.0,0.0,0.0,0.0,0.0,0.0,0.0,0.0,0.0,0.0,0.0,0.0,0.0,0.0,0.0,0.0,0.0,0.0,0.0,0.0,0.0,0.0,0.0,0.0,-1.524,-1.6019,-1.6127,-1.6132,0.0,0.0,-1.6047,-1.5376,-1.6588,0.0,0.0,0.0,0.0,0.0,0.0,0.0,0.0,0.0,0.0,0.0,0.0,0.0,0.0,0.0,0.0,0.0,0.0,0.0,0.0,0.0,0.0,0.0,0.0,0.0,0.0,0.0,0.0,0.0,0.0,0.0,0.0,0.0,0.0,0.0,0.0,0.0,0.0,0.0,0.0,0.0,0.0,0.0,0.0,0.0,0.0,0.0,0.0,0.0,0.0,0.0,0.0,0.0,0.0,0.0,-1.331,-1.4695,-1.2799,-1.2189,-1.3059,-1.2992,-1.3344,-1.4184,-1.4061,-1.4731,0.0,0.0,0.0,0.0,0.0,0.0,0.0,0.0,0.0,0.0,0.0,0.0,0.0,0.0,0.0,0.0,0.0,0.0,0.0,0.0,0.0,0.0,0.0,0.0,0.0,0.0,0.0,0.0,0.0,0.0,0.0,0.0,0.0,0.0,0.0,0.0,0.0,0.0,0.0,0.0,0.0,0.0,-1.6387,-1.6704,0.0,0.0,0.0,-1.8061,-1.724,0.0,0.0,0.0,0.0,0.0,0.0,0.0,0.0,0.0,0.0,0.0,0.0,0.0,0.0,0.0,0.0,0.0,0.0,0.0,0.0,0.0,0.0,0.0,0.0,0.0,0.0,0.0,0.0,0.0,0.0,0.0,0.0,0.0,0.0,0.0,0.0,0.0,0.0,0.0,0.0,0.0,0.0,0.0,0.0,0.0,0.0,0.0,0.0,0.0,0.0,0.0,0.0,0.0,0.0,0.0,0.0,0.0,-1.3996,-1.1309,-1.0614,-1.2054,-1.1585,-1.1888,-1.3108,-1.279,0.0,0.0,0.0,0.0,0.0,0.0,0.0,0.0,0.0,0.0,0.0,0.0,0.0,0.0,0.0,0.0,0.0,0.0,0.0,0.0,0.0,0.0,0.0,0.0,0.0,0.0,0.0,-1.0831,0.0,0.0,0.0,0.0,0.0,0.0,0.0,0.0,0.0,0.0,0.0,0.0,0.0,0.0,-1.6169,-1.6807,-1.7156,-1.7122,0.0,0.0,-1.9458,-1.8396,-1.9349,-2.0009,0.0,0.0,0.0,0.0,0.0,0.0,0.0,0.0,0.0,0.0,0.0,0.0,0.0,0.0,0.0,0.0,0.0,0.0,0.0,0.0,0.0,0.0,0.0,0.0,0.0,0.0,0.0,0.0,0.0,0.0,0.0,0.0,0.0,0.0,0.0,0.0,0.0,0.0,0.0,0.0,0.0,0.0,0.0,0.0,0.0,0.0,0.0,0.0,0.0,0.0,0.0,0.0,0.0,0.0,-1.348,-1.4663,-1.1508,-1.0515,-1.1958,-1.2024,-1.2373,-1.3085,-1.3714,-1.4866,0.0,0.0,0.0,0.0,0.0,0.0,0.0,0.0,0.0,0.0,0.0,0.0,0.0,0.0,0.0,0.0,0.0,0.0,0.0,0.0,0.0,0.0,0.0,0.0,0.0,0.0,0.0,0.0,0.0,0.0,0.0,0.0,0.0,0.0,0.0,0.0,0.0,0.0,0.0,0.0,0.0,-1.766,-1.77,-1.7488,-1.7062,0.0,-1.8203,-1.9188,-1.7713,-1.9506,-2.0528,-1.8868,0.0,0.0,0.0,0.0,0.0,0.0,0.0,0.0,0.0,0.0,0.0,0.0,0.0,0.0,0.0,0.0,0.0,0.0,0.0,0.0,0.0,0.0,0.0,0.0,0.0,0.0,0.0,0.0,0.0,0.0,0.0,0.0,0.0,0.0,0.0,0.0,0.0,0.0,0.0,0.0,0.0,0.0,0.0,0.0,0.0,0.0,0.0,0.0,0.0,0.0,0.0,0.0,0.0,-1.2833,-1.409,-1.1324,-1.0333,-1.1263,-1.1328,-1.1693,-1.2406,-1.2653,-1.3571,0.0,0.0,0.0,0.0,0.0,0.0,0.0,0.0,0.0,0.0,0.0,0.0,0.0,0.0,0.0,0.0,0.0,0.0,0.0,0.0,0.0,0.0,0.0,0.0,0.0,0.0,0.0,0.0,-1.3238,-1.3853,-1.4547,0.0,0.0,0.0,0.0,0.0,0.0,0.0,0.0,0.0,0.0,-1.7068,-1.7657,-1.7562,0.0,0.0,-1.8773,-2.0156,-1.8402,-1.9869,-2.0717,-1.9279,-2.0111,0.0,0.0,0.0,0.0,0.0,0.0,0.0,0.0,0.0,0.0,0.0,0.0,0.0,0.0,0.0,0.0,0.0,0.0,0.0,0.0,0.0,0.0,0.0,0.0,0.0,0.0,0.0,0.0,0.0,0.0,0.0,0.0,0.0,0.0,0.0,0.0,0.0,0.0,0.0,0.0,0.0,0.0,0.0,0.0,0.0,0.0,0.0,0.0,0.0,0.0,0.0,0.0,-1.2955,-1.36,-1.1335,-1.0546,-1.1213,-1.1213,-1.1578,-1.2307,-1.2273,-1.3002,0.0,0.0,0.0,0.0,0.0,0.0,0.0,0.0,0.0,0.0,0.0,0.0,0.0,0.0,0.0,0.0,0.0,0.0,0.0,0.0,0.0,0.0,0.0,0.0,0.0,0.0,0.0,0.0,-1.3814,-1.4352,-1.5232,0.0,0.0,0.0,0.0,0.0,0.0,0.0,0.0,0.0,0.0,-1.6693,-1.7816,-1.7643,-1.7339,-1.7166,-1.9416,-2.0721,-1.9604,-2.0326,-2.0746,-1.9893,0.0,0.0,0.0,0.0,0.0,0.0,0.0,0.0,0.0,0.0,0.0,0.0,0.0,0.0,0.0,0.0,0.0,0.0,0.0,0.0,0.0,0.0,0.0,0.0,0.0,0.0,0.0,-1.4981,0.0,0.0,-1.4375,0.0,0.0,0.0,0.0,0.0,0.0,0.0,0.0,0.0,0.0,0.0,0.0,0.0,0.0,0.0,0.0,0.0,0.0,0.0,0.0,0.0,0.0,-1.4325,-1.3428,-1.1768,-1.123,-1.1959,-1.1975,-1.234,-1.3019,-1.3067,-1.3802,-1.5315,0.0,0.0,0.0,0.0,0.0,0.0,0.0,0.0,0.0,0.0,0.0,0.0,0.0,0.0,0.0,0.0,0.0,0.0,0.0,0.0,0.0,0.0,0.0,0.0,0.0,0.0,-1.5116,-1.5174,-1.5251,0.0,0.0,0.0,0.0,0.0,0.0,0.0,0.0,0.0,-1.8554,-1.7278,-1.687,-1.834,-1.7753,-1.7622,-1.9022,-1.9954,-2.0673,-2.1134,-2.0892,-2.0599,0.0,0.0,0.0,0.0,0.0,0.0,0.0,0.0,0.0,0.0,0.0,0.0,0.0,0.0,0.0,0.0,0.0,0.0,0.0,0.0,0.0,0.0,0.0,0.0,0.0,0.0,0.0,-1.583,-1.5842,0.0,0.0,0.0,0.0,0.0,0.0,0.0,0.0,0.0,0.0,0.0,-1.7052,-1.6873,0.0,0.0,0.0,0.0,0.0,0.0,0.0,0.0,0.0,0.0,0.0,0.0,-1.4106,-1.4127,-1.2506,-1.1992,-1.2721,-1.2737,-1.2853,-1.3084,-1.3084,-1.3818,-1.5349,0.0,0.0,0.0,0.0,0.0,0.0,0.0,0.0,0.0,0.0,0.0,0.0,0.0,0.0,0.0,0.0,0.0,0.0,0.0,0.0,0.0,0.0,0.0,0.0,0.0,-1.5306,0.0,0.0,0.0,0.0,0.0,0.0,0.0,0.0,0.0,0.0,0.0,-1.8458,-1.8705,-1.7963,-1.7646,-1.8236,-1.7987,-1.7742,0.0,0.0,0.0,0.0,0.0,0.0,0.0,0.0,0.0,0.0,0.0,0.0,0.0,0.0,-2.0862,-1.9217,-1.8761,-1.8759,-1.9107,0.0,0.0,0.0,0.0,0.0,0.0,0.0,0.0,0.0,0.0,0.0,0.0,0.0,0.0,-1.6666,-1.6861,-1.6254,0.0,0.0,0.0,0.0,0.0,0.0,0.0,0.0,-1.7277,-1.7738,-1.7871,-1.7663,-1.814,-1.9146,-1.8567,-1.8592,0.0,0.0,0.0,0.0,0.0,0.0,0.0,0.0,-1.4704,-1.4763,-1.3707,-1.3251,-1.3483,-1.3481,-1.3348,-1.31,-1.3084,-1.3567,-1.4574,-1.468,-1.4894,0.0,0.0,0.0,0.0,0.0,0.0,0.0,0.0,0.0,0.0,0.0,0.0,0.0,0.0,0.0,0.0,0.0,0.0,0.0,0.0,0.0,0.0,0.0,-1.5792,0.0,0.0,0.0,0.0,0.0,0.0,0.0,0.0,0.0,-1.8267,-1.8401,-1.8716,-1.9037,-1.8273,-1.7891,-1.8472,0.0,0.0,0.0,0.0,0.0,0.0,0.0,-2.0697,-2.059,-2.1024,-2.1438,-2.161,-2.2413,-2.3021,-2.3059,0.0,0.0,-2.0644,-2.0237,-2.0221,-2.0541,-2.0916,-2.1231,-2.1411,-2.1657,-2.1627,0.0,0.0,0.0,0.0,-1.5846,0.0,0.0,0.0,-1.7121,-1.7532,0.0,-1.753,0.0,0.0,0.0,0.0,-1.5951,-1.7429,0.0,0.0,-1.819,-1.8562,-1.7932,-1.861,-1.9119,-1.9481,-1.9984,-2.0159,-2.0019,-1.85,0.0,0.0,0.0,0.0,0.0,0.0,-1.613,-1.5275,-1.5238,-1.4944,-1.4242,-1.4192,-1.3847,-1.3117,-1.3084,-1.31,-1.3168,-1.4463,-1.5209,-1.5292,-1.6824,0.0,0.0,0.0,0.0,0.0,0.0,0.0,0.0,0.0,0.0,0.0,0.0,0.0,0.0,0.0,0.0,0.0,0.0,0.0,0.0,-1.5876,0.0,0.0,0.0,0.0,0.0,0.0,0.0,0.0,0.0,-2.0114,-1.8739,-1.8643,-1.8858,-1.9479,0.0,0.0,0.0,0.0,-1.8802,-2.0624,-2.0978,-2.1395,-2.2586,-2.1892,-2.1216,-2.1182,0.0,0.0,-2.0138,-2.0783,-2.1317,-2.1321,-2.2102,-2.2692,-2.283,-2.2007,-2.1678,-2.2352,-2.1953,-2.1842,-2.2421,-2.2075,-2.1602,-1.9089,0.0,0.0,0.0,0.0,-1.8373,-1.8616,-1.8275,-1.9136,-1.939,-1.9141,-1.8433,0.0,0.0,0.0,0.0,0.0,0.0,-1.8468,-1.7818,-1.9169,-1.9465,-1.8812,-1.9523,-2.0132,-2.0722,-2.0099,-2.0052,-2.048,-1.9464,-1.9157,-1.9481,0.0,0.0,0.0,0.0,-1.6249,-1.611,-1.5595,-1.5193,-1.4994,-1.4476,-1.3845,-1.31,-1.3084,-1.3084,-1.3084,-1.3499,-1.4231,-1.5263,-1.5903,0.0,0.0,0.0,0.0,0.0,0.0,0.0,0.0,0.0,0.0,0.0,0.0,0.0,0.0,0.0,0.0,0.0,0.0,0.0,-1.6536,-1.2629,-1.2096,0.0,0.0,0.0,0.0,0.0,0.0,0.0,0.0,0.0,-1.9703,-1.9737,-1.9597,0.0,0.0,-1.9158,-2.0267,-1.9657,-1.9351,-2.0025,-1.971,0.0,-1.9858,-2.0017,-2.0026,-1.9839,-2.0033,-2.0294,-2.0523,-2.1198,-2.1697,-2.1737,-2.2397,-2.297,-2.2967,-2.2206,-2.1585,-2.1576,-2.1824,-2.207,-2.2157,-2.2438,-2.2509,-2.0636,-1.9889,-1.8841,-1.8338,-1.8296,-1.9534,-1.9706,-1.9192,-1.9886,-2.0102,-1.9886,-1.898,-1.8783,-1.9081,-1.8437,0.0,0.0,0.0,-1.8522,-1.8431,-1.9238,-1.9611,-1.9641,-2.0002,-2.0528,-2.1055,-2.0524,-2.0459,-2.0868,-2.0152,-2.0098,-2.0534,0.0,-1.801,-1.8046,-1.7172,-1.6749,-1.6835,-1.6403,-1.6022,-1.574,-1.5006,-1.441,-1.398,-1.3698,-1.3549,-1.3549,-1.3267,-1.3781,-1.5209,-1.5419,-1.5536,0.0,0.0,0.0,0.0,0.0,0.0,0.0,0.0,0.0,0.0,0.0,-1.5759,-1.531,0.0,0.0,0.0,-1.5967,-1.5584,-1.408,-1.2708,0.0,0.0,0.0,0.0,0.0,0.0,0.0,-1.9661,-1.9469,-1.9345,-1.947,-1.9667,-1.9651,-1.9251,-1.9201,-1.9414,-1.9952,0.0,-1.9202,-1.9475,-1.9125,-1.8953,-1.9245,-1.9639,-1.9782,-1.9342,-1.9499,-1.9865,-2.0223,-2.092,-2.1545,-2.1908,-2.2564,-2.3109,-2.3109,-2.2553,-2.2082,-2.1931,-2.2265,-2.2539,-2.2482,-2.2811,-2.3012,-2.1697,-2.1902,-2.0566,-1.9615,-1.9182,-2.0218,-2.0438,-2.0005,-1.9909,-2.0102,-2.0429,-1.9295,-1.9016,-1.9369,-1.8915,0.0,-1.7766,-1.7847,-1.8223,-1.8777,-1.8777,-1.925,-2.0139,-2.0174,-2.0395,-2.0745,-2.1087,-2.1198,-2.1118,-2.0615,-2.0645,-2.1084,-1.9344,-1.8151,-1.7544,-1.7469,-1.7419,-1.7354,-1.7427,-1.711,-1.642,-1.574,-1.5359,-1.5276,-1.4642,-1.4311,-1.4278,-1.3632,-1.3913,-1.5292,-1.5396,-1.5555,-1.5859,0.0,0.0,0.0,0.0,0.0,0.0,0.0,0.0,0.0,0.0,0.0,0.0,0.0,0.0,0.0,-1.6862,0.0,-1.0434,-1.5306,0.0,0.0,0.0,-1.912,-1.9368,-1.9079,-1.8949,-1.9162,0.0,0.0,-1.8647,-1.8949,-1.9269,-1.9473,-1.9152,-1.8896,-1.8838,-1.8725,-1.8691,-1.9087,-1.9058,-1.9247,-1.9668,-1.9904,-1.9751,-1.9208,-1.8742,-1.8655,-1.9328,-2.0171,-2.0945,-2.1406,-2.2356,-2.294,-2.293,-2.2853,-2.3017,-2.2947,-2.3007,-2.3049,-2.2958,-2.2975,-2.2975,-2.255,-2.2325,-2.2376,-2.1616,-2.0573,-2.1283,-2.1267,-2.07,-2.108,-2.1021,-2.0594,-1.9824,-1.954,-1.9603,-1.9489,-1.934,-1.9226,-1.9226,-1.9301,-1.945,-1.945,-1.9576,-1.9726,-1.9995,-2.012,-2.0158,-2.0514,-2.0697,-2.0681,-2.0783,-2.0512,-1.9925,-1.927,-1.8804,-1.8527,-1.7507,-1.7018,-1.7167,-1.7191,-1.6912,-1.6347,-1.6216,-1.5868,-1.5242,-1.5106,-1.5043,-1.5027,-1.4878,-1.5209,-1.6088,-1.632,-1.6217,-1.5707,-1.6836,0.0,0.0,0.0,0.0,0.0,0.0,0.0,0.0,0.0,-1.7128,-1.6377,0.0,-1.7764,0.0,-1.7558,-1.8054,-1.783,-1.8457,0.0,0.0,-1.9057,-1.8589,-1.8434,-1.8489,-1.8886,-1.9847,-1.966,-1.9569,-1.986,-1.9549,-1.9308,-1.9391,-1.9125,-1.9137,-1.9768,-1.9349,-1.8994,-1.9087,-1.8758,-1.8491,-1.8586,-1.8312,-1.8225,-1.8042,-1.7912,-1.7867,-1.8126,-1.926,-2.0008,-1.9753,-2.107,-2.1936,-2.171,-2.2024,-2.2409,-2.2497,-2.2659,-2.2721,-2.2552,-2.2515,-2.2497,-2.2792,-2.2153,-2.2365,-2.1944,-2.1287,-2.2321,-2.2425,-2.1815,-2.1717,-2.1485,-2.1096,-2.0087,-1.9617,-1.956,-1.9545,-1.9545,-1.9545,-1.9596,-1.9545,-1.9545,-1.956,-1.956,-1.9501,-1.9705,-1.9854,-1.9945,-2.0124,-2.0296,-2.0462,-2.0599,-2.0476,-2.0049,-1.9287,-1.8927,-1.8879,-1.7454,-1.6923,-1.7352,-1.7122,-1.6922,-1.6755,-1.6769,-1.6713,-1.6544,-1.5944,-1.5764,-1.5997,-1.5468,-1.5512,-1.6219,-1.648,-1.6366,-1.5837,-1.6723,-1.6657,0.0,0.0,0.0,0.0,0.0,0.0,0.0,0.0,0.0,0.0,0.0,-1.9229,-1.8064,-1.8148,-1.8726,-1.9781,-1.9326,-1.9243,-1.9995,-1.9608,-1.9217,-1.9142,-1.9213,-1.9542,-2.0216,-1.9958,-1.9848,-2.0196,-1.9833,-1.9529,-1.957,-1.9384,-1.9369,-1.9597,-1.926,-1.8833,-1.8523,-1.8183,-1.816,-1.8603,-1.8024,-1.7745,-1.8326,-1.7959,-1.7649,-1.8078,-1.8799,-1.9421,-1.979,-2.077,-2.1558,-2.1502,-2.1787,-2.2118,-2.2147,-2.2271,-2.2343,-2.2282,-2.2254,-2.2271,-2.2844,-2.2073,-2.1878,-2.1786,-2.1811,-2.3195,-2.3378,-2.2622,-2.1909,-2.155,-2.1367,-2.0146,-1.9538,-1.9428,-1.9428,-1.9413,-1.9413,-1.9413,-1.9413,-1.9413,-1.9413,-1.9413,-1.9376,-1.9376,-1.956,-1.9884,-1.9823,-1.9949,-2.0239,-2.0227,-2.0364,-2.0565,-1.9358,-1.8803,-1.8861,-1.7361,-1.6921,-1.7531,-1.7225,-1.718,-1.7387,-1.7363,-1.7606,-1.8048,-1.6865,-1.6411,-1.6818,-1.5805,-1.5519,-1.6158,-1.64,-1.6413,-1.6236,-1.6341,-1.6722,0.0,-1.7566,0.0,0.0,0.0,0.0,0.0,0.0,0.0,0.0,-2.0538,-2.0702,-1.987,-1.88,-1.8506,-1.9343,-1.9256,-1.9495,-2.0298,-2.026,-2.0191,-2.0302,-2.0325,-2.036,-2.0446,-2.0311,-2.0204,-2.0196,-2.0017,-1.992,-1.9946,-1.9903,-1.9772,-1.9333,-1.9084,-1.8651,-1.7916,-1.7719,-1.8152,-1.8925,-1.8294,-1.7913,-1.8926,-1.831,-1.7769,-1.8341,-1.8617,-1.9119,-2.0274,-2.0749,-2.115,-2.1735,-2.1898,-2.1982,-2.2027,-2.2027,-2.2073,-2.2135,-2.218,-2.2152,-2.3851,-2.3686,-2.3647,-2.3245,-2.2683,-2.297,-2.2498,-2.1506,-2.122,-2.0756,-2.0139,-1.9775,-1.9517,-1.9406,-1.9428,-1.9465,-1.9538,-1.9574,-1.9574,-1.9574,-1.9574,-1.9487,-1.9325,-1.9339,-1.9302,-1.9288,-1.9258,-1.9273,-1.9362,-1.9717,-1.9803,-1.9588,-1.9155,-1.886,-1.8601,0.0,0.0,0.0,-1.754,-1.7872,-1.7872,-1.776,-1.7727,-1.7768,-1.7071,0.0,-1.6815,-1.6584,-1.652,-1.6674,-1.6897,0.0,0.0,0.0,0.0,0.0,0.0,0.0,0.0,0.0,0.0,0.0,-2.0353,-2.0264,-2.0174,-2.0153,-2.0338,-2.0806,-2.0142,-2.0079,-2.0994,-2.036,-2.0228,-2.096,-2.0382,-1.9891,-1.9883,-1.9942,-2.0144,-2.0716,-2.0773,-2.072,-2.0682,-2.0682,-2.0655,-2.0495,-2.0572,-2.0522,-2.035,-1.9807,-1.9406,-1.9197,-1.8667,-1.8419,-1.8658,-1.8087,-1.7681,-1.783,-1.7771,-1.7579,-1.7802,-1.8268,-1.8626,-1.9193,-1.9974,-2.0822,-2.105,-2.1511,-2.194,-2.1998,-2.1998,-2.2027,-2.2027,-2.2027,-2.2027,-2.3337,-2.2799,-2.2748,-2.2287,0.0,-2.1515,-2.1123,-2.0594,-2.0498,-1.9964,-1.9244,-1.9395,-1.9394,-1.9265,-1.9265,-1.9302,-1.9354,-1.9354,-1.9339,-1.9354,-1.9339,-1.9302,-1.9176,-1.9176,-1.9288,-1.9398,-1.9213,-1.9176,-1.9384,-1.9457,-1.9442,-1.9508,-1.9016,-1.8823,-1.8861,-1.7827,-1.7,-1.6479,-1.7077,-1.747,-1.7549,-1.748,-1.7588,-1.7812,-1.7572,0.0,0.0,0.0,0.0,0.0,0.0,0.0,0.0,-1.8974,0.0,-1.9746,-2.0329,-2.0603,-2.0574,-2.0631,-2.082,-2.1126,-2.1271,-2.1344,-2.1334,-2.0763,-2.0642,-2.1156,-2.0458,-2.0297,-2.1105,-2.0771,-2.075,-2.1423,-2.1083,-2.0788,-2.0732,-2.0761,-2.0922,-2.1249,-2.1349,-2.1321,-2.1309,-2.1321,-2.1138,-2.0766,-2.0716,-2.0716,-2.0699,-2.039,-2.0058,-1.9684,-1.932,-1.9187,-1.9412,-1.865,-1.8153,-1.8369,-1.7963,-1.7697,-1.7946,-1.8278,-1.8726,-1.9465,-2.0235,-2.0799,-2.1259,-2.1608,-2.1869,-2.1899,-2.1882,-2.1732,-2.1494,-2.1673,-2.1824,-2.2678,-2.174,-2.1508,-2.0951,-2.0335,-2.008,-1.994,-1.9826,-1.9761,0.0,0.0,-1.896,-1.9103,-1.9003,-1.8988,-1.9064,-1.9139,-1.9153,-1.9139,-1.9139,-1.9139,-1.9101,-1.9116,-1.9116,-1.9288,-1.9581,-1.925,-1.9273,-1.9566,-1.925,-1.925,-1.9522,-1.898,-1.8787,-1.8943,-1.8338,-1.7502,-1.6591,-1.6889,-1.7187,-1.7407,-1.7476,-1.7722,-1.8199,-1.8226,-1.8134,-1.7984,-1.82,-1.7963,-1.731,-1.8026,-1.85,-1.8559,-1.9642,-2.0283,-2.0375,-2.092,-2.131,-2.1356,-2.1511,-2.165,-2.1738,-2.189,-2.2032,-2.2275,-2.1513,-2.1122,-2.1349,-2.0585,-2.0383,-2.095,-2.0988,-2.118,-2.1702,-2.1768,-2.1721,-2.1678,-2.1708,-2.1702,-2.1768,-2.1735,-2.1751,-2.1718,-2.1658,-2.1381,-2.0755,-2.0488,-2.0418,-2.0414,-2.0562,-2.0578,-2.0017,-1.9568,-1.9635,-2.0146,-1.9151,-1.864,-1.896,-1.8251,-1.7798,-1.8087,-1.8433,-1.9052,-1.986,-2.0439,-2.0931,-2.145,-2.1665,-2.1731,-2.1615,-2.1582,-2.1383,-2.0771,-2.1126,-2.1437,-2.3199,-2.2583,-2.2014,-2.1409,-2.0767,-2.0244,-1.9674,-1.9133,-1.9154,-1.8817,-1.8275,-1.8226,-1.8342,-1.8577,-1.8577,-1.8836,-1.9265,-1.9265,-1.9265,-1.9265,-1.925,-1.9228,-1.9101,-1.9116,-1.9139,-1.9176,-1.9153,-1.9139,-1.9176,-1.9139,-1.9139,-1.9161,-1.9074,-1.8819,-1.835,-1.7896,-1.758,-1.7432,-1.8197,-1.8616,-1.8648,-1.8809,-1.8935,-1.9013,-1.8821,-1.8699,-1.867,-1.8712,-1.8665,-1.854,-1.8665,-1.8815,-1.9018,-1.9761,-2.0302,-2.0495,-2.1133,-2.1559,-2.1542,-2.1589,-2.162,-2.1603,-2.165,-2.1724,-2.1869,-2.174,-2.1648,-2.1543,-2.1351,-2.1371,-2.1486,-2.1453,-2.1456,-2.1601,-2.1603,-2.162,-2.1589,-2.1589,-2.1573,-2.1573,-2.165,-2.1603,-2.1573,-2.1308,-2.0877,-2.0313,-1.9967,-1.9561,-1.9383,-2.0249,-2.094,-2.056,-1.9574,-1.9343,-1.9758,-1.8546,-1.7815,-1.8172,-1.8129,-1.7763,-1.7594,-1.8335,-1.9018,-1.892,-1.9992,-2.0699,-2.0936,-2.1367,-2.1495,-2.1147,-2.0981,-2.0737,-2.0058,-2.039,-2.0815,-2.2968,-2.2579,-2.1737,-2.1174,-2.0721,-2.0166,-1.956,-1.9045,-1.9032,-1.8678,-1.8131,-1.8296,-1.8425,-1.8528,-1.8745,-1.8936,-1.9176,-1.9191,-1.9191,-1.9176,-1.9191,-1.9191,-1.9101,-1.9116,-1.9116,-1.9116,-1.9116,-1.9116,-1.9116,-1.9116,-1.9116,-1.9116,-1.9116,-1.8956,-1.8695,-1.8504,-1.8414,-1.8399,-1.8459,-1.8477,-1.8444,-1.8541,-1.8685,-1.8874,-1.9168,-1.9238,-1.9033,-1.9457,-1.9506,-1.9061,-1.9444,-1.9699,-1.9761,-2.0406,-2.0839,-2.0931,-2.124,-2.1419,-2.145,-2.1481,-2.1433,-2.1293,-2.1293,-2.1182,-2.0991,-2.1432,-2.1664,-2.162,-2.1589,-2.1589,-2.1589,-2.1402,-2.1324,-2.1481,-2.1214,-2.1055,-2.1166,-2.1055,-2.1007,-2.0991,-2.1007,-2.0991,-2.0991,-2.0861,-2.0478,-1.9862,-1.9515,-1.9216,-1.8777,-1.9696,-2.0316,-1.9767,-1.9404,-1.9307,-1.9347,-1.8335,-1.7775,-1.8263,-1.8028,-1.8028,-1.8231,-1.894,-1.9285,-1.9882,-2.043,-2.082,-2.1151,-2.1532,-2.1446,-2.0965,-2.1069,-2.0837,-2.0031,-1.9882,-2.0356,-2.2725,-2.2464,-2.1445,-2.0835,-2.0479,-1.9987,-1.9572,-1.9158,-1.9083,-1.8659,-1.8131,-1.8319,-1.8384,-1.8386,-1.8669,-1.8946,-1.9228,-1.9243,-1.9315,-1.9431,-1.9353,-1.9281,-1.9266,-1.9174,-1.9116,-1.9116,-1.9116,-1.9116,-1.9116,-1.9116,-1.9116,-1.9116,-1.9116,-1.9116,-1.9116,-1.9116,-1.9116,-1.908,-1.8604,-1.8329,-1.8329,-1.8427,-1.8588,-1.8858,-1.9515,-1.9735,-1.9501,-2.0086,-2.0164,-1.9634,-2.0148,-2.0515,-2.0548,-2.1017,-2.1294,-2.1294,-2.1294,-2.1294,-2.1294,-2.1294,-2.1183,-2.0975,-2.0877,-2.0679,-2.0382,-2.0878,-2.1309,-2.1277,-2.1246,-2.1246,-2.1198,-2.1023,-2.091,-2.1087,-2.0698,-2.0548,-2.0681,-2.0548,-2.0447,-2.0431,-2.0447,-2.0431,-2.0398,-2.0379,-2.0014,-1.9311,-1.8774,-1.84,-1.847,-1.8981,-1.8992,-1.8716,-1.889,-1.9155,-1.8701,-1.7883,-1.7616,-1.8108,-1.784,-1.7889,-1.8543,-1.8756,-1.9233,-2.0108,-2.0448,-2.0655,-2.1236,-2.1562,-2.1361,-2.0891,-2.0994,-2.0911,-1.9894,-1.9682,-2.0139,-2.2774,-2.2259,-2.1687,-2.0803,-1.9899,-1.9811,-1.9748,-1.9648,-1.9183,-1.8694,-1.8197,-1.7693,-1.7674,-1.7842,-1.7895,-1.8627,-1.9775,-1.9681,-1.9981,-2.0411,-2.0062,-1.9843,-1.9785,-1.9382,-1.9116,-1.9145,-1.9174,-1.9217,-1.9217,-1.9145,-1.913,-1.9116,-1.9116,-1.9116,-1.9116,-1.9116,-1.9116,-1.9116,-1.9022,-1.9001,-1.9038,-1.9352,-1.9566,-1.9617,-1.9967,-2.0169,-2.0066,-2.0187,-2.0371,-2.0605,-2.0686,-2.0894,-2.1149,-2.1293,-2.1294,-2.1294,-2.1294,-2.1294,-2.1277,-2.1021,-2.0842,-2.0794,-2.0485,-2.0257,-2.0189,-2.0277,-2.0311,-2.0361,-2.0345,-2.0413,-2.0311,-2.0311,-2.0311,-2.0413,-2.0277,-2.0243,-2.0243,-2.0243,-2.0208,-2.0208,-2.0174,-2.0224,-2.0139,-1.9899,-1.9405,-1.8652,-1.7397,-1.6848,-1.7573,-1.7812,-1.8003,-1.7663,-1.7685,-1.8047,-1.8383,-1.7394,-1.6874,-1.7134,-1.7195,-1.7364,-1.7654,-1.7976,-1.8331,-1.9139,-1.942,-1.9951,-2.0487,-2.0821,-2.1138,-2.057,-2.0384,-2.0213,-1.9795,-1.967,-2.0251,-2.3012,-2.2686,-2.1506,-2.0363,-1.9409,-1.9346,-1.9522,-1.9761,-1.9585,-1.9121,-1.8596,-1.8394,-1.8299,-1.8314,-1.8765,-1.9503,-2.0353,-2.0312,-2.0441,-2.0669,-2.0536,-2.0421,-2.0419,-2.0324,-2.0219,-2.0219,-2.0219,-2.0219,-2.0161,-1.987,-1.9696,-1.9638,-1.9304,-1.9116,-1.9116,-1.9116,-1.9116,-1.9116,-1.9116,-1.9116,-1.9101,-1.925,-1.9457,-1.969,-1.9854,-2.0015,-2.0174,-2.0208,-2.0292,-2.0462,-2.0679,-2.086,-2.099,-2.1183,-2.1294,-2.1294,-2.1119,-2.1023,-2.099,-2.0662,-2.0357,-2.017,-2.0021,-1.9807,-1.9551,-1.9566,-1.9551,-1.9588,-1.9929,-2.0208,-2.0174,-2.0015,-1.998,-2.0104,-1.9839,-1.9675,-1.9889,-1.9696,-1.9551,-1.9551,-1.9551,-1.9551,-1.9507,-1.911,-1.8819,-1.86,-1.765,-1.7316,-1.8143,-1.8077,-1.8054,-1.8121,-1.7486,-1.6975,-1.7379,-1.6965,-1.6652,-1.7024,-1.7294,-1.7354,-1.7727,-1.7783,-1.8111,-1.8605,-1.8889,-1.9421,-2.0369,-2.0241,-2.0238,-1.9812,-1.9525,-1.9351,-1.9688,-1.972,-2.0193,-2.2786,-2.2686,-2.143,-2.0351,-1.9484,-1.9296,-1.9447,-1.9773,-1.9798,-1.9459,-1.8896,-1.9071,-1.9032,-1.8981,-1.951,-2.0184,-2.0926,-2.0955,-2.1026,-2.1169,-2.1154,-2.1081,-2.1081,-2.1019,-2.1003,-2.0961,-2.0973,-2.0973,-2.0944,-2.0541,-2.0295,-2.0248,-1.9696,-1.9391,-1.9362,-1.9217,-1.9116,-1.9116,-1.9116,-1.9116,-1.9116,-1.9116,-1.925,-1.9508,-1.953,-1.9639,-1.9894,-1.9894,-1.9965,-2.0085,-2.0342,-2.0545,-2.0646,-2.0877,-2.1007,-2.0974,-2.0763,-2.0646,-2.0646,-2.0261,-1.9965,-1.9711,-1.9617,-1.9435,-1.9176,-1.9116,-1.9116,-1.9176,-1.9588,-1.9859,-1.9874,-1.966,-1.9675,-1.9823,-1.9384,-1.9236,-1.9457,-1.925,-1.9139,-1.9116,-1.9176,-1.9116,-1.9029,-1.8637,-1.8419,-1.8869,-1.8404,-1.8259,-1.8811,-1.8579,-1.8346,-1.8738,-1.7592,-1.6899,-1.6644,-1.63,-1.6547,-1.6796,-1.6946,-1.7069,-1.7817,-1.7632,-1.7807,-1.8065,-1.8267,-1.8734,-1.9622,-1.9656,-1.939,-1.884,-1.8621,-1.8685,-1.8952,-1.9248,-1.9654,-2.187,-2.2221,-2.1681,-2.1041,-2.0526,-1.9949,-1.9761,-1.9798,-1.9798,-1.951,-1.9108,-1.9382,-1.9548,-1.9547,-1.9515,-2.024,-2.1541,-2.148,-2.1719,-2.2224,-2.1929,-2.1773,-2.1729,-2.1265,-2.099,-2.1009,-2.115,-2.1133,-2.109,-2.0849,-2.0821,-2.0915,-2.0349,-2.0045,-1.9928,-1.9435,-1.9116,-1.9116,-1.9116,-1.9116,-1.9116,-1.9116,-1.9101,-1.9176,-1.9139,-1.9176,-1.9176,-1.9176,-1.931,-1.9711,-1.9782,-1.9925,-2.0189,-2.0277,-2.0326,-2.0277,-2.0243,-2.0208,-2.0174,-1.9899,-1.9687,-1.9639,-1.9347,-1.9153,-1.9101,-1.9116,-1.9116,-1.9116,-1.9176,-1.925,-1.925,-1.925,-1.9176,-1.9213,-1.9176,-1.9139,-1.9139,-1.9153,-1.9116,-1.9116,-1.9116,-1.9116,-1.9087,-1.8579,-1.8535,-1.8695,-1.8071,-1.7766,-1.8709,-1.8593,-1.8317,-1.8274,-1.8071,-1.7853,-1.72,-1.6407,-1.5987,-1.6262,-1.6512,-1.6091,-1.6291,-1.6608,-1.714,-1.7529,-1.7703,-1.8128,-1.8857,-1.9021,-1.8701,-1.8377,-1.8254,-1.8315,-1.8127,-1.8477,-1.8925,-2.1707,-2.1242,-2.1054,-2.0639,-2.0075,-1.9535,-1.9497,-1.9786,-1.9798,-1.9659,-1.9483,-1.9633,-1.9851,-2.0099,-2.0064,-2.0452,-2.1246,-2.1213,-2.1336,-2.1595,-2.1792,-2.1953,-2.1956,-2.2028,-2.2134,-2.2089,-2.2119,-2.2163,-2.2135,-2.1801,-2.1599,-2.1525,-2.0988,-2.0509,-2.0132,-1.987,-1.9551,-1.9159,-1.9116,-1.9116,-1.9116,-1.9116,-1.9116,-1.9116,-1.9116,-1.9116,-1.9116,-1.9116,-1.9176,-1.9325,-1.9545,-1.9747,-1.9889,-2.0085,-2.0208,-2.0174,-2.0015,-1.9889,-1.9839,-1.9551,-1.9332,-1.931,-1.9213,-1.9116,-1.9116,-1.9116,-1.9116,-1.9116,-1.9116,-1.9116,-1.9116,-1.9116,-1.9116,-1.9116,-1.9116,-1.9116,-1.9116,-1.9116,-1.9116,-1.9116,-1.9116,-1.9116,-1.8962,-1.8579,-1.8462,-1.8883,-1.8361,-1.8332,-1.8738,-1.8579,-1.823,-1.8114,-1.7838,-1.749,-1.7301,-1.6503,-1.6085,-1.6419,-1.6579,-1.6564,-1.6677,-1.6837,-1.7325,-1.7271,-1.7305,-1.7526,-1.8233,-1.7815,-1.7591,-1.7243,-1.7167,-1.747,-1.7176,-1.7909,-1.8335,-2.1719,-2.1217,-2.1016,-2.0715,-2.0288,-1.9572,-1.9484,-1.9798,-1.9798,-1.9759,-1.9708,-1.9759,-1.9952,-2.0169,-2.0207,-2.0475,-2.0895,-2.0987,-2.1077,-2.1215,-2.1987,-2.2323,-2.246,-2.3112,-2.3461,-2.3357,-2.3123,-2.2982,-2.2873,-2.2482,-2.2279,-2.2265,-2.1641,-2.1133,-2.0727,-2.0335,-1.9841,-1.9464,-1.9217,-1.9116,-1.9116,-1.9116,-1.9116,-1.9116,-1.9116,-1.9116,-1.9116,-1.9116,-1.9116,-1.9139,-1.9362,-1.9493,-1.953,-1.9732,-1.9823,-1.9839,-1.9639,-1.9493,-1.9472,-1.925,-1.9101,-1.9101,-1.9116,-1.9116,-1.9116,-1.9116,-1.9116,-1.9116,-1.9116,-1.9116,-1.9116,-1.9116,-1.9116,-1.9116,-1.9116,-1.9116,-1.9116,-1.9116,-1.9026,-1.8912,-1.886,-1.8822,-1.8679,-1.8314,-1.8351,-1.8831,-1.8539,-1.8561,-1.889,-1.8782,-1.8259,-1.7969,-1.7766,-1.7505,-1.7316,-1.6793,-1.6779,-1.7113,-1.6895,-1.6924,-1.6967,-1.7142,-1.7113,-1.7011,-1.7067,-1.7225,-1.7102,-1.6677,-1.6293,-1.5934,-1.6218,-1.6683,-1.6967,-1.758,-1.7762,-2.1845,-2.2121,-2.1707,-2.1405,-2.1192,-2.0175,-1.9786,-1.9798,-1.9798,-1.9798,-1.9747,-1.9798,-1.9811,-1.985,-1.985,-2.0152,-2.0678,-2.0933,-2.1158,-2.1453,-2.2456,-2.2951,-2.3077,-2.4089,-2.4457,-2.4365,-2.3808,-2.3267,-2.2902,-2.2799,-2.274,-2.2743,-2.228,-2.1873,-2.1888,-2.0727,-2.0117,-1.9841,-1.9362,-1.9116,-1.9116,-1.9116,-1.9116,-1.9116,-1.9116,-1.9116,-1.9116,-1.9116,-1.9116,-1.9116,-1.9139,-1.9116,-1.9139,-1.9176,-1.9139,-1.9213,-1.9139,-1.9101,-1.9139,-1.9153,-1.9116,-1.9116,-1.9116,-1.9116,-1.9116,-1.9064,-1.9026,-1.9026,-1.8988,-1.9011,-1.8974,-1.8988,-1.9026,-1.9116,-1.9116,-1.9101,-1.9064,-1.9064,-1.895,-1.8592,-1.8475,-1.8305,-1.7948,-1.792,-1.8171,-1.8458,-1.8559,-1.8646,-1.9011,-1.8999,-1.8506,-1.7809,-1.7795,-1.7998,-1.7592,-1.7243,-1.7592,-1.7789,-1.7374,-1.7142,-1.7113,-1.72,-1.6895,-1.6735,-1.6615,-1.6757,-1.6555,-1.6218,-1.604,-1.5801,-1.6009,-1.6099,-1.6412,-1.6815,-1.6919,-2.2498,-2.2259,-2.1719,-2.1481,-2.1343,-2.0275,-1.9798,-1.9798,-1.9798,-1.9798,-1.9798,-1.9708,-1.9708,-1.9747,-1.9708,-2.002,-2.0643,-2.045,-2.0669,-2.1522,-2.226,-2.2785,-2.3238,-2.3825,-2.4113,-2.3914,-2.3324,-2.2982,-2.2886,-2.2857,-2.2902,-2.283,-2.2685,-2.2149,-2.1409,-2.0901,-2.0364,-1.9478,-1.9217,-1.9116,-1.9116,-1.9116,-1.9116,-1.9101,-1.904,-1.9055,-1.9116,-1.9116,-1.9116,-1.9116,-1.9116,-1.9116,-1.9116,-1.9116,-1.9116,-1.9116,-1.9116,-1.9116,-1.9116,-1.9116,-1.9116,-1.9116,-1.9116,-1.9116,-1.9064,-1.8731,-1.8616,-1.8616,-1.833,-1.808,-1.8187,-1.8201,-1.8461,-1.9026,-1.9101,-1.8936,-1.8707,-1.8422,-1.8187,-1.8082,-1.8042,-1.7962,-1.7922,-1.7948,-1.8187,-1.8383,-1.863,-1.8898,-1.9026,-1.8988,-1.8854,-1.8114,-1.8404,-1.8303,-1.7675,-1.7403,-1.7741,-1.7849,-1.7525,-1.6958,-1.6963,-1.7219,-1.6872,-1.6413,-1.6276,-1.6122,-1.5934,-1.5802,-1.5654,-1.5758,-1.5965,-1.5936,-1.5802,-1.5965,-1.6322,-2.2749,-2.256,-2.202,-2.1794,-2.1694,-2.0803,-2.0373,-2.0282,-2.016,-2.0072,-1.9982,-1.9743,-1.9656,-1.9759,-1.9708,-2.021,-2.0865,-2.0536,-2.0907,-2.182,-2.1892,-2.2233,-2.2857,-2.3747,-2.3834,-2.3507,-2.3313,-2.3103,-2.2888,-2.2888,-2.2888,-2.2888,-2.2888,-2.2526,-2.1699,-2.1206,-2.0538,-1.9827,-1.9348,-1.9116,-1.9116,-1.9116,-1.9116,-1.9116,-1.904,-1.9078,-1.9116,-1.9116,-1.9116,-1.9116,-1.9116,-1.9116,-1.9116,-1.9116,-1.9116,-1.9116,-1.9116,-1.9116,-1.9116,-1.9116,-1.8988,-1.8874,-1.8798,-1.8707,-1.8592,-1.8226,-1.8147,-1.8121,-1.7908,-1.7652,-1.7747,-1.7747,-1.8028,-1.8539,-1.8577,-1.85,-1.8187,-1.7948,-1.772,-1.7598,-1.7557,-1.7516,-1.7462,-1.7503,-1.7814,-1.7988,-1.8226,-1.85,-1.8553,-1.8592,-1.8314,-1.8241,-1.8407,-1.8098,-1.7562,-1.7591,-1.7888,-1.7811,-1.7591,-1.6894,-1.6477,-1.7092,-1.7141,-1.617,-1.5762,-1.5538,-1.5355,-1.5417,-1.5374,-1.5637,-1.5754,-1.5638,-1.5521,-1.5905,-1.6157,-2.2673,-2.305,-2.2535,-2.2272,-2.2196,-2.1631,-2.1287,-2.1107,-2.0722,-2.0486,-2.0374,-1.9952,-1.9756,-1.9822,-1.9758,-2.0282,-2.1237,-2.1045,-2.1485,-2.2106,-2.1941,-2.1663,-2.2385,-2.3755,-2.3965,-2.3322,-2.3464,-2.3349,-2.2766,-2.2692,-2.2783,-2.2692,-2.2646,-2.274,-2.2144,-2.1441,-2.0777,-2.0417,-1.9561,-1.904,-1.9078,-1.9116,-1.9116,-1.9116,-1.9078,-1.9078,-1.9116,-1.9116,-1.9116,-1.9116,-1.9116,-1.9116,-1.9116,-1.9116,-1.9116,-1.9116,-1.9116,-1.9116,-1.9116,-1.8988,-1.8836,-1.8422,-1.8305,-1.8108,-1.7828,-1.7707,-1.7625,-1.7679,-1.7544,-1.7544,-1.7544,-1.7544,-1.7625,-1.7707,-1.7787,-1.7747,-1.7598,-1.7652,-1.7421,-1.7131,-1.706,-1.7018,-1.668,-1.6723,-1.6934,-1.7186,-1.7434,-1.772,-1.7882,-1.7999,-1.7779,-1.7896,-1.8201,-1.7903,-1.7362,-1.7348,-1.7501,-1.6936,-1.6959,-1.6655,-1.5972,-1.6501,-1.667,-1.575,-1.528,-1.5,-1.4876,-1.4968,-1.5013,-1.5068,-1.5143,-1.5179,-1.531,-1.5543,-1.5724,-2.294,-2.3075,-2.2535,-2.2322,-2.2234,-2.1719,-2.1506,-2.1412,-2.112,-2.094,-2.0841,-2.0353,-1.999,-2.0056,-1.9685,-2.0118,-2.0822,-2.068,-2.1087,-2.1947,-2.1423,-2.1792,-2.2685,-2.3578,-2.3741,-2.3077,-2.2771,-2.2587,-2.237,-2.2063,-2.1846,-2.1799,-2.186,-2.1578,-2.0988,-2.0429,-1.9893,-1.9682,-1.9069,-1.8788,-1.8993,-1.904,-1.9078,-1.9017,-1.9017,-1.9003,-1.9078,-1.9116,-1.9116,-1.9116,-1.9116,-1.9116,-1.9116,-1.9116,-1.9078,-1.9064,-1.9064,-1.9064,-1.9011,-1.8707,-1.8436,-1.8305,-1.7894,-1.768,-1.7558,-1.716,-1.7089,-1.7089,-1.6892,-1.668,-1.6808,-1.685,-1.685,-1.6892,-1.7144,-1.7297,-1.716,-1.6964,-1.6765,-1.6693,-1.668,-1.665,-1.6607,-1.6735,-1.6989,-1.7157,-1.7365,-1.7557,-1.7585,-1.7652,-1.7545,-1.7719,-1.7853,-1.7552,-1.7293,-1.7224,-1.6905,-1.6142,-1.6079,-1.6282,-1.5681,-1.5456,-1.5229,-1.4579,-1.48,-1.4655,-1.4564,-1.4564,-1.4564,-1.4578,-1.4578,-1.461,-1.4592,-1.4735,-1.4955,-2.3125,-2.3053,-2.2786,-2.2661,-2.2623,-2.2309,-2.2126,-2.191,-2.1386,-2.1087,-2.0871,-2.0153,-1.978,-1.9797,-1.9568,-1.9887,-2.052,-2.0269,-2.0814,-2.1802,-2.1839,-2.1993,-2.2429,-2.2831,-2.2834,-2.2415,-2.2021,-2.1916,-2.1813,-2.1513,-2.1417,-2.1417,-2.1417,-2.1179,-2.0955,-2.0238,-1.9867,-1.9649,-1.9017,-1.8669,-1.8789,-1.8574,-1.8461,-1.845,-1.845,-1.8475,-1.8539,-1.8745,-1.8898,-1.9064,-1.9116,-1.9116,-1.9116,-1.9116,-1.9026,-1.8822,-1.8731,-1.8693,-1.8408,-1.8133,-1.7854,-1.7652,-1.7284,-1.7063,-1.6854,-1.6539,-1.6497,-1.6595,-1.6306,-1.6262,-1.6318,-1.6405,-1.6362,-1.6392,-1.665,-1.6808,-1.6752,-1.6637,-1.6509,-1.6479,-1.6479,-1.6534,-1.6534,-1.6778,-1.6863,-1.6934,-1.7018,-1.7131,-1.7173,-1.7269,-1.7352,-1.7475,-1.7557,-1.7303,-1.7183,-1.713,-1.6798,-1.601,-1.5464,-1.5697,-1.5207,-1.466,-1.4312,-1.408,-1.4254,-1.431,-1.4149,-1.4084,-1.4149,-1.413,-1.4078,-1.4124,-1.4189,-1.4189,-1.4356,-2.2884,-2.2896,-2.2944,-2.3005,-2.2932,-2.3005,-2.2845,-2.2504,-2.1608,-2.1076,-2.0799,-1.9806,-1.9531,-1.9442,-1.9295,-1.9556,-2.0147,-2.0048,-2.0909,-2.1842,-2.2427,-2.253,-2.197,-2.2304,-2.2126,-2.1654,-2.1448,-2.138,-2.1313,-2.1224,-2.1161,-2.1064,-2.1126,-2.1161,-2.0815,-2.0448,-2.0281,-1.9959,-1.9131,-1.8609,-1.8448,-1.8125,-1.7923,-1.7774,-1.7828,-1.7828,-1.7935,-1.8187,-1.85,-1.8898,-1.9026,-1.904,-1.9026,-1.8988,-1.8745,-1.833,-1.8212,-1.804,-1.7626,-1.7504,-1.7229,-1.6921,-1.671,-1.6466,-1.6163,-1.6076,-1.612,-1.6231,-1.6088,-1.6144,-1.6231,-1.6244,-1.6188,-1.6175,-1.6306,-1.6349,-1.6392,-1.6436,-1.6479,-1.6436,-1.6479,-1.6479,-1.6534,-1.6534,-1.6534,-1.6693,-1.6765,-1.6765,-1.6808,-1.685,-1.6947,-1.7073,-1.7115,-1.7115,-1.7076,-1.7063,-1.6638,-1.6074,-1.5375,-1.5107,-1.4579,-1.4111,-1.3732,-1.3565,-1.3782,-1.3735,-1.3547,-1.3547,-1.3702,-1.3749,-1.3695,-1.3861,-1.404,-1.3894,-1.3967,-2.1514,-2.1565,-2.2113,-2.2249,-2.2261,-2.2714,-2.2848,-2.2579,-2.1762,-2.1302,-2.1226,-2.0292,-1.9764,-1.9728,-1.9018,-1.9005,-1.9824,-2.0008,-2.0912,-2.2588,-2.293,-2.299,-2.272,-2.2783,-2.2289,-2.1642,-2.1419,-2.118,-2.0814,-2.0446,-2.0144,-2.0194,-2.0295,-2.0144,-2.0117,-1.9782,-1.9448,-1.9499,-1.8995,-1.8493,-1.8284,-1.809,-1.779,-1.7432,-1.7435,-1.7517,-1.7558,-1.768,-1.776,-1.8014,-1.8514,-1.876,-1.8539,-1.8394,-1.812,-1.7801,-1.768,-1.7598,-1.7435,-1.7076,-1.685,-1.668,-1.6306,-1.5969,-1.5881,-1.5957,-1.6001,-1.6044,-1.61,-1.6188,-1.6275,-1.6132,-1.6132,-1.6175,-1.6163,-1.6132,-1.6219,-1.6392,-1.6479,-1.6479,-1.6479,-1.6534,-1.6534,-1.6534,-1.6534,-1.6534,-1.6534,-1.6534,-1.6534,-1.6534,-1.662,-1.6833,-1.682,-1.682,-1.6769,-1.6693,-1.6316,-1.5939,-1.5331,-1.4739,-1.4179,-1.3932,-1.3712,-1.3478,-1.3335,-1.3232,-1.3232,-1.3232,-1.3425,-1.3369,-1.3335,-1.3506,-1.3607,-1.356,-1.3594,-2.1376,-2.1123,-2.1342,-2.1401,-2.1275,-2.1497,-2.1499,-2.1093,-2.0488,-2.0205,-2.0098,-1.9468,-1.9026,-1.8826,-1.8755,-1.8898,-1.9199,-1.9999,-2.0909,-2.2058,-2.2633,-2.3017,-2.31,-2.301,-2.2521,-2.1565,-2.1168,-2.0758,-2.0297,-2.0003,-1.985,-1.9798,-1.9798,-1.9901,-1.9798,-1.9484,-1.9434,-1.9384,-1.8929,-1.8462,-1.8304,-1.7778,-1.7326,-1.6867,-1.6824,-1.6909,-1.6879,-1.7076,-1.7146,-1.7312,-1.7814,-1.8147,-1.7961,-1.7867,-1.7585,-1.7229,-1.7105,-1.6951,-1.6697,-1.6454,-1.6306,-1.6293,-1.5957,-1.5881,-1.5792,-1.5881,-1.5944,-1.5988,-1.6001,-1.6057,-1.61,-1.6013,-1.6001,-1.6044,-1.6044,-1.6044,-1.6132,-1.6318,-1.6436,-1.6479,-1.6479,-1.6479,-1.6534,-1.6479,-1.6534,-1.6534,-1.6479,-1.6479,-1.6534,-1.6534,-1.6534,-1.662,-1.6577,-1.6552,-1.6489,-1.6288,-1.5976,-1.5633,-1.5218,-1.4651,-1.412,-1.3945,-1.3858,-1.3581,-1.3232,-1.3232,-1.321,-1.321,-1.321,-1.3245,-1.3279,-1.3245,-1.3245,-1.3369,-1.3404,-2.1416,-2.0805,-2.0719,-2.0488,-2.0216,-2.0232,-1.9992,-1.9502,-1.8735,-1.8702,-1.8453,-1.829,-1.7954,-1.7733,-1.8356,-1.8464,-1.8771,-1.9606,-2.0626,-2.116,-2.2043,-2.2531,-2.2798,-2.2722,-2.2414,-2.1518,-2.1121,-2.0567,-2.0026,-1.9798,-1.9798,-1.9798,-1.9798,-1.9798,-1.9759,-1.9656,-1.9542,-1.9403,-1.8992,-1.8559,-1.8313,-1.7604,-1.6981,-1.6382,-1.6212,-1.6231,-1.6262,-1.6466,-1.6625,-1.6655,-1.6951,-1.7105,-1.7216,-1.7312,-1.7146,-1.6582,-1.6539,-1.638,-1.6132,-1.5913,-1.5881,-1.5792,-1.5792,-1.5792,-1.5792,-1.5748,-1.5691,-1.568,-1.5635,-1.5558,-1.5691,-1.5513,-1.5603,-1.578,-1.5901,-1.5901,-1.5988,-1.6175,-1.6306,-1.6405,-1.6448,-1.6491,-1.6479,-1.6479,-1.6479,-1.6479,-1.6423,-1.638,-1.6392,-1.6262,-1.612,-1.5976,-1.5844,-1.5988,-1.5983,-1.5673,-1.5401,-1.5184,-1.4887,-1.4387,-1.3887,-1.3735,-1.3571,-1.3433,-1.321,-1.321,-1.321,-1.321,-1.321,-1.321,-1.321,-1.321,-1.321,-1.321,-1.3232,-2.0031,-1.9462,-1.9835,-1.9748,-1.9482,-1.9789,-1.9587,-1.9242,-1.8447,-1.8326,-1.8237,-1.7701,-1.7379,-1.7379,-1.7424,-1.7801,-1.8408,-1.9252,-1.9899,-2.0461,-2.1275,-2.1806,-2.2298,-2.2384,-2.2048,-2.1618,-2.1242,-2.0702,-1.9999,-1.9798,-1.9798,-1.9798,-1.9849,-1.9809,-1.9668,-1.9629,-1.951,-1.9328,-1.9105,-1.8782,-1.8379,-1.7979,-1.7352,-1.6556,-1.6146,-1.5953,-1.5893,-1.5925,-1.5957,-1.5969,-1.5988,-1.6076,-1.6238,-1.6539,-1.6423,-1.6175,-1.6044,-1.5957,-1.5836,-1.5792,-1.5792,-1.5792,-1.5792,-1.5792,-1.5748,-1.5546,-1.5412,-1.5187,-1.4949,-1.4812,-1.5311,-1.5085,-1.5175,-1.5501,-1.5647,-1.5468,-1.5736,-1.5913,-1.6032,-1.612,-1.6262,-1.6448,-1.6436,-1.6436,-1.6405,-1.6262,-1.6076,-1.5976,-1.592,-1.5611,-1.5266,-1.5119,-1.4926,-1.5209,-1.5421,-1.5073,-1.4743,-1.4578,-1.4269,-1.3816,-1.3468,-1.3351,-1.3223,-1.3176,-1.321,-1.321,-1.321,-1.321,-1.321,-1.321,-1.321,-1.321,-1.321,-1.321,-1.321,-1.9565,-1.8788,-1.8898,-1.8564,-1.8059,-1.8086,-1.7892,-1.7488,-1.7117,-1.7001,-1.7052,-1.6871,-1.6708,-1.6719,-1.7157,-1.759,-1.7979,-1.8609,-1.9222,-1.9878,-2.0726,-2.1516,-2.1981,-2.2092,-2.1885,-2.1537,-2.1124,-2.0557,-1.9783,-1.9759,-1.9747,-1.9783,-1.9957,-1.9942,-1.9701,-1.9768,-1.9536,-1.9279,-1.9105,-1.8943,-1.8578,-1.8374,-1.7652,-1.6834,-1.639,-1.608,-1.5816,-1.5792,-1.5792,-1.5836,-1.5836,-1.5792,-1.5881,-1.5913,-1.6001,-1.5836,-1.5792,-1.5792,-1.5792,-1.5792,-1.5792,-1.5792,-1.5792,-1.5792,-1.5703,-1.5424,-1.5051,-1.4766,-1.4869,-1.472,-1.4801,-1.4858,-1.5232,-1.5412,-1.5424,-1.5379,-1.5412,-1.5501,-1.5534,-1.5623,-1.5901,-1.6132,-1.6318,-1.6318,-1.6331,-1.6144,-1.5768,-1.5579,-1.5421,-1.5028,-1.4582,-1.4571,-1.4479,-1.4663,-1.4858,-1.4573,-1.4281,-1.4064,-1.3811,-1.3359,-1.3083,-1.2983,-1.305,-1.3141,-1.3176,-1.3311,-1.321,-1.321,-1.321,-1.321,-1.321,-1.321,-1.321,-1.321,-1.321,-1.949,-1.8516,-1.8219,-1.7665,-1.6991,-1.6658,-1.6336,-1.5906,-1.5818,-1.5876,-1.5914,-1.6171,-1.6114,-1.6009,-1.657,-1.7134,-1.7267,-1.7942,-1.8383,-1.8903,-1.9795,-2.074,-2.1295,-2.1499,-2.1165,-2.0616,-2.0312,-1.999,-1.9716,-1.9656,-1.9604,-1.9639,-2.0023,-2.0069,-1.9793,-1.989,-1.9672,-1.9431,-1.9209,-1.9131,-1.8891,-1.8446,-1.7772,-1.6811,-1.6678,-1.632,-1.5864,-1.5792,-1.5792,-1.5792,-1.5703,-1.5703,-1.5748,-1.5603,-1.5603,-1.5748,-1.5792,-1.5792,-1.5792,-1.5792,-1.5792,-1.5792,-1.5703,-1.5671,-1.5459,-1.504,-1.4536,-1.4212,-1.4258,-1.4398,-1.4258,-1.472,-1.5006,-1.5051,-1.5142,-1.5232,-1.5006,-1.4915,-1.4846,-1.5073,-1.5501,-1.5635,-1.568,-1.5668,-1.5534,-1.5445,-1.5073,-1.4846,-1.4698,-1.4398,-1.4082,-1.4118,-1.4165,-1.4201,-1.4275,-1.4133,-1.3917,-1.3721,-1.3449,-1.3101,-1.281,-1.2627,-1.2794,-1.3007,-1.3403,-1.3465,-1.3338,-1.3223,-1.321,-1.321,-1.321,-1.321,-1.321,-1.321,-1.321,-1.9683,-1.894,-1.8342,-1.7838,-1.7318,-1.6688,-1.6257,-1.5886,-1.574,-1.574,-1.573,-1.5788,-1.5778,-1.5788,-1.5972,-1.641,-1.6764,-1.7038,-1.7273,-1.7673,-1.8205,-1.8879,-1.9155,-1.9137,-1.9494,-1.9387,-1.9099,-1.9226,-1.9295,-1.9344,-1.9408,-1.9417,-1.954,-1.9613,-1.9841,-1.9916,-1.9879,-1.9739,-1.9636,-1.942,-1.8987,-1.8494,-1.7941,-1.7339,-1.6835,-1.6356,-1.59,-1.5792,-1.5792,-1.5691,-1.5379,-1.5435,-1.557,-1.4915,-1.5096,-1.5513,-1.5792,-1.5792,-1.5748,-1.5659,-1.5635,-1.5546,-1.5379,-1.5234,-1.4925,-1.437,-1.3752,-1.3113,-1.3248,-1.3478,-1.361,-1.3525,-1.3752,-1.4082,-1.4351,-1.4398,-1.4305,-1.4408,-1.4305,-1.4212,-1.4536,-1.4674,-1.4755,-1.4744,-1.4687,-1.456,-1.4433,-1.4247,-1.4025,-1.38,-1.3583,-1.3621,-1.3621,-1.3705,-1.3742,-1.3632,-1.345,-1.3356,-1.3083,-1.2791,-1.2485,-1.2313,-1.2634,-1.2913,-1.3326,-1.358,-1.3453,-1.3338,-1.3261,-1.3298,-1.3411,-1.3336,-1.321,-1.321,-1.321,-1.8627,-1.7905,-1.7595,-1.7175,-1.6706,-1.6374,-1.6153,-1.5886,-1.574,-1.5682,-1.5672,-1.5604,-1.5536,-1.5604,-1.574,-1.5961,-1.6243,-1.6407,-1.6632,-1.7044,-1.7483,-1.8044,-1.8605,-1.8618,-1.8587,-1.8475,-1.8272,-1.8046,-1.8387,-1.8697,-1.8869,-1.8863,-1.9371,-1.9641,-1.9582,-1.977,-1.9607,-1.9462,-1.9287,-1.9215,-1.8999,-1.8722,-1.8241,-1.7411,-1.7135,-1.6584,-1.5963,-1.5792,-1.5659,-1.5468,-1.5153,-1.5006,-1.4915,-1.4582,-1.4536,-1.4812,-1.4949,-1.5085,-1.5277,-1.5142,-1.5062,-1.4937,-1.4778,-1.4569,-1.4251,-1.3852,-1.3382,-1.2968,-1.3162,-1.3248,-1.3344,-1.3525,-1.3658,-1.3847,-1.3847,-1.3847,-1.3836,-1.3836,-1.3847,-1.3658,-1.3573,-1.38,-1.4025,-1.4212,-1.4247,-1.4201,-1.4071,-1.3836,-1.361,-1.3382,-1.321,-1.3075,-1.3065,-1.3113,-1.3152,-1.3178,-1.2946,-1.2832,-1.2677,-1.2382,-1.2069,-1.2047,-1.2417,-1.2781,-1.3188,-1.3346,-1.3435,-1.3752,-1.3987,-1.3849,-1.3674,-1.3574,-1.3483,-1.321,-1.321,-1.7585,-1.6891,-1.6925,-1.6722,-1.6277,-1.6165,-1.6009,-1.5856,-1.573,-1.5672,-1.5604,-1.5546,-1.5478,-1.5536,-1.573,-1.5904,-1.5961,-1.6124,-1.6434,-1.6894,-1.7254,-1.7616,-1.7787,-1.7879,-1.7805,-1.8034,-1.7216,-1.6987,-1.7112,-1.7534,-1.7875,-1.8061,-1.8588,-1.9026,-1.9057,-1.9089,-1.9092,-1.9076,-1.9024,-1.9035,-1.8987,-1.8815,-1.812,-1.7488,-1.7012,-1.6573,-1.5764,-1.5402,-1.5142,-1.5176,-1.4741,-1.4501,-1.4398,-1.4071,-1.4071,-1.4212,-1.4258,-1.4176,-1.4455,-1.449,-1.4343,-1.4286,-1.4086,-1.3958,-1.3525,-1.3382,-1.3344,-1.292,-1.3113,-1.3113,-1.3113,-1.3525,-1.3525,-1.3573,-1.3621,-1.3573,-1.3573,-1.3478,-1.343,-1.3296,-1.321,-1.3113,-1.3344,-1.3668,-1.38,-1.3847,-1.3705,-1.3467,-1.3286,-1.3113,-1.3017,-1.2891,-1.2939,-1.2929,-1.2929,-1.2871,-1.2617,-1.243,-1.2303,-1.2162,-1.2015,-1.2037,-1.234,-1.2678,-1.306,-1.3668,-1.4092,-1.4447,-1.4738,-1.4412,-1.4138,-1.3948,-1.3735,-1.3471,-1.3261,-1.686,-1.6456,-1.6801,-1.6866,-1.6675,-1.6277,-1.5951,-1.5788,-1.573,-1.5604,-1.5478,-1.5604,-1.5672,-1.5798,-1.5894,-1.6009,-1.6056,-1.6306,-1.6368,-1.6446,-1.6503,-1.6655,-1.6754,-1.6655,-1.6389,-1.6284,-1.6134,-1.5951,-1.5816,-1.6415,-1.6866,-1.729,-1.7668,-1.7834,-1.8002,-1.8227,-1.8464,-1.8594,-1.867,-1.8774,-1.8655,-1.8359,-1.7728,-1.6899,-1.6238,-1.5642,-1.5088,-1.4835,-1.4644,-1.4832,-1.4253,-1.3941,-1.3941,-1.3515,-1.3573,-1.38,-1.3515,-1.3525,-1.3716,-1.3988,-1.4201,-1.414,-1.3863,-1.3484,-1.3123,-1.2978,-1.2929,-1.2929,-1.3017,-1.3027,-1.2929,-1.2978,-1.3162,-1.321,-1.3258,-1.321,-1.3162,-1.3113,-1.3075,-1.2929,-1.2891,-1.2891,-1.2939,-1.3258,-1.3392,-1.3392,-1.3392,-1.3162,-1.3113,-1.2978,-1.2978,-1.2891,-1.2891,-1.2939,-1.2939,-1.2803,-1.2744,-1.2529,-1.2296,-1.2217,-1.2148,-1.225,-1.2163,-1.2701,-1.3151,-1.3948,-1.4626,-1.4599,-1.4639,-1.4703,-1.4611,-1.4475,-1.4111,-1.3747,-1.3571,-1.6601,-1.6405,-1.6434,-1.6506,-1.6506,-1.6253,-1.6056,-1.5894,-1.5798,-1.5604,-1.542,-1.5478,-1.5546,-1.5662,-1.5788,-1.5846,-1.5846,-1.6019,-1.6134,-1.6134,-1.6144,-1.6134,-1.6066,-1.6019,-1.5846,-1.573,-1.5604,-1.5478,-1.5526,-1.5748,-1.5806,-1.6197,-1.6754,-1.7211,-1.7487,-1.7462,-1.7677,-1.7745,-1.7889,-1.7941,-1.7875,-1.7731,-1.7211,-1.658,-1.6376,-1.5742,-1.5132,-1.4871,-1.4537,-1.4158,-1.3809,-1.3652,-1.3525,-1.3065,-1.3162,-1.344,-1.3065,-1.3065,-1.3113,-1.3286,-1.3276,-1.3334,-1.3192,-1.3076,-1.2881,-1.2891,-1.2891,-1.2891,-1.2891,-1.2891,-1.2881,-1.2929,-1.2978,-1.2939,-1.2891,-1.2891,-1.2891,-1.2881,-1.2891,-1.2891,-1.2891,-1.2891,-1.2891,-1.2929,-1.2978,-1.2978,-1.2939,-1.2891,-1.2891,-1.2891,-1.2891,-1.2891,-1.2891,-1.2891,-1.2891,-1.2891,-1.2891,-1.2637,-1.2363,-1.2324,-1.2256,-1.189,-1.193,-1.2539,-1.3083,-1.3678,-1.4126,-1.4415,-1.4643,-1.4909,-1.5024,-1.5035,-1.4638,-1.416,-1.3973,-1.6478,-1.6384,-1.6239,-1.6239,-1.6306,-1.6181,-1.6056,-1.5951,-1.5798,-1.5604,-1.542,-1.542,-1.542,-1.5546,-1.5614,-1.573,-1.5788,-1.5904,-1.6009,-1.6019,-1.6019,-1.6009,-1.5961,-1.5904,-1.573,-1.5662,-1.5536,-1.542,-1.542,-1.542,-1.5468,-1.5748,-1.6197,-1.6482,-1.6662,-1.6877,-1.6922,-1.6922,-1.7146,-1.7213,-1.7257,-1.7013,-1.6686,-1.6202,-1.5859,-1.5363,-1.4736,-1.432,-1.4042,-1.3734,-1.3466,-1.322,-1.3027,-1.2891,-1.2881,-1.2832,-1.2832,-1.2832,-1.2783,-1.2754,-1.2695,-1.2832,-1.2881,-1.2891,-1.2881,-1.2891,-1.2891,-1.2891,-1.2891,-1.2881,-1.2832,-1.2832,-1.2783,-1.2735,-1.2783,-1.2832,-1.2832,-1.2832,-1.2881,-1.2891,-1.2891,-1.2881,-1.2881,-1.2881,-1.2832,-1.2891,-1.2891,-1.2891,-1.2891,-1.2891,-1.2891,-1.2891,-1.2891,-1.2891,-1.2891,-1.2891,-1.2881,-1.2832,-1.2588,-1.2471,-1.2305,-1.1998,-1.1959,-1.2563,-1.3083,-1.3372,-1.3708,-1.3987,-1.4596,-1.5234,-1.5313,-1.5383,-1.5189,-1.4765,-1.4601,-1.6394,-1.6374,-1.6384,-1.6249,-1.6114,-1.6114,-1.5951,-1.5788,-1.5672,-1.5546,-1.542,-1.542,-1.5478,-1.5604,-1.5672,-1.573,-1.5788,-1.5856,-1.5961,-1.5951,-1.5904,-1.5951,-1.5951,-1.5836,-1.5672,-1.5604,-1.5536,-1.542,-1.542,-1.542,-1.542,-1.542,-1.5633,-1.569,-1.5584,-1.6026,-1.6301,-1.6368,-1.6866,-1.6978,-1.6866,-1.6528,-1.6119,-1.578,-1.534,-1.4924,-1.432,-1.3872,-1.3611,-1.3402,-1.3224,-1.3018,-1.2881,-1.29,-1.289,-1.2744,-1.2676,-1.2627,-1.2529,-1.2635,-1.2626,-1.2637,-1.2686,-1.2735,-1.2832,-1.2881,-1.2832,-1.2783,-1.2832,-1.2832,-1.2783,-1.2686,-1.2637,-1.2704,-1.2763,-1.2802,-1.2861,-1.2783,-1.2832,-1.2881,-1.2881,-1.2881,-1.2822,-1.2774,-1.2783,-1.2832,-1.2891,-1.2891,-1.2891,-1.2891,-1.2891,-1.2891,-1.2891,-1.2891,-1.2891,-1.2891,-1.2881,-1.291,-1.2764,-1.2568,-1.2549,-1.2432,-1.2547,-1.2801,-1.2936,-1.3195,-1.3416,-1.3637,-1.4347,-1.5031,-1.5466,-1.5566,-1.5477,-1.5394,-1.5218,-1.5936,-1.6374,-1.6144,-1.6029,-1.5961,-1.5961,-1.5846,-1.5672,-1.5546,-1.5478,-1.542,-1.542,-1.542,-1.5546,-1.5546,-1.5556,-1.5546,-1.574,-1.5846,-1.5778,-1.5788,-1.5788,-1.5778,-1.572,-1.5604,-1.5536,-1.542,-1.542,-1.542,-1.542,-1.542,-1.542,-1.542,-1.542,-1.5468,-1.5633,-1.569,-1.5748,-1.5911,-1.5968,-1.6026,-1.5853,-1.5668,-1.5489,-1.5202,-1.4746,-1.4116,-1.363,-1.3396,-1.3221,-1.3016,-1.3055,-1.2899,-1.2928,-1.2905,-1.2693,-1.2588,-1.2471,-1.2421,-1.2391,-1.24,-1.2459,-1.2529,-1.2588,-1.2627,-1.2637,-1.2627,-1.2637,-1.2724,-1.2665,-1.2578,-1.2588,-1.2586,-1.2824,-1.2922,-1.2915,-1.2926,-1.2812,-1.2783,-1.2832,-1.2832,-1.2812,-1.2773,-1.2801,-1.282,-1.2938,-1.3017,-1.2939,-1.29,-1.2891,-1.2891,-1.2891,-1.2891,-1.2891,-1.2891,-1.2891,-1.2891,-1.2881,-1.2725,-1.251,-1.2549,-1.2686,-1.2725,-1.2792,-1.2861,-1.2978,-1.32,-1.3525,-1.4154,-1.4767,-1.5203,-1.5758,-1.599,-1.5881,-1.5718,-1.5879,-1.6239,-1.6077,-1.5972,-1.5914,-1.5856,-1.574,-1.5604,-1.5478,-1.542,-1.5362,-1.5186,-1.5059,-1.5069,-1.4951,-1.4893,-1.4765,-1.5128,-1.5313,-1.5371,-1.5546,-1.5604,-1.5662,-1.5604,-1.5536,-1.541,-1.542,-1.542,-1.542,-1.542,-1.542,-1.542,-1.542,-1.542,-1.541,-1.5468,-1.5468,-1.5468,-1.5584,-1.5526,-1.5526,-1.5468,-1.542,-1.5264,-1.5022,-1.4664,-1.4077,-1.3628,-1.333,-1.3111,-1.307,-1.3125,-1.2979,-1.3042,-1.3006,-1.278,-1.2388,-1.2351,-1.2274,-1.2172,-1.2341,-1.2707,-1.2529,-1.244,-1.248,-1.2529,-1.2529,-1.2548,-1.2603,-1.2535,-1.2457,-1.2466,-1.2682,-1.2927,-1.2725,-1.272,-1.2836,-1.2726,-1.2567,-1.2616,-1.2763,-1.2782,-1.2779,-1.2857,-1.2884,-1.3013,-1.3152,-1.3066,-1.2949,-1.2998,-1.2978,-1.2949,-1.292,-1.291,-1.29,-1.2891,-1.2891,-1.2891,-1.2793,-1.2686,-1.2637,-1.2783,-1.2783,-1.2783,-1.289,-1.2929,-1.3017,-1.3382,-1.3931,-1.4422,-1.4812,-1.5472,-1.6281,-1.6291,-1.6078,-1.6228,-1.6114,-1.6114,-1.6009,-1.5856,-1.573,-1.5546,-1.5362,-1.541,-1.542,-1.5352,-1.4824,-1.466,-1.4433,-1.3906,-1.3837,-1.4007,-1.4492,-1.4765,-1.4904,-1.5216,-1.5419,-1.5497,-1.5419,-1.5352,-1.5391,-1.542,-1.542,-1.542,-1.542,-1.542,-1.542,-1.542,-1.542,-1.5362,-1.5362,-1.5362,-1.542,-1.5362,-1.5362,-1.5371,-1.5362,-1.5254,-1.509,-1.4782,-1.4313,-1.3708,-1.3209,-1.2972,-1.2925,-1.3063,-1.3063,-1.3124,-1.3406,-1.3231,-1.281,-1.2158,-1.2057,-1.2081,-1.1904,-1.2148,-1.2503,-1.2398,-1.241,-1.2523,-1.2594,-1.248,-1.2536,-1.2577,-1.2499,-1.2406,-1.2558,-1.2718,-1.2626,-1.2364,-1.241,-1.2608,-1.254,-1.2351,-1.2404,-1.2579,-1.2682,-1.2772,-1.2828,-1.2856,-1.2997,-1.319,-1.3279,-1.3256,-1.3252,-1.3203,-1.3017,-1.2968,-1.2939,-1.293,-1.2959,-1.292,-1.2939,-1.3164,-1.3125,-1.3027,-1.293,-1.3008,-1.3027,-1.292,-1.2929,-1.2978,-1.32,-1.3525,-1.4014,-1.4698,-1.5377,-1.6163,-1.6349,-1.6255,-1.5669,-1.5961,-1.5846,-1.5788,-1.573,-1.5536,-1.5186,-1.4824,-1.5177,-1.5177,-1.4765,-1.5059,-1.4655,-1.4075,-1.4557,-1.4473,-1.4589,-1.4888,-1.5089,-1.5148,-1.4792,-1.5148,-1.5195,-1.506,-1.5128,-1.5255,-1.5332,-1.5323,-1.542,-1.542,-1.542,-1.542,-1.5362,-1.5362,-1.5254,-1.5254,-1.5245,-1.5303,-1.5254,-1.5264,-1.5205,-1.5196,-1.5088,-1.4954,-1.4582,-1.4118,-1.3594,-1.3306,-1.3044,-1.2679,-1.2969,-1.2912,-1.2281,-1.2325,-1.2215,-1.1845,-1.1566,-1.1495,-1.1551,-1.1526,-1.1746,-1.2056,-1.1856,-1.2358,-1.2556,-1.2618,-1.2325,-1.2307,-1.244,-1.2334,-1.2228,-1.235,-1.2552,-1.2471,-1.2165,-1.1868,-1.2025,-1.2,-1.1843,-1.1991,-1.2209,-1.2413,-1.252,-1.2761,-1.2842,-1.3023,-1.3184,-1.3362,-1.3442,-1.3455,-1.3413,-1.3227,-1.3103,-1.3045,-1.3096,-1.3105,-1.3037,-1.3018,-1.3203,-1.3369,-1.332,-1.3252,-1.3301,-1.3203,-1.2998,-1.291,-1.2939,-1.3162,-1.3382,-1.4118,-1.4755,-1.54,-1.5957,-1.6175,-1.6318,-1.459,-1.4932,-1.4811,-1.4597,-1.4446,-1.4285,-1.4066,-1.4055,-1.4915,-1.51,-1.4647,-1.4677,-1.4439,-1.3844,-1.3756,-1.3557,-1.35,-1.3464,-1.3638,-1.3736,-1.4035,-1.396,-1.4026,-1.4157,-1.4298,-1.4611,-1.4907,-1.4984,-1.5235,-1.5352,-1.541,-1.5313,-1.5313,-1.5196,-1.5079,-1.4834,-1.4697,-1.4824,-1.4961,-1.5098,-1.5039,-1.497,-1.497,-1.4768,-1.4448,-1.3989,-1.3451,-1.3277,-1.2806,-1.2369,-1.2586,-1.2446,-1.1917,-1.1912,-1.1794,-1.1488,-1.1302,-1.1546,-1.1776,-1.1426,-1.1615,-1.186,-1.1842,-1.2215,-1.2322,-1.2293,-1.2,-1.187,-1.201,-1.2092,-1.2059,-1.2059,-1.2249,-1.2423,-1.1866,-1.1264,-1.1279,-1.1255,-1.1364,-1.1505,-1.1738,-1.1975,-1.222,-1.2521,-1.275,-1.2841,-1.3111,-1.3485,-1.3571,-1.3591,-1.3565,-1.3485,-1.3307,-1.3186,-1.3219,-1.3153,-1.3027,-1.3018,-1.3066,-1.3223,-1.3389,-1.335,-1.3193,-1.3105,-1.3018,-1.2949,-1.2891,-1.3065,-1.3382,-1.4071,-1.4663,-1.5209,-1.5724,-1.61,-1.6275,-1.3218,-1.3551,-1.3242,-1.304,-1.2554,-1.2632,-1.2755,-1.2952,-1.4361,-1.4916,-1.443,-1.3931,-1.3593,-1.3067,-1.2595,-1.2264,-1.2386,-1.2417,-1.2584,-1.2131,-1.2621,-1.2811,-1.2873,-1.2572,-1.3327,-1.3725,-1.4059,-1.4384,-1.4925,-1.4923,-1.4815,-1.502,-1.4902,-1.4666,-1.441,-1.4103,-1.3906,-1.3906,-1.4222,-1.4478,-1.4725,-1.4793,-1.4784,-1.4523,-1.4081,-1.3609,-1.2958,-1.2486,-1.2166,-1.1961,-1.185,-1.1909,-1.1696,-1.1644,-1.1525,-1.138,-1.1088,-1.1359,-1.1518,-1.1322,-1.1745,-1.2187,-1.2691,-1.2196,-1.1835,-1.1878,-1.1686,-1.1604,-1.178,-1.1702,-1.1639,-1.1741,-1.1913,-1.1776,-1.1299,-1.0932,-1.0905,-1.0925,-1.0895,-1.1127,-1.1461,-1.1733,-1.1752,-1.2051,-1.2455,-1.2638,-1.2856,-1.3327,-1.3504,-1.3541,-1.3654,-1.3678,-1.3546,-1.3394,-1.3215,-1.313,-1.3006,-1.2988,-1.3154,-1.3457,-1.3887,-1.3555,-1.3008,-1.2978,-1.2959,-1.293,-1.2929,-1.3065,-1.3286,-1.3884,-1.4468,-1.4926,-1.5433,-1.5913,-1.6231,-1.2705,-1.2767,-1.268,-1.2616,-1.2507,-1.2513,-1.2298,-1.2186,-1.2873,-1.309,-1.2972,-1.2817,-1.241,-1.1831,-1.2041,-1.1947,-1.186,-1.1748,-1.2239,-1.2095,-1.2069,-1.1902,-1.2341,-1.2134,-1.2638,-1.3159,-1.3479,-1.3637,-1.3879,-1.3846,-1.3726,-1.3614,-1.3683,-1.3683,-1.3494,-1.3122,-1.3061,-1.294,-1.3,-1.3502,-1.3872,-1.3881,-1.3803,-1.3698,-1.3371,-1.2898,-1.2355,-1.2089,-1.1749,-1.1537,-1.1586,-1.1377,-1.094,-1.0933,-1.0906,-1.0829,-1.0781,-1.1044,-1.11,-1.1078,-1.1224,-1.1183,-1.1317,-1.1122,-1.1114,-1.1316,-1.1433,-1.1441,-1.1396,-1.1338,-1.1294,-1.1442,-1.1456,-1.1114,-1.0732,-1.0685,-1.0636,-1.0601,-1.0545,-1.0845,-1.1231,-1.1311,-1.1377,-1.1591,-1.2027,-1.2332,-1.2469,-1.2789,-1.3142,-1.3312,-1.3642,-1.3688,-1.3697,-1.3584,-1.3361,-1.3221,-1.3147,-1.3413,-1.3669,-1.4043,-1.4336,-1.3867,-1.332,-1.3018,-1.2891,-1.2891,-1.2891,-1.2929,-1.3248,-1.3742,-1.419,-1.4641,-1.5209,-1.568,-1.6044,-1.1231,-1.1366,-1.1112,-1.1291,-1.1543,-1.1372,-1.1301,-1.1399,-1.1325,-1.1341,-1.1606,-1.1922,-1.1834,-1.1166,-1.1556,-1.1639,-1.1403,-1.1223,-1.1144,-1.119,-1.1231,-1.0974,-1.1124,-1.1307,-1.1546,-1.201,-1.2831,-1.3152,-1.3036,-1.3183,-1.3183,-1.2887,-1.2826,-1.2765,-1.2581,-1.2397,-1.222,-1.2097,-1.1849,-1.2158,-1.2773,-1.2895,-1.3017,-1.2978,-1.2783,-1.2278,-1.1941,-1.1692,-1.1421,-1.1159,-1.1091,-1.0996,-1.0717,-1.0654,-1.0604,-1.0618,-1.0674,-1.0688,-1.0807,-1.0744,-1.0744,-1.0814,-1.0624,-1.0814,-1.0814,-1.0961,-1.0954,-1.1023,-1.1023,-1.0925,-1.0925,-1.1023,-1.103,-1.078,-1.0511,-1.0322,-1.0424,-1.0479,-1.0506,-1.0671,-1.0878,-1.0892,-1.0933,-1.0989,-1.137,-1.1425,-1.171,-1.2143,-1.252,-1.2948,-1.3288,-1.3597,-1.3575,-1.3652,-1.3565,-1.3423,-1.338,-1.3715,-1.4082,-1.4019,-1.4033,-1.3906,-1.3643,-1.3174,-1.2891,-1.2891,-1.2891,-1.2891,-1.3162,-1.3621,-1.4014,-1.4365,-1.4892,-1.5412,-1.5768,-0.9682,-0.9792,-0.9437,-0.9658,-1.0221,-0.9855,-1.0061,-1.0469,-0.9941,-0.9903,-1.0379,-1.1218,-1.1572,-1.1253,-1.0785,-1.0672,-1.0492,-1.0204,-0.9999,-1.0013,-0.9873,-0.9956,-0.9881,-0.9829,-1.0431,-1.1191,-1.1982,-1.2378,-1.2451,-1.2512,-1.2451,-1.252,-1.2458,-1.2397,-1.2151,-1.1787,-1.1428,-1.1303,-1.1178,-1.1052,-1.1476,-1.202,-1.2266,-1.2389,-1.2328,-1.2027,-1.1608,-1.1296,-1.1045,-1.0912,-1.0703,-1.0667,-1.0618,-1.0618,-1.0618,-1.0618,-1.0618,-1.0807,-1.0996,-1.0807,-1.0933,-1.0996,-1.0751,-1.0624,-1.0624,-1.0624,-1.0618,-1.0618,-1.0618,-1.0584,-1.0577,-1.0674,-1.0667,-1.0551,-1.0349,-1.018,-1.0301,-1.0394,-1.0474,-1.0618,-1.0624,-1.0624,-1.0624,-1.0618,-1.0681,-1.0744,-1.0926,-1.1288,-1.1717,-1.2205,-1.2631,-1.304,-1.3218,-1.3331,-1.3451,-1.3645,-1.3559,-1.3882,-1.4154,-1.3951,-1.376,-1.373,-1.3535,-1.3096,-1.2891,-1.2891,-1.2891,-1.2891,-1.321,-1.344,-1.3752,-1.4061,-1.4479,-1.4949,-1.5457,-0.9286,-0.9365,-0.9224,-0.921,-0.9146,-0.9438,-0.957,-0.9546,-0.9614,-0.9666,-0.9792,-0.9755,-0.9911,-1.0023,-0.9769,-0.9754,-0.9888,-0.9427,-0.9472,-0.9606,-0.9449,-0.9277,-0.9256,-0.9453,-1.0044,-1.0596,-1.11,-1.1276,-1.1567,-1.1425,-1.1226,-1.1142,-1.1108,-1.1108,-1.1038,-1.08,-1.087,-1.0807,-1.0807,-1.0744,-1.087,-1.1296,-1.1608,-1.167,-1.167,-1.1303,-1.0933,-1.0807,-1.0681,-1.0624,-1.0555,-1.0555,-1.0555,-1.0555,-1.0491,-1.0491,-1.0491,-1.0618,-1.0681,-1.0611,-1.0737,-1.0744,-1.0561,-1.0561,-1.0561,-1.0618,-1.0618,-1.0618,-1.0591,-1.0497,-1.049,-1.0591,-1.0604,-1.0504,-1.0287,-1.0374,-1.0481,-1.0501,-1.0528,-1.0618,-1.0618,-1.0624,-1.0618,-1.0618,-1.0618,-1.0681,-1.0681,-1.0989,-1.1108,-1.1531,-1.1958,-1.2273,-1.2651,-1.2906,-1.3018,-1.3617,-1.3744,-1.406,-1.4215,-1.4068,-1.3857,-1.3662,-1.3398,-1.3008,-1.2891,-1.2891,-1.2891,-1.2891,-1.2978,-1.3162,-1.3488,-1.38,-1.4118,-1.4536,-1.5085]}]]